<?xml version="1.0" encoding="UTF-8" standalone="no" ?>
<gpx xmlns="http://www.topografix.com/GPX/1/1" xmlns:xsi="http://www.w3.org/2001/XMLSchema-instance" xsi:schemaLocation="http://www.topografix.com/GPX/1/1 http://www.topografix.com/GPX/1/1/gpx.xsd" version="1.1" creator="VisuGPX - https://www.visugpx.com">
  <metadata>
    <name>Parcours trail de St Régis </name>
  </metadata>
  <trk>
    <name><![CDATA[Parcours trail de St Régis _1]]></name>
    <trkseg>
      <trkpt lat="45.2832" lon="4.44472">
        <ele>1080</ele>
        <time>2021-02-07T07:59:08Z</time>
      </trkpt>
      <trkpt lat="45.28319" lon="4.44467">
        <ele>1079</ele>
        <time>2021-02-07T07:59:10Z</time>
      </trkpt>
      <trkpt lat="45.28317" lon="4.44461">
        <ele>1079</ele>
        <time>2021-02-07T07:59:14Z</time>
      </trkpt>
      <trkpt lat="45.28313" lon="4.44457">
        <ele>1079</ele>
        <time>2021-02-07T07:59:17Z</time>
      </trkpt>
      <trkpt lat="45.28309" lon="4.44456">
        <ele>1079</ele>
        <time>2021-02-07T07:59:19Z</time>
      </trkpt>
      <trkpt lat="45.28304" lon="4.44454">
        <ele>1078</ele>
        <time>2021-02-07T07:59:21Z</time>
      </trkpt>
      <trkpt lat="45.28297" lon="4.44451">
        <ele>1078</ele>
        <time>2021-02-07T07:59:24Z</time>
      </trkpt>
      <trkpt lat="45.28286" lon="4.44443">
        <ele>1078</ele>
        <time>2021-02-07T07:59:28Z</time>
      </trkpt>
      <trkpt lat="45.28282" lon="4.44439">
        <ele>1077</ele>
        <time>2021-02-07T07:59:30Z</time>
      </trkpt>
      <trkpt lat="45.28276" lon="4.44435">
        <ele>1077</ele>
        <time>2021-02-07T07:59:32Z</time>
      </trkpt>
      <trkpt lat="45.28271" lon="4.44431">
        <ele>1077</ele>
        <time>2021-02-07T07:59:34Z</time>
      </trkpt>
      <trkpt lat="45.28266" lon="4.44426">
        <ele>1077</ele>
        <time>2021-02-07T07:59:36Z</time>
      </trkpt>
      <trkpt lat="45.28261" lon="4.44422">
        <ele>1077</ele>
        <time>2021-02-07T07:59:38Z</time>
      </trkpt>
      <trkpt lat="45.28257" lon="4.44418">
        <ele>1077</ele>
        <time>2021-02-07T07:59:40Z</time>
      </trkpt>
      <trkpt lat="45.28252" lon="4.44414">
        <ele>1077</ele>
        <time>2021-02-07T07:59:42Z</time>
      </trkpt>
      <trkpt lat="45.28247" lon="4.44409">
        <ele>1077</ele>
        <time>2021-02-07T07:59:44Z</time>
      </trkpt>
      <trkpt lat="45.28242" lon="4.44406">
        <ele>1077</ele>
        <time>2021-02-07T07:59:46Z</time>
      </trkpt>
      <trkpt lat="45.28237" lon="4.44402">
        <ele>1077</ele>
        <time>2021-02-07T07:59:48Z</time>
      </trkpt>
      <trkpt lat="45.28233" lon="4.44397">
        <ele>1077</ele>
        <time>2021-02-07T07:59:50Z</time>
      </trkpt>
      <trkpt lat="45.28227" lon="4.44393">
        <ele>1077</ele>
        <time>2021-02-07T07:59:52Z</time>
      </trkpt>
      <trkpt lat="45.28223" lon="4.44387">
        <ele>1077</ele>
        <time>2021-02-07T07:59:54Z</time>
      </trkpt>
      <trkpt lat="45.28216" lon="4.44381">
        <ele>1078</ele>
        <time>2021-02-07T07:59:57Z</time>
      </trkpt>
      <trkpt lat="45.28211" lon="4.44377">
        <ele>1078</ele>
        <time>2021-02-07T07:59:59Z</time>
      </trkpt>
      <trkpt lat="45.28206" lon="4.44374">
        <ele>1078</ele>
        <time>2021-02-07T08:00:01Z</time>
      </trkpt>
      <trkpt lat="45.28201" lon="4.44373">
        <ele>1078</ele>
        <time>2021-02-07T08:00:03Z</time>
      </trkpt>
      <trkpt lat="45.28196" lon="4.44371">
        <ele>1078</ele>
        <time>2021-02-07T08:00:05Z</time>
      </trkpt>
      <trkpt lat="45.28191" lon="4.44368">
        <ele>1078</ele>
        <time>2021-02-07T08:00:07Z</time>
      </trkpt>
      <trkpt lat="45.28186" lon="4.44365">
        <ele>1076</ele>
        <time>2021-02-07T08:00:09Z</time>
      </trkpt>
      <trkpt lat="45.28181" lon="4.44361">
        <ele>1076</ele>
        <time>2021-02-07T08:00:11Z</time>
      </trkpt>
      <trkpt lat="45.28177" lon="4.44358">
        <ele>1076</ele>
        <time>2021-02-07T08:00:13Z</time>
      </trkpt>
      <trkpt lat="45.28172" lon="4.44355">
        <ele>1075</ele>
        <time>2021-02-07T08:00:15Z</time>
      </trkpt>
      <trkpt lat="45.28168" lon="4.44352">
        <ele>1074</ele>
        <time>2021-02-07T08:00:17Z</time>
      </trkpt>
      <trkpt lat="45.28164" lon="4.44349">
        <ele>1073</ele>
        <time>2021-02-07T08:00:19Z</time>
      </trkpt>
      <trkpt lat="45.28159" lon="4.44345">
        <ele>1072</ele>
        <time>2021-02-07T08:00:21Z</time>
      </trkpt>
      <trkpt lat="45.28153" lon="4.44342">
        <ele>1072</ele>
        <time>2021-02-07T08:00:23Z</time>
      </trkpt>
      <trkpt lat="45.28148" lon="4.44337">
        <ele>1071</ele>
        <time>2021-02-07T08:00:25Z</time>
      </trkpt>
      <trkpt lat="45.28143" lon="4.44333">
        <ele>1070</ele>
        <time>2021-02-07T08:00:27Z</time>
      </trkpt>
      <trkpt lat="45.28137" lon="4.44328">
        <ele>1070</ele>
        <time>2021-02-07T08:00:29Z</time>
      </trkpt>
      <trkpt lat="45.28132" lon="4.44325">
        <ele>1069</ele>
        <time>2021-02-07T08:00:31Z</time>
      </trkpt>
      <trkpt lat="45.28126" lon="4.4432">
        <ele>1067</ele>
        <time>2021-02-07T08:00:33Z</time>
      </trkpt>
      <trkpt lat="45.28121" lon="4.44316">
        <ele>1067</ele>
        <time>2021-02-07T08:00:35Z</time>
      </trkpt>
      <trkpt lat="45.28116" lon="4.44312">
        <ele>1065</ele>
        <time>2021-02-07T08:00:37Z</time>
      </trkpt>
      <trkpt lat="45.28112" lon="4.44307">
        <ele>1065</ele>
        <time>2021-02-07T08:00:39Z</time>
      </trkpt>
      <trkpt lat="45.28108" lon="4.44302">
        <ele>1064</ele>
        <time>2021-02-07T08:00:41Z</time>
      </trkpt>
      <trkpt lat="45.28101" lon="4.44294">
        <ele>1064</ele>
        <time>2021-02-07T08:00:44Z</time>
      </trkpt>
      <trkpt lat="45.28099" lon="4.44291">
        <ele>1061</ele>
        <time>2021-02-07T08:00:45Z</time>
      </trkpt>
      <trkpt lat="45.28096" lon="4.44288">
        <ele>1061</ele>
        <time>2021-02-07T08:00:46Z</time>
      </trkpt>
      <trkpt lat="45.28091" lon="4.44282">
        <ele>1060</ele>
        <time>2021-02-07T08:00:48Z</time>
      </trkpt>
      <trkpt lat="45.28088" lon="4.44279">
        <ele>1059</ele>
        <time>2021-02-07T08:00:49Z</time>
      </trkpt>
      <trkpt lat="45.28085" lon="4.44276">
        <ele>1059</ele>
        <time>2021-02-07T08:00:50Z</time>
      </trkpt>
      <trkpt lat="45.2808" lon="4.4427">
        <ele>1059</ele>
        <time>2021-02-07T08:00:52Z</time>
      </trkpt>
      <trkpt lat="45.28075" lon="4.44264">
        <ele>1057</ele>
        <time>2021-02-07T08:00:54Z</time>
      </trkpt>
      <trkpt lat="45.28069" lon="4.44259">
        <ele>1057</ele>
        <time>2021-02-07T08:00:56Z</time>
      </trkpt>
      <trkpt lat="45.28065" lon="4.44255">
        <ele>1055</ele>
        <time>2021-02-07T08:00:58Z</time>
      </trkpt>
      <trkpt lat="45.2806" lon="4.4425">
        <ele>1054</ele>
        <time>2021-02-07T08:01:00Z</time>
      </trkpt>
      <trkpt lat="45.28056" lon="4.44243">
        <ele>1054</ele>
        <time>2021-02-07T08:01:02Z</time>
      </trkpt>
      <trkpt lat="45.28051" lon="4.44237">
        <ele>1054</ele>
        <time>2021-02-07T08:01:04Z</time>
      </trkpt>
      <trkpt lat="45.28048" lon="4.44232">
        <ele>1052</ele>
        <time>2021-02-07T08:01:06Z</time>
      </trkpt>
      <trkpt lat="45.28044" lon="4.44226">
        <ele>1051</ele>
        <time>2021-02-07T08:01:08Z</time>
      </trkpt>
      <trkpt lat="45.28039" lon="4.44219">
        <ele>1050</ele>
        <time>2021-02-07T08:01:10Z</time>
      </trkpt>
      <trkpt lat="45.28035" lon="4.44214">
        <ele>1049</ele>
        <time>2021-02-07T08:01:12Z</time>
      </trkpt>
      <trkpt lat="45.2803" lon="4.44208">
        <ele>1049</ele>
        <time>2021-02-07T08:01:14Z</time>
      </trkpt>
      <trkpt lat="45.28025" lon="4.44202">
        <ele>1049</ele>
        <time>2021-02-07T08:01:16Z</time>
      </trkpt>
      <trkpt lat="45.2802" lon="4.44197">
        <ele>1048</ele>
        <time>2021-02-07T08:01:18Z</time>
      </trkpt>
      <trkpt lat="45.28016" lon="4.44192">
        <ele>1048</ele>
        <time>2021-02-07T08:01:20Z</time>
      </trkpt>
      <trkpt lat="45.28011" lon="4.44186">
        <ele>1046</ele>
        <time>2021-02-07T08:01:22Z</time>
      </trkpt>
      <trkpt lat="45.28006" lon="4.44181">
        <ele>1045</ele>
        <time>2021-02-07T08:01:24Z</time>
      </trkpt>
      <trkpt lat="45.28002" lon="4.44175">
        <ele>1045</ele>
        <time>2021-02-07T08:01:26Z</time>
      </trkpt>
      <trkpt lat="45.27997" lon="4.4417">
        <ele>1045</ele>
        <time>2021-02-07T08:01:28Z</time>
      </trkpt>
      <trkpt lat="45.27992" lon="4.44165">
        <ele>1045</ele>
        <time>2021-02-07T08:01:30Z</time>
      </trkpt>
      <trkpt lat="45.27987" lon="4.4416">
        <ele>1043</ele>
        <time>2021-02-07T08:01:32Z</time>
      </trkpt>
      <trkpt lat="45.27982" lon="4.44156">
        <ele>1042</ele>
        <time>2021-02-07T08:01:34Z</time>
      </trkpt>
      <trkpt lat="45.27977" lon="4.44151">
        <ele>1041</ele>
        <time>2021-02-07T08:01:36Z</time>
      </trkpt>
      <trkpt lat="45.27972" lon="4.44146">
        <ele>1041</ele>
        <time>2021-02-07T08:01:38Z</time>
      </trkpt>
      <trkpt lat="45.27966" lon="4.44143">
        <ele>1040</ele>
        <time>2021-02-07T08:01:40Z</time>
      </trkpt>
      <trkpt lat="45.27961" lon="4.4414">
        <ele>1040</ele>
        <time>2021-02-07T08:01:42Z</time>
      </trkpt>
      <trkpt lat="45.27956" lon="4.44137">
        <ele>1038</ele>
        <time>2021-02-07T08:01:44Z</time>
      </trkpt>
      <trkpt lat="45.27951" lon="4.44135">
        <ele>1038</ele>
        <time>2021-02-07T08:01:46Z</time>
      </trkpt>
      <trkpt lat="45.27946" lon="4.44132">
        <ele>1037</ele>
        <time>2021-02-07T08:01:48Z</time>
      </trkpt>
      <trkpt lat="45.2794" lon="4.44129">
        <ele>1037</ele>
        <time>2021-02-07T08:01:50Z</time>
      </trkpt>
      <trkpt lat="45.27935" lon="4.44127">
        <ele>1037</ele>
        <time>2021-02-07T08:01:52Z</time>
      </trkpt>
      <trkpt lat="45.27929" lon="4.44125">
        <ele>1036</ele>
        <time>2021-02-07T08:01:54Z</time>
      </trkpt>
      <trkpt lat="45.27923" lon="4.44122">
        <ele>1036</ele>
        <time>2021-02-07T08:01:56Z</time>
      </trkpt>
      <trkpt lat="45.27918" lon="4.44121">
        <ele>1036</ele>
        <time>2021-02-07T08:01:58Z</time>
      </trkpt>
      <trkpt lat="45.27912" lon="4.44119">
        <ele>1036</ele>
        <time>2021-02-07T08:02:00Z</time>
      </trkpt>
      <trkpt lat="45.27907" lon="4.44117">
        <ele>1035</ele>
        <time>2021-02-07T08:02:02Z</time>
      </trkpt>
      <trkpt lat="45.27901" lon="4.44116">
        <ele>1035</ele>
        <time>2021-02-07T08:02:04Z</time>
      </trkpt>
      <trkpt lat="45.27895" lon="4.44116">
        <ele>1035</ele>
        <time>2021-02-07T08:02:06Z</time>
      </trkpt>
      <trkpt lat="45.2789" lon="4.44116">
        <ele>1034</ele>
        <time>2021-02-07T08:02:08Z</time>
      </trkpt>
      <trkpt lat="45.27884" lon="4.44117">
        <ele>1034</ele>
        <time>2021-02-07T08:02:10Z</time>
      </trkpt>
      <trkpt lat="45.27878" lon="4.44118">
        <ele>1034</ele>
        <time>2021-02-07T08:02:12Z</time>
      </trkpt>
      <trkpt lat="45.27872" lon="4.44119">
        <ele>1034</ele>
        <time>2021-02-07T08:02:14Z</time>
      </trkpt>
      <trkpt lat="45.27867" lon="4.4412">
        <ele>1033</ele>
        <time>2021-02-07T08:02:16Z</time>
      </trkpt>
      <trkpt lat="45.27862" lon="4.44121">
        <ele>1032</ele>
        <time>2021-02-07T08:02:18Z</time>
      </trkpt>
      <trkpt lat="45.27856" lon="4.44122">
        <ele>1032</ele>
        <time>2021-02-07T08:02:20Z</time>
      </trkpt>
      <trkpt lat="45.27851" lon="4.44121">
        <ele>1032</ele>
        <time>2021-02-07T08:02:22Z</time>
      </trkpt>
      <trkpt lat="45.27846" lon="4.4412">
        <ele>1031</ele>
        <time>2021-02-07T08:02:24Z</time>
      </trkpt>
      <trkpt lat="45.27841" lon="4.44118">
        <ele>1031</ele>
        <time>2021-02-07T08:02:26Z</time>
      </trkpt>
      <trkpt lat="45.27836" lon="4.44115">
        <ele>1030</ele>
        <time>2021-02-07T08:02:28Z</time>
      </trkpt>
      <trkpt lat="45.27831" lon="4.44113">
        <ele>1028</ele>
        <time>2021-02-07T08:02:30Z</time>
      </trkpt>
      <trkpt lat="45.27828" lon="4.44112">
        <ele>1027</ele>
        <time>2021-02-07T08:02:31Z</time>
      </trkpt>
      <trkpt lat="45.27822" lon="4.44111">
        <ele>1027</ele>
        <time>2021-02-07T08:02:33Z</time>
      </trkpt>
      <trkpt lat="45.27817" lon="4.44111">
        <ele>1026</ele>
        <time>2021-02-07T08:02:35Z</time>
      </trkpt>
      <trkpt lat="45.27812" lon="4.44112">
        <ele>1025</ele>
        <time>2021-02-07T08:02:37Z</time>
      </trkpt>
      <trkpt lat="45.27806" lon="4.44111">
        <ele>1025</ele>
        <time>2021-02-07T08:02:39Z</time>
      </trkpt>
      <trkpt lat="45.27803" lon="4.44113">
        <ele>1025</ele>
        <time>2021-02-07T08:02:41Z</time>
      </trkpt>
      <trkpt lat="45.278" lon="4.44118">
        <ele>1022</ele>
        <time>2021-02-07T08:02:43Z</time>
      </trkpt>
      <trkpt lat="45.27799" lon="4.44123">
        <ele>1020</ele>
        <time>2021-02-07T08:02:46Z</time>
      </trkpt>
      <trkpt lat="45.27801" lon="4.44126">
        <ele>1018</ele>
        <time>2021-02-07T08:02:52Z</time>
      </trkpt>
      <trkpt lat="45.27798" lon="4.44122">
        <ele>1018</ele>
        <time>2021-02-07T08:02:56Z</time>
      </trkpt>
      <trkpt lat="45.278" lon="4.44118">
        <ele>1019</ele>
        <time>2021-02-07T08:03:15Z</time>
      </trkpt>
      <trkpt lat="45.27799" lon="4.44123">
        <ele>1019</ele>
        <time>2021-02-07T08:03:23Z</time>
      </trkpt>
      <trkpt lat="45.27797" lon="4.44129">
        <ele>1020</ele>
        <time>2021-02-07T08:03:25Z</time>
      </trkpt>
      <trkpt lat="45.27795" lon="4.44133">
        <ele>1020</ele>
        <time>2021-02-07T08:03:26Z</time>
      </trkpt>
      <trkpt lat="45.27792" lon="4.44136">
        <ele>1020</ele>
        <time>2021-02-07T08:03:27Z</time>
      </trkpt>
      <trkpt lat="45.27789" lon="4.4414">
        <ele>1020</ele>
        <time>2021-02-07T08:03:28Z</time>
      </trkpt>
      <trkpt lat="45.27784" lon="4.44145">
        <ele>1020</ele>
        <time>2021-02-07T08:03:30Z</time>
      </trkpt>
      <trkpt lat="45.27779" lon="4.44149">
        <ele>1020</ele>
        <time>2021-02-07T08:03:32Z</time>
      </trkpt>
      <trkpt lat="45.27773" lon="4.44152">
        <ele>1020</ele>
        <time>2021-02-07T08:03:34Z</time>
      </trkpt>
      <trkpt lat="45.27768" lon="4.44155">
        <ele>1020</ele>
        <time>2021-02-07T08:03:36Z</time>
      </trkpt>
      <trkpt lat="45.27764" lon="4.44158">
        <ele>1021</ele>
        <time>2021-02-07T08:03:38Z</time>
      </trkpt>
      <trkpt lat="45.27759" lon="4.4416">
        <ele>1021</ele>
        <time>2021-02-07T08:03:40Z</time>
      </trkpt>
      <trkpt lat="45.27756" lon="4.44162">
        <ele>1023</ele>
        <time>2021-02-07T08:03:44Z</time>
      </trkpt>
      <trkpt lat="45.27755" lon="4.44156">
        <ele>1023</ele>
        <time>2021-02-07T08:03:47Z</time>
      </trkpt>
      <trkpt lat="45.27754" lon="4.44149">
        <ele>1023</ele>
        <time>2021-02-07T08:03:49Z</time>
      </trkpt>
      <trkpt lat="45.27753" lon="4.4414">
        <ele>1023</ele>
        <time>2021-02-07T08:03:51Z</time>
      </trkpt>
      <trkpt lat="45.27753" lon="4.44132">
        <ele>1022</ele>
        <time>2021-02-07T08:03:53Z</time>
      </trkpt>
      <trkpt lat="45.27753" lon="4.44124">
        <ele>1022</ele>
        <time>2021-02-07T08:03:55Z</time>
      </trkpt>
      <trkpt lat="45.27753" lon="4.44116">
        <ele>1020</ele>
        <time>2021-02-07T08:03:57Z</time>
      </trkpt>
      <trkpt lat="45.27753" lon="4.44108">
        <ele>1020</ele>
        <time>2021-02-07T08:03:59Z</time>
      </trkpt>
      <trkpt lat="45.27754" lon="4.44099">
        <ele>1020</ele>
        <time>2021-02-07T08:04:01Z</time>
      </trkpt>
      <trkpt lat="45.27755" lon="4.44091">
        <ele>1019</ele>
        <time>2021-02-07T08:04:03Z</time>
      </trkpt>
      <trkpt lat="45.27756" lon="4.44084">
        <ele>1019</ele>
        <time>2021-02-07T08:04:05Z</time>
      </trkpt>
      <trkpt lat="45.27758" lon="4.44077">
        <ele>1019</ele>
        <time>2021-02-07T08:04:07Z</time>
      </trkpt>
      <trkpt lat="45.27759" lon="4.4407">
        <ele>1019</ele>
        <time>2021-02-07T08:04:09Z</time>
      </trkpt>
      <trkpt lat="45.27761" lon="4.44063">
        <ele>1019</ele>
        <time>2021-02-07T08:04:11Z</time>
      </trkpt>
      <trkpt lat="45.27763" lon="4.44057">
        <ele>1018</ele>
        <time>2021-02-07T08:04:13Z</time>
      </trkpt>
      <trkpt lat="45.27765" lon="4.44051">
        <ele>1017</ele>
        <time>2021-02-07T08:04:15Z</time>
      </trkpt>
      <trkpt lat="45.27767" lon="4.44045">
        <ele>1017</ele>
        <time>2021-02-07T08:04:17Z</time>
      </trkpt>
      <trkpt lat="45.2777" lon="4.44037">
        <ele>1016</ele>
        <time>2021-02-07T08:04:19Z</time>
      </trkpt>
      <trkpt lat="45.27771" lon="4.4403">
        <ele>1016</ele>
        <time>2021-02-07T08:04:21Z</time>
      </trkpt>
      <trkpt lat="45.27773" lon="4.44023">
        <ele>1016</ele>
        <time>2021-02-07T08:04:23Z</time>
      </trkpt>
      <trkpt lat="45.27775" lon="4.44016">
        <ele>1015</ele>
        <time>2021-02-07T08:04:25Z</time>
      </trkpt>
      <trkpt lat="45.27777" lon="4.44008">
        <ele>1014</ele>
        <time>2021-02-07T08:04:27Z</time>
      </trkpt>
      <trkpt lat="45.27779" lon="4.44001">
        <ele>1013</ele>
        <time>2021-02-07T08:04:29Z</time>
      </trkpt>
      <trkpt lat="45.27781" lon="4.43992">
        <ele>1013</ele>
        <time>2021-02-07T08:04:31Z</time>
      </trkpt>
      <trkpt lat="45.27783" lon="4.43984">
        <ele>1013</ele>
        <time>2021-02-07T08:04:33Z</time>
      </trkpt>
      <trkpt lat="45.27785" lon="4.43976">
        <ele>1011</ele>
        <time>2021-02-07T08:04:35Z</time>
      </trkpt>
      <trkpt lat="45.27787" lon="4.43969">
        <ele>1011</ele>
        <time>2021-02-07T08:04:37Z</time>
      </trkpt>
      <trkpt lat="45.2779" lon="4.43961">
        <ele>1011</ele>
        <time>2021-02-07T08:04:39Z</time>
      </trkpt>
      <trkpt lat="45.27792" lon="4.43954">
        <ele>1010</ele>
        <time>2021-02-07T08:04:41Z</time>
      </trkpt>
      <trkpt lat="45.27794" lon="4.43946">
        <ele>1009</ele>
        <time>2021-02-07T08:04:43Z</time>
      </trkpt>
      <trkpt lat="45.27796" lon="4.43938">
        <ele>1009</ele>
        <time>2021-02-07T08:04:45Z</time>
      </trkpt>
      <trkpt lat="45.27798" lon="4.4393">
        <ele>1009</ele>
        <time>2021-02-07T08:04:47Z</time>
      </trkpt>
      <trkpt lat="45.27798" lon="4.43923">
        <ele>1009</ele>
        <time>2021-02-07T08:04:49Z</time>
      </trkpt>
      <trkpt lat="45.278" lon="4.43917">
        <ele>1009</ele>
        <time>2021-02-07T08:04:51Z</time>
      </trkpt>
      <trkpt lat="45.27801" lon="4.43911">
        <ele>1008</ele>
        <time>2021-02-07T08:04:53Z</time>
      </trkpt>
      <trkpt lat="45.27804" lon="4.43905">
        <ele>1008</ele>
        <time>2021-02-07T08:04:55Z</time>
      </trkpt>
      <trkpt lat="45.27806" lon="4.43898">
        <ele>1008</ele>
        <time>2021-02-07T08:04:57Z</time>
      </trkpt>
      <trkpt lat="45.27809" lon="4.43891">
        <ele>1008</ele>
        <time>2021-02-07T08:04:59Z</time>
      </trkpt>
      <trkpt lat="45.27814" lon="4.43885">
        <ele>1008</ele>
        <time>2021-02-07T08:05:01Z</time>
      </trkpt>
      <trkpt lat="45.27819" lon="4.43881">
        <ele>1008</ele>
        <time>2021-02-07T08:05:03Z</time>
      </trkpt>
      <trkpt lat="45.27825" lon="4.43878">
        <ele>1008</ele>
        <time>2021-02-07T08:05:05Z</time>
      </trkpt>
      <trkpt lat="45.27829" lon="4.43874">
        <ele>1009</ele>
        <time>2021-02-07T08:05:07Z</time>
      </trkpt>
      <trkpt lat="45.27833" lon="4.43869">
        <ele>1008</ele>
        <time>2021-02-07T08:05:09Z</time>
      </trkpt>
      <trkpt lat="45.27837" lon="4.43866">
        <ele>1008</ele>
        <time>2021-02-07T08:05:11Z</time>
      </trkpt>
      <trkpt lat="45.27841" lon="4.43863">
        <ele>1008</ele>
        <time>2021-02-07T08:05:13Z</time>
      </trkpt>
      <trkpt lat="45.27845" lon="4.43858">
        <ele>1008</ele>
        <time>2021-02-07T08:05:15Z</time>
      </trkpt>
      <trkpt lat="45.27848" lon="4.43854">
        <ele>1009</ele>
        <time>2021-02-07T08:05:17Z</time>
      </trkpt>
      <trkpt lat="45.2785" lon="4.43848">
        <ele>1009</ele>
        <time>2021-02-07T08:05:19Z</time>
      </trkpt>
      <trkpt lat="45.27853" lon="4.43841">
        <ele>1009</ele>
        <time>2021-02-07T08:05:21Z</time>
      </trkpt>
      <trkpt lat="45.27856" lon="4.43833">
        <ele>1009</ele>
        <time>2021-02-07T08:05:23Z</time>
      </trkpt>
      <trkpt lat="45.27856" lon="4.43825">
        <ele>1009</ele>
        <time>2021-02-07T08:05:25Z</time>
      </trkpt>
      <trkpt lat="45.27858" lon="4.43817">
        <ele>1009</ele>
        <time>2021-02-07T08:05:27Z</time>
      </trkpt>
      <trkpt lat="45.27859" lon="4.43809">
        <ele>1009</ele>
        <time>2021-02-07T08:05:29Z</time>
      </trkpt>
      <trkpt lat="45.2786" lon="4.43802">
        <ele>1009</ele>
        <time>2021-02-07T08:05:31Z</time>
      </trkpt>
      <trkpt lat="45.27861" lon="4.43795">
        <ele>1009</ele>
        <time>2021-02-07T08:05:33Z</time>
      </trkpt>
      <trkpt lat="45.27862" lon="4.43788">
        <ele>1009</ele>
        <time>2021-02-07T08:05:35Z</time>
      </trkpt>
      <trkpt lat="45.27862" lon="4.43781">
        <ele>1010</ele>
        <time>2021-02-07T08:05:37Z</time>
      </trkpt>
      <trkpt lat="45.27862" lon="4.43774">
        <ele>1010</ele>
        <time>2021-02-07T08:05:39Z</time>
      </trkpt>
      <trkpt lat="45.27862" lon="4.43767">
        <ele>1010</ele>
        <time>2021-02-07T08:05:41Z</time>
      </trkpt>
      <trkpt lat="45.27862" lon="4.43761">
        <ele>1010</ele>
        <time>2021-02-07T08:05:43Z</time>
      </trkpt>
      <trkpt lat="45.27863" lon="4.43755">
        <ele>1011</ele>
        <time>2021-02-07T08:05:45Z</time>
      </trkpt>
      <trkpt lat="45.27863" lon="4.43747">
        <ele>1011</ele>
        <time>2021-02-07T08:05:47Z</time>
      </trkpt>
      <trkpt lat="45.27862" lon="4.43742">
        <ele>1013</ele>
        <time>2021-02-07T08:05:50Z</time>
      </trkpt>
      <trkpt lat="45.27866" lon="4.43741">
        <ele>1013</ele>
        <time>2021-02-07T08:05:55Z</time>
      </trkpt>
      <trkpt lat="45.2787" lon="4.43744">
        <ele>1013</ele>
        <time>2021-02-07T08:05:58Z</time>
      </trkpt>
      <trkpt lat="45.27873" lon="4.43746">
        <ele>1013</ele>
        <time>2021-02-07T08:06:00Z</time>
      </trkpt>
      <trkpt lat="45.27877" lon="4.43747">
        <ele>1013</ele>
        <time>2021-02-07T08:06:02Z</time>
      </trkpt>
      <trkpt lat="45.27881" lon="4.43749">
        <ele>1013</ele>
        <time>2021-02-07T08:06:04Z</time>
      </trkpt>
      <trkpt lat="45.27886" lon="4.43752">
        <ele>1014</ele>
        <time>2021-02-07T08:06:06Z</time>
      </trkpt>
      <trkpt lat="45.2789" lon="4.43755">
        <ele>1015</ele>
        <time>2021-02-07T08:06:08Z</time>
      </trkpt>
      <trkpt lat="45.27893" lon="4.43758">
        <ele>1015</ele>
        <time>2021-02-07T08:06:10Z</time>
      </trkpt>
      <trkpt lat="45.27897" lon="4.43762">
        <ele>1015</ele>
        <time>2021-02-07T08:06:12Z</time>
      </trkpt>
      <trkpt lat="45.27901" lon="4.43765">
        <ele>1017</ele>
        <time>2021-02-07T08:06:14Z</time>
      </trkpt>
      <trkpt lat="45.27905" lon="4.43769">
        <ele>1018</ele>
        <time>2021-02-07T08:06:17Z</time>
      </trkpt>
      <trkpt lat="45.27909" lon="4.43772">
        <ele>1018</ele>
        <time>2021-02-07T08:06:19Z</time>
      </trkpt>
      <trkpt lat="45.27912" lon="4.43775">
        <ele>1018</ele>
        <time>2021-02-07T08:06:21Z</time>
      </trkpt>
      <trkpt lat="45.27915" lon="4.43778">
        <ele>1019</ele>
        <time>2021-02-07T08:06:23Z</time>
      </trkpt>
      <trkpt lat="45.2792" lon="4.43781">
        <ele>1020</ele>
        <time>2021-02-07T08:06:26Z</time>
      </trkpt>
      <trkpt lat="45.27924" lon="4.43782">
        <ele>1020</ele>
        <time>2021-02-07T08:06:28Z</time>
      </trkpt>
      <trkpt lat="45.27928" lon="4.43783">
        <ele>1021</ele>
        <time>2021-02-07T08:06:30Z</time>
      </trkpt>
      <trkpt lat="45.27932" lon="4.43784">
        <ele>1023</ele>
        <time>2021-02-07T08:06:32Z</time>
      </trkpt>
      <trkpt lat="45.27937" lon="4.43784">
        <ele>1023</ele>
        <time>2021-02-07T08:06:34Z</time>
      </trkpt>
      <trkpt lat="45.27941" lon="4.43783">
        <ele>1023</ele>
        <time>2021-02-07T08:06:36Z</time>
      </trkpt>
      <trkpt lat="45.27945" lon="4.43782">
        <ele>1023</ele>
        <time>2021-02-07T08:06:38Z</time>
      </trkpt>
      <trkpt lat="45.27949" lon="4.4378">
        <ele>1023</ele>
        <time>2021-02-07T08:06:40Z</time>
      </trkpt>
      <trkpt lat="45.27953" lon="4.43778">
        <ele>1025</ele>
        <time>2021-02-07T08:06:42Z</time>
      </trkpt>
      <trkpt lat="45.27956" lon="4.43775">
        <ele>1026</ele>
        <time>2021-02-07T08:06:45Z</time>
      </trkpt>
      <trkpt lat="45.27959" lon="4.43769">
        <ele>1027</ele>
        <time>2021-02-07T08:06:48Z</time>
      </trkpt>
      <trkpt lat="45.27962" lon="4.43763">
        <ele>1027</ele>
        <time>2021-02-07T08:06:51Z</time>
      </trkpt>
      <trkpt lat="45.27965" lon="4.43757">
        <ele>1027</ele>
        <time>2021-02-07T08:06:54Z</time>
      </trkpt>
      <trkpt lat="45.27967" lon="4.4375">
        <ele>1029</ele>
        <time>2021-02-07T08:06:57Z</time>
      </trkpt>
      <trkpt lat="45.27969" lon="4.43744">
        <ele>1029</ele>
        <time>2021-02-07T08:07:00Z</time>
      </trkpt>
      <trkpt lat="45.27971" lon="4.43739">
        <ele>1031</ele>
        <time>2021-02-07T08:07:03Z</time>
      </trkpt>
      <trkpt lat="45.27974" lon="4.43735">
        <ele>1032</ele>
        <time>2021-02-07T08:07:06Z</time>
      </trkpt>
      <trkpt lat="45.27978" lon="4.43734">
        <ele>1032</ele>
        <time>2021-02-07T08:07:09Z</time>
      </trkpt>
      <trkpt lat="45.27983" lon="4.43733">
        <ele>1033</ele>
        <time>2021-02-07T08:07:12Z</time>
      </trkpt>
      <trkpt lat="45.27986" lon="4.43732">
        <ele>1034</ele>
        <time>2021-02-07T08:07:16Z</time>
      </trkpt>
      <trkpt lat="45.2799" lon="4.43734">
        <ele>1035</ele>
        <time>2021-02-07T08:07:20Z</time>
      </trkpt>
      <trkpt lat="45.27995" lon="4.43735">
        <ele>1036</ele>
        <time>2021-02-07T08:07:23Z</time>
      </trkpt>
      <trkpt lat="45.28" lon="4.43736">
        <ele>1037</ele>
        <time>2021-02-07T08:07:26Z</time>
      </trkpt>
      <trkpt lat="45.28004" lon="4.43737">
        <ele>1037</ele>
        <time>2021-02-07T08:07:28Z</time>
      </trkpt>
      <trkpt lat="45.28008" lon="4.43739">
        <ele>1038</ele>
        <time>2021-02-07T08:07:30Z</time>
      </trkpt>
      <trkpt lat="45.28011" lon="4.43739">
        <ele>1039</ele>
        <time>2021-02-07T08:07:32Z</time>
      </trkpt>
      <trkpt lat="45.28015" lon="4.43739">
        <ele>1040</ele>
        <time>2021-02-07T08:07:35Z</time>
      </trkpt>
      <trkpt lat="45.2802" lon="4.4374">
        <ele>1041</ele>
        <time>2021-02-07T08:07:38Z</time>
      </trkpt>
      <trkpt lat="45.28025" lon="4.43741">
        <ele>1042</ele>
        <time>2021-02-07T08:07:41Z</time>
      </trkpt>
      <trkpt lat="45.28029" lon="4.4374">
        <ele>1042</ele>
        <time>2021-02-07T08:07:45Z</time>
      </trkpt>
      <trkpt lat="45.28033" lon="4.4374">
        <ele>1043</ele>
        <time>2021-02-07T08:07:49Z</time>
      </trkpt>
      <trkpt lat="45.28037" lon="4.43741">
        <ele>1044</ele>
        <time>2021-02-07T08:07:52Z</time>
      </trkpt>
      <trkpt lat="45.28041" lon="4.43742">
        <ele>1045</ele>
        <time>2021-02-07T08:07:54Z</time>
      </trkpt>
      <trkpt lat="45.28045" lon="4.43743">
        <ele>1045</ele>
        <time>2021-02-07T08:07:56Z</time>
      </trkpt>
      <trkpt lat="45.28051" lon="4.43745">
        <ele>1045</ele>
        <time>2021-02-07T08:07:58Z</time>
      </trkpt>
      <trkpt lat="45.28056" lon="4.43746">
        <ele>1045</ele>
        <time>2021-02-07T08:08:00Z</time>
      </trkpt>
      <trkpt lat="45.28061" lon="4.43748">
        <ele>1045</ele>
        <time>2021-02-07T08:08:02Z</time>
      </trkpt>
      <trkpt lat="45.28065" lon="4.43748">
        <ele>1045</ele>
        <time>2021-02-07T08:08:04Z</time>
      </trkpt>
      <trkpt lat="45.28069" lon="4.43748">
        <ele>1046</ele>
        <time>2021-02-07T08:08:06Z</time>
      </trkpt>
      <trkpt lat="45.28073" lon="4.43748">
        <ele>1046</ele>
        <time>2021-02-07T08:08:08Z</time>
      </trkpt>
      <trkpt lat="45.28077" lon="4.43749">
        <ele>1046</ele>
        <time>2021-02-07T08:08:10Z</time>
      </trkpt>
      <trkpt lat="45.28081" lon="4.43749">
        <ele>1046</ele>
        <time>2021-02-07T08:08:12Z</time>
      </trkpt>
      <trkpt lat="45.28086" lon="4.43749">
        <ele>1047</ele>
        <time>2021-02-07T08:08:14Z</time>
      </trkpt>
      <trkpt lat="45.28091" lon="4.43749">
        <ele>1047</ele>
        <time>2021-02-07T08:08:16Z</time>
      </trkpt>
      <trkpt lat="45.28095" lon="4.43749">
        <ele>1047</ele>
        <time>2021-02-07T08:08:18Z</time>
      </trkpt>
      <trkpt lat="45.28099" lon="4.43749">
        <ele>1048</ele>
        <time>2021-02-07T08:08:20Z</time>
      </trkpt>
      <trkpt lat="45.28104" lon="4.43747">
        <ele>1048</ele>
        <time>2021-02-07T08:08:22Z</time>
      </trkpt>
      <trkpt lat="45.28108" lon="4.43744">
        <ele>1048</ele>
        <time>2021-02-07T08:08:24Z</time>
      </trkpt>
      <trkpt lat="45.28112" lon="4.43741">
        <ele>1049</ele>
        <time>2021-02-07T08:08:26Z</time>
      </trkpt>
      <trkpt lat="45.28116" lon="4.43739">
        <ele>1049</ele>
        <time>2021-02-07T08:08:29Z</time>
      </trkpt>
      <trkpt lat="45.28119" lon="4.43737">
        <ele>1049</ele>
        <time>2021-02-07T08:08:31Z</time>
      </trkpt>
      <trkpt lat="45.28123" lon="4.43735">
        <ele>1049</ele>
        <time>2021-02-07T08:08:33Z</time>
      </trkpt>
      <trkpt lat="45.28126" lon="4.43732">
        <ele>1050</ele>
        <time>2021-02-07T08:08:35Z</time>
      </trkpt>
      <trkpt lat="45.28129" lon="4.43731">
        <ele>1050</ele>
        <time>2021-02-07T08:08:37Z</time>
      </trkpt>
      <trkpt lat="45.28134" lon="4.43728">
        <ele>1051</ele>
        <time>2021-02-07T08:08:40Z</time>
      </trkpt>
      <trkpt lat="45.28145" lon="4.43724">
        <ele>1053</ele>
        <time>2021-02-07T08:08:48Z</time>
      </trkpt>
      <trkpt lat="45.28156" lon="4.43722">
        <ele>1055</ele>
        <time>2021-02-07T08:08:55Z</time>
      </trkpt>
      <trkpt lat="45.28166" lon="4.43712">
        <ele>1057</ele>
        <time>2021-02-07T08:09:03Z</time>
      </trkpt>
      <trkpt lat="45.28173" lon="4.43701">
        <ele>1060</ele>
        <time>2021-02-07T08:09:16Z</time>
      </trkpt>
      <trkpt lat="45.28184" lon="4.43693">
        <ele>1060</ele>
        <time>2021-02-07T08:09:24Z</time>
      </trkpt>
      <trkpt lat="45.28192" lon="4.43684">
        <ele>1062</ele>
        <time>2021-02-07T08:09:32Z</time>
      </trkpt>
      <trkpt lat="45.282" lon="4.43674">
        <ele>1063</ele>
        <time>2021-02-07T08:09:40Z</time>
      </trkpt>
      <trkpt lat="45.28208" lon="4.43663">
        <ele>1065</ele>
        <time>2021-02-07T08:09:49Z</time>
      </trkpt>
      <trkpt lat="45.28213" lon="4.43648">
        <ele>1067</ele>
        <time>2021-02-07T08:09:56Z</time>
      </trkpt>
      <trkpt lat="45.28221" lon="4.43635">
        <ele>1069</ele>
        <time>2021-02-07T08:10:04Z</time>
      </trkpt>
      <trkpt lat="45.2823" lon="4.43625">
        <ele>1071</ele>
        <time>2021-02-07T08:10:11Z</time>
      </trkpt>
      <trkpt lat="45.28239" lon="4.43615">
        <ele>1071</ele>
        <time>2021-02-07T08:10:17Z</time>
      </trkpt>
      <trkpt lat="45.28248" lon="4.43603">
        <ele>1075</ele>
        <time>2021-02-07T08:10:24Z</time>
      </trkpt>
      <trkpt lat="45.28255" lon="4.43591">
        <ele>1076</ele>
        <time>2021-02-07T08:10:30Z</time>
      </trkpt>
      <trkpt lat="45.28263" lon="4.43579">
        <ele>1076</ele>
        <time>2021-02-07T08:10:35Z</time>
      </trkpt>
      <trkpt lat="45.28272" lon="4.43568">
        <ele>1076</ele>
        <time>2021-02-07T08:10:41Z</time>
      </trkpt>
      <trkpt lat="45.28278" lon="4.43556">
        <ele>1079</ele>
        <time>2021-02-07T08:10:47Z</time>
      </trkpt>
      <trkpt lat="45.28284" lon="4.43543">
        <ele>1082</ele>
        <time>2021-02-07T08:10:54Z</time>
      </trkpt>
      <trkpt lat="45.28288" lon="4.43528">
        <ele>1084</ele>
        <time>2021-02-07T08:11:05Z</time>
      </trkpt>
      <trkpt lat="45.28288" lon="4.43511">
        <ele>1087</ele>
        <time>2021-02-07T08:11:17Z</time>
      </trkpt>
      <trkpt lat="45.28287" lon="4.43495">
        <ele>1090</ele>
        <time>2021-02-07T08:11:25Z</time>
      </trkpt>
      <trkpt lat="45.28289" lon="4.43479">
        <ele>1091</ele>
        <time>2021-02-07T08:11:33Z</time>
      </trkpt>
      <trkpt lat="45.28289" lon="4.43463">
        <ele>1093</ele>
        <time>2021-02-07T08:11:41Z</time>
      </trkpt>
      <trkpt lat="45.28285" lon="4.43448">
        <ele>1095</ele>
        <time>2021-02-07T08:11:51Z</time>
      </trkpt>
      <trkpt lat="45.28281" lon="4.43439">
        <ele>1098</ele>
        <time>2021-02-07T08:12:00Z</time>
      </trkpt>
      <trkpt lat="45.28277" lon="4.43435">
        <ele>1099</ele>
        <time>2021-02-07T08:12:04Z</time>
      </trkpt>
      <trkpt lat="45.28275" lon="4.4343">
        <ele>1100</ele>
        <time>2021-02-07T08:12:07Z</time>
      </trkpt>
      <trkpt lat="45.28273" lon="4.43424">
        <ele>1100</ele>
        <time>2021-02-07T08:12:10Z</time>
      </trkpt>
      <trkpt lat="45.28271" lon="4.43419">
        <ele>1100</ele>
        <time>2021-02-07T08:12:13Z</time>
      </trkpt>
      <trkpt lat="45.28267" lon="4.43403">
        <ele>1102</ele>
        <time>2021-02-07T08:12:22Z</time>
      </trkpt>
      <trkpt lat="45.28264" lon="4.43396">
        <ele>1102</ele>
        <time>2021-02-07T08:12:26Z</time>
      </trkpt>
      <trkpt lat="45.28263" lon="4.43389">
        <ele>1103</ele>
        <time>2021-02-07T08:12:29Z</time>
      </trkpt>
      <trkpt lat="45.2826" lon="4.43379">
        <ele>1104</ele>
        <time>2021-02-07T08:12:34Z</time>
      </trkpt>
      <trkpt lat="45.28259" lon="4.43371">
        <ele>1105</ele>
        <time>2021-02-07T08:12:39Z</time>
      </trkpt>
      <trkpt lat="45.2827" lon="4.43368">
        <ele>1106</ele>
        <time>2021-02-07T08:12:53Z</time>
      </trkpt>
      <trkpt lat="45.2828" lon="4.43363">
        <ele>1108</ele>
        <time>2021-02-07T08:13:07Z</time>
      </trkpt>
      <trkpt lat="45.28291" lon="4.43367">
        <ele>1109</ele>
        <time>2021-02-07T08:13:15Z</time>
      </trkpt>
      <trkpt lat="45.28302" lon="4.43372">
        <ele>1113</ele>
        <time>2021-02-07T08:13:26Z</time>
      </trkpt>
      <trkpt lat="45.28309" lon="4.43365">
        <ele>1114</ele>
        <time>2021-02-07T08:13:33Z</time>
      </trkpt>
      <trkpt lat="45.28312" lon="4.43362">
        <ele>1114</ele>
        <time>2021-02-07T08:13:36Z</time>
      </trkpt>
      <trkpt lat="45.28322" lon="4.43356">
        <ele>1117</ele>
        <time>2021-02-07T08:13:44Z</time>
      </trkpt>
      <trkpt lat="45.28331" lon="4.43346">
        <ele>1117</ele>
        <time>2021-02-07T08:13:51Z</time>
      </trkpt>
      <trkpt lat="45.28341" lon="4.43339">
        <ele>1120</ele>
        <time>2021-02-07T08:13:58Z</time>
      </trkpt>
      <trkpt lat="45.2835" lon="4.43332">
        <ele>1121</ele>
        <time>2021-02-07T08:14:08Z</time>
      </trkpt>
      <trkpt lat="45.28361" lon="4.43328">
        <ele>1122</ele>
        <time>2021-02-07T08:14:21Z</time>
      </trkpt>
      <trkpt lat="45.28373" lon="4.43324">
        <ele>1123</ele>
        <time>2021-02-07T08:14:29Z</time>
      </trkpt>
      <trkpt lat="45.28384" lon="4.43322">
        <ele>1124</ele>
        <time>2021-02-07T08:14:40Z</time>
      </trkpt>
      <trkpt lat="45.28395" lon="4.43322">
        <ele>1127</ele>
        <time>2021-02-07T08:14:51Z</time>
      </trkpt>
      <trkpt lat="45.28406" lon="4.4332">
        <ele>1129</ele>
        <time>2021-02-07T08:15:00Z</time>
      </trkpt>
      <trkpt lat="45.28417" lon="4.43316">
        <ele>1132</ele>
        <time>2021-02-07T08:15:11Z</time>
      </trkpt>
      <trkpt lat="45.28428" lon="4.43318">
        <ele>1133</ele>
        <time>2021-02-07T08:15:19Z</time>
      </trkpt>
      <trkpt lat="45.2844" lon="4.43316">
        <ele>1133</ele>
        <time>2021-02-07T08:15:26Z</time>
      </trkpt>
      <trkpt lat="45.28451" lon="4.43317">
        <ele>1137</ele>
        <time>2021-02-07T08:15:34Z</time>
      </trkpt>
      <trkpt lat="45.28463" lon="4.43314">
        <ele>1137</ele>
        <time>2021-02-07T08:15:42Z</time>
      </trkpt>
      <trkpt lat="45.28473" lon="4.43306">
        <ele>1140</ele>
        <time>2021-02-07T08:15:53Z</time>
      </trkpt>
      <trkpt lat="45.28484" lon="4.43306">
        <ele>1142</ele>
        <time>2021-02-07T08:15:58Z</time>
      </trkpt>
      <trkpt lat="45.28496" lon="4.43302">
        <ele>1143</ele>
        <time>2021-02-07T08:16:02Z</time>
      </trkpt>
      <trkpt lat="45.28507" lon="4.43301">
        <ele>1144</ele>
        <time>2021-02-07T08:16:05Z</time>
      </trkpt>
      <trkpt lat="45.28519" lon="4.43299">
        <ele>1145</ele>
        <time>2021-02-07T08:16:09Z</time>
      </trkpt>
      <trkpt lat="45.2853" lon="4.43302">
        <ele>1147</ele>
        <time>2021-02-07T08:16:16Z</time>
      </trkpt>
      <trkpt lat="45.28541" lon="4.43298">
        <ele>1147</ele>
        <time>2021-02-07T08:16:26Z</time>
      </trkpt>
      <trkpt lat="45.28552" lon="4.43293">
        <ele>1152</ele>
        <time>2021-02-07T08:16:38Z</time>
      </trkpt>
      <trkpt lat="45.2856" lon="4.43283">
        <ele>1154</ele>
        <time>2021-02-07T08:16:47Z</time>
      </trkpt>
      <trkpt lat="45.28571" lon="4.43283">
        <ele>1157</ele>
        <time>2021-02-07T08:17:00Z</time>
      </trkpt>
      <trkpt lat="45.28581" lon="4.43287">
        <ele>1159</ele>
        <time>2021-02-07T08:17:07Z</time>
      </trkpt>
      <trkpt lat="45.28591" lon="4.43293">
        <ele>1161</ele>
        <time>2021-02-07T08:17:14Z</time>
      </trkpt>
      <trkpt lat="45.28602" lon="4.43299">
        <ele>1162</ele>
        <time>2021-02-07T08:17:21Z</time>
      </trkpt>
      <trkpt lat="45.28612" lon="4.43303">
        <ele>1165</ele>
        <time>2021-02-07T08:17:33Z</time>
      </trkpt>
      <trkpt lat="45.28624" lon="4.43307">
        <ele>1166</ele>
        <time>2021-02-07T08:17:43Z</time>
      </trkpt>
      <trkpt lat="45.28633" lon="4.43313">
        <ele>1167</ele>
        <time>2021-02-07T08:17:49Z</time>
      </trkpt>
      <trkpt lat="45.28645" lon="4.43314">
        <ele>1168</ele>
        <time>2021-02-07T08:17:59Z</time>
      </trkpt>
      <trkpt lat="45.28655" lon="4.43313">
        <ele>1170</ele>
        <time>2021-02-07T08:18:10Z</time>
      </trkpt>
      <trkpt lat="45.28667" lon="4.43316">
        <ele>1172</ele>
        <time>2021-02-07T08:18:23Z</time>
      </trkpt>
      <trkpt lat="45.28678" lon="4.43314">
        <ele>1172</ele>
        <time>2021-02-07T08:18:34Z</time>
      </trkpt>
      <trkpt lat="45.28689" lon="4.43312">
        <ele>1174</ele>
        <time>2021-02-07T08:18:47Z</time>
      </trkpt>
      <trkpt lat="45.28703" lon="4.43311">
        <ele>1174</ele>
        <time>2021-02-07T08:18:59Z</time>
      </trkpt>
      <trkpt lat="45.28712" lon="4.43312">
        <ele>1175</ele>
        <time>2021-02-07T08:19:14Z</time>
      </trkpt>
      <trkpt lat="45.28715" lon="4.43314">
        <ele>1176</ele>
        <time>2021-02-07T08:19:32Z</time>
      </trkpt>
      <trkpt lat="45.28719" lon="4.43314">
        <ele>1176</ele>
        <time>2021-02-07T08:19:43Z</time>
      </trkpt>
      <trkpt lat="45.28716" lon="4.43318">
        <ele>1179</ele>
        <time>2021-02-07T08:20:46Z</time>
      </trkpt>
      <trkpt lat="45.28717" lon="4.43311">
        <ele>1179</ele>
        <time>2021-02-07T08:21:16Z</time>
      </trkpt>
      <trkpt lat="45.28727" lon="4.43305">
        <ele>1181</ele>
        <time>2021-02-07T08:21:24Z</time>
      </trkpt>
      <trkpt lat="45.28739" lon="4.43302">
        <ele>1183</ele>
        <time>2021-02-07T08:21:30Z</time>
      </trkpt>
      <trkpt lat="45.2875" lon="4.43297">
        <ele>1185</ele>
        <time>2021-02-07T08:21:37Z</time>
      </trkpt>
      <trkpt lat="45.28761" lon="4.43295">
        <ele>1185</ele>
        <time>2021-02-07T08:21:43Z</time>
      </trkpt>
      <trkpt lat="45.28773" lon="4.43293">
        <ele>1185</ele>
        <time>2021-02-07T08:21:48Z</time>
      </trkpt>
      <trkpt lat="45.28783" lon="4.43288">
        <ele>1188</ele>
        <time>2021-02-07T08:21:53Z</time>
      </trkpt>
      <trkpt lat="45.28795" lon="4.43281">
        <ele>1188</ele>
        <time>2021-02-07T08:21:59Z</time>
      </trkpt>
      <trkpt lat="45.28806" lon="4.43276">
        <ele>1189</ele>
        <time>2021-02-07T08:22:06Z</time>
      </trkpt>
      <trkpt lat="45.28818" lon="4.43268">
        <ele>1189</ele>
        <time>2021-02-07T08:22:12Z</time>
      </trkpt>
      <trkpt lat="45.28829" lon="4.43268">
        <ele>1190</ele>
        <time>2021-02-07T08:22:17Z</time>
      </trkpt>
      <trkpt lat="45.2884" lon="4.43263">
        <ele>1191</ele>
        <time>2021-02-07T08:22:28Z</time>
      </trkpt>
      <trkpt lat="45.28852" lon="4.43262">
        <ele>1192</ele>
        <time>2021-02-07T08:22:36Z</time>
      </trkpt>
      <trkpt lat="45.28863" lon="4.43262">
        <ele>1192</ele>
        <time>2021-02-07T08:22:41Z</time>
      </trkpt>
      <trkpt lat="45.28874" lon="4.4326">
        <ele>1194</ele>
        <time>2021-02-07T08:22:48Z</time>
      </trkpt>
      <trkpt lat="45.28884" lon="4.43253">
        <ele>1194</ele>
        <time>2021-02-07T08:22:54Z</time>
      </trkpt>
      <trkpt lat="45.28894" lon="4.43248">
        <ele>1195</ele>
        <time>2021-02-07T08:22:59Z</time>
      </trkpt>
      <trkpt lat="45.28905" lon="4.43243">
        <ele>1196</ele>
        <time>2021-02-07T08:23:08Z</time>
      </trkpt>
      <trkpt lat="45.28917" lon="4.43245">
        <ele>1197</ele>
        <time>2021-02-07T08:23:15Z</time>
      </trkpt>
      <trkpt lat="45.28928" lon="4.43244">
        <ele>1198</ele>
        <time>2021-02-07T08:23:22Z</time>
      </trkpt>
      <trkpt lat="45.28939" lon="4.43239">
        <ele>1199</ele>
        <time>2021-02-07T08:23:28Z</time>
      </trkpt>
      <trkpt lat="45.28951" lon="4.43234">
        <ele>1200</ele>
        <time>2021-02-07T08:23:34Z</time>
      </trkpt>
      <trkpt lat="45.28962" lon="4.43225">
        <ele>1200</ele>
        <time>2021-02-07T08:23:39Z</time>
      </trkpt>
      <trkpt lat="45.28974" lon="4.43226">
        <ele>1200</ele>
        <time>2021-02-07T08:23:46Z</time>
      </trkpt>
      <trkpt lat="45.28984" lon="4.43232">
        <ele>1200</ele>
        <time>2021-02-07T08:23:50Z</time>
      </trkpt>
      <trkpt lat="45.28995" lon="4.43227">
        <ele>1200</ele>
        <time>2021-02-07T08:23:56Z</time>
      </trkpt>
      <trkpt lat="45.29008" lon="4.43227">
        <ele>1200</ele>
        <time>2021-02-07T08:24:02Z</time>
      </trkpt>
      <trkpt lat="45.2902" lon="4.43231">
        <ele>1199</ele>
        <time>2021-02-07T08:24:07Z</time>
      </trkpt>
      <trkpt lat="45.29033" lon="4.43235">
        <ele>1199</ele>
        <time>2021-02-07T08:24:10Z</time>
      </trkpt>
      <trkpt lat="45.29045" lon="4.43242">
        <ele>1198</ele>
        <time>2021-02-07T08:24:14Z</time>
      </trkpt>
      <trkpt lat="45.29059" lon="4.43251">
        <ele>1198</ele>
        <time>2021-02-07T08:24:17Z</time>
      </trkpt>
      <trkpt lat="45.29073" lon="4.43259">
        <ele>1199</ele>
        <time>2021-02-07T08:24:19Z</time>
      </trkpt>
      <trkpt lat="45.29083" lon="4.43267">
        <ele>1199</ele>
        <time>2021-02-07T08:24:21Z</time>
      </trkpt>
      <trkpt lat="45.29094" lon="4.43273">
        <ele>1198</ele>
        <time>2021-02-07T08:24:23Z</time>
      </trkpt>
      <trkpt lat="45.29104" lon="4.43279">
        <ele>1198</ele>
        <time>2021-02-07T08:24:26Z</time>
      </trkpt>
      <trkpt lat="45.29117" lon="4.43279">
        <ele>1198</ele>
        <time>2021-02-07T08:24:31Z</time>
      </trkpt>
      <trkpt lat="45.2913" lon="4.43281">
        <ele>1198</ele>
        <time>2021-02-07T08:24:36Z</time>
      </trkpt>
      <trkpt lat="45.29141" lon="4.43288">
        <ele>1198</ele>
        <time>2021-02-07T08:24:41Z</time>
      </trkpt>
      <trkpt lat="45.29152" lon="4.43291">
        <ele>1198</ele>
        <time>2021-02-07T08:24:46Z</time>
      </trkpt>
      <trkpt lat="45.29163" lon="4.43295">
        <ele>1198</ele>
        <time>2021-02-07T08:24:51Z</time>
      </trkpt>
      <trkpt lat="45.29174" lon="4.43297">
        <ele>1199</ele>
        <time>2021-02-07T08:24:56Z</time>
      </trkpt>
      <trkpt lat="45.29186" lon="4.433">
        <ele>1200</ele>
        <time>2021-02-07T08:25:05Z</time>
      </trkpt>
      <trkpt lat="45.29198" lon="4.43304">
        <ele>1200</ele>
        <time>2021-02-07T08:25:11Z</time>
      </trkpt>
      <trkpt lat="45.29209" lon="4.4331">
        <ele>1200</ele>
        <time>2021-02-07T08:25:16Z</time>
      </trkpt>
      <trkpt lat="45.2922" lon="4.43316">
        <ele>1200</ele>
        <time>2021-02-07T08:25:20Z</time>
      </trkpt>
      <trkpt lat="45.2923" lon="4.43321">
        <ele>1201</ele>
        <time>2021-02-07T08:25:25Z</time>
      </trkpt>
      <trkpt lat="45.2924" lon="4.43326">
        <ele>1202</ele>
        <time>2021-02-07T08:25:30Z</time>
      </trkpt>
      <trkpt lat="45.29251" lon="4.43332">
        <ele>1202</ele>
        <time>2021-02-07T08:25:38Z</time>
      </trkpt>
      <trkpt lat="45.2926" lon="4.43342">
        <ele>1202</ele>
        <time>2021-02-07T08:25:43Z</time>
      </trkpt>
      <trkpt lat="45.29271" lon="4.43349">
        <ele>1204</ele>
        <time>2021-02-07T08:25:49Z</time>
      </trkpt>
      <trkpt lat="45.29282" lon="4.43356">
        <ele>1204</ele>
        <time>2021-02-07T08:25:55Z</time>
      </trkpt>
      <trkpt lat="45.29292" lon="4.43366">
        <ele>1205</ele>
        <time>2021-02-07T08:26:02Z</time>
      </trkpt>
      <trkpt lat="45.29301" lon="4.43375">
        <ele>1205</ele>
        <time>2021-02-07T08:26:07Z</time>
      </trkpt>
      <trkpt lat="45.29311" lon="4.43385">
        <ele>1205</ele>
        <time>2021-02-07T08:26:13Z</time>
      </trkpt>
      <trkpt lat="45.29321" lon="4.43394">
        <ele>1206</ele>
        <time>2021-02-07T08:26:18Z</time>
      </trkpt>
      <trkpt lat="45.29329" lon="4.43404">
        <ele>1206</ele>
        <time>2021-02-07T08:26:22Z</time>
      </trkpt>
      <trkpt lat="45.2934" lon="4.43411">
        <ele>1205</ele>
        <time>2021-02-07T08:26:27Z</time>
      </trkpt>
      <trkpt lat="45.29354" lon="4.43418">
        <ele>1206</ele>
        <time>2021-02-07T08:26:31Z</time>
      </trkpt>
      <trkpt lat="45.29368" lon="4.43421">
        <ele>1205</ele>
        <time>2021-02-07T08:26:34Z</time>
      </trkpt>
      <trkpt lat="45.29379" lon="4.43429">
        <ele>1205</ele>
        <time>2021-02-07T08:26:38Z</time>
      </trkpt>
      <trkpt lat="45.29391" lon="4.4344">
        <ele>1204</ele>
        <time>2021-02-07T08:26:42Z</time>
      </trkpt>
      <trkpt lat="45.294" lon="4.4345">
        <ele>1205</ele>
        <time>2021-02-07T08:26:45Z</time>
      </trkpt>
      <trkpt lat="45.29409" lon="4.4346">
        <ele>1204</ele>
        <time>2021-02-07T08:26:48Z</time>
      </trkpt>
      <trkpt lat="45.29419" lon="4.43473">
        <ele>1204</ele>
        <time>2021-02-07T08:26:52Z</time>
      </trkpt>
      <trkpt lat="45.29428" lon="4.43484">
        <ele>1204</ele>
        <time>2021-02-07T08:26:56Z</time>
      </trkpt>
      <trkpt lat="45.29437" lon="4.43497">
        <ele>1205</ele>
        <time>2021-02-07T08:27:01Z</time>
      </trkpt>
      <trkpt lat="45.29447" lon="4.43506">
        <ele>1206</ele>
        <time>2021-02-07T08:27:05Z</time>
      </trkpt>
      <trkpt lat="45.29458" lon="4.43515">
        <ele>1205</ele>
        <time>2021-02-07T08:27:08Z</time>
      </trkpt>
      <trkpt lat="45.2947" lon="4.43526">
        <ele>1205</ele>
        <time>2021-02-07T08:27:12Z</time>
      </trkpt>
      <trkpt lat="45.29481" lon="4.43537">
        <ele>1206</ele>
        <time>2021-02-07T08:27:16Z</time>
      </trkpt>
      <trkpt lat="45.29491" lon="4.43546">
        <ele>1206</ele>
        <time>2021-02-07T08:27:19Z</time>
      </trkpt>
      <trkpt lat="45.29496" lon="4.43553">
        <ele>1206</ele>
        <time>2021-02-07T08:27:21Z</time>
      </trkpt>
      <trkpt lat="45.29501" lon="4.43559">
        <ele>1206</ele>
        <time>2021-02-07T08:27:23Z</time>
      </trkpt>
      <trkpt lat="45.29506" lon="4.43566">
        <ele>1207</ele>
        <time>2021-02-07T08:27:25Z</time>
      </trkpt>
      <trkpt lat="45.29509" lon="4.43571">
        <ele>1207</ele>
        <time>2021-02-07T08:27:27Z</time>
      </trkpt>
      <trkpt lat="45.29513" lon="4.43576">
        <ele>1207</ele>
        <time>2021-02-07T08:27:29Z</time>
      </trkpt>
      <trkpt lat="45.29517" lon="4.43581">
        <ele>1207</ele>
        <time>2021-02-07T08:27:31Z</time>
      </trkpt>
      <trkpt lat="45.29521" lon="4.43586">
        <ele>1207</ele>
        <time>2021-02-07T08:27:33Z</time>
      </trkpt>
      <trkpt lat="45.29524" lon="4.43591">
        <ele>1207</ele>
        <time>2021-02-07T08:27:35Z</time>
      </trkpt>
      <trkpt lat="45.29528" lon="4.43595">
        <ele>1207</ele>
        <time>2021-02-07T08:27:37Z</time>
      </trkpt>
      <trkpt lat="45.29532" lon="4.43599">
        <ele>1208</ele>
        <time>2021-02-07T08:27:39Z</time>
      </trkpt>
      <trkpt lat="45.29536" lon="4.43603">
        <ele>1208</ele>
        <time>2021-02-07T08:27:41Z</time>
      </trkpt>
      <trkpt lat="45.2954" lon="4.43607">
        <ele>1208</ele>
        <time>2021-02-07T08:27:43Z</time>
      </trkpt>
      <trkpt lat="45.29543" lon="4.43612">
        <ele>1207</ele>
        <time>2021-02-07T08:27:45Z</time>
      </trkpt>
      <trkpt lat="45.29548" lon="4.43617">
        <ele>1207</ele>
        <time>2021-02-07T08:27:47Z</time>
      </trkpt>
      <trkpt lat="45.29553" lon="4.43622">
        <ele>1207</ele>
        <time>2021-02-07T08:27:49Z</time>
      </trkpt>
      <trkpt lat="45.29557" lon="4.43627">
        <ele>1207</ele>
        <time>2021-02-07T08:27:51Z</time>
      </trkpt>
      <trkpt lat="45.29563" lon="4.43632">
        <ele>1207</ele>
        <time>2021-02-07T08:27:53Z</time>
      </trkpt>
      <trkpt lat="45.29567" lon="4.43637">
        <ele>1207</ele>
        <time>2021-02-07T08:27:55Z</time>
      </trkpt>
      <trkpt lat="45.29571" lon="4.43641">
        <ele>1207</ele>
        <time>2021-02-07T08:27:57Z</time>
      </trkpt>
      <trkpt lat="45.29575" lon="4.43645">
        <ele>1206</ele>
        <time>2021-02-07T08:27:59Z</time>
      </trkpt>
      <trkpt lat="45.29579" lon="4.43649">
        <ele>1206</ele>
        <time>2021-02-07T08:28:01Z</time>
      </trkpt>
      <trkpt lat="45.29584" lon="4.43653">
        <ele>1205</ele>
        <time>2021-02-07T08:28:03Z</time>
      </trkpt>
      <trkpt lat="45.29589" lon="4.43657">
        <ele>1205</ele>
        <time>2021-02-07T08:28:05Z</time>
      </trkpt>
      <trkpt lat="45.29594" lon="4.43661">
        <ele>1207</ele>
        <time>2021-02-07T08:28:07Z</time>
      </trkpt>
      <trkpt lat="45.296" lon="4.43664">
        <ele>1207</ele>
        <time>2021-02-07T08:28:09Z</time>
      </trkpt>
      <trkpt lat="45.29604" lon="4.43668">
        <ele>1206</ele>
        <time>2021-02-07T08:28:11Z</time>
      </trkpt>
      <trkpt lat="45.29609" lon="4.43671">
        <ele>1206</ele>
        <time>2021-02-07T08:28:13Z</time>
      </trkpt>
      <trkpt lat="45.29613" lon="4.43674">
        <ele>1206</ele>
        <time>2021-02-07T08:28:15Z</time>
      </trkpt>
      <trkpt lat="45.29617" lon="4.43677">
        <ele>1205</ele>
        <time>2021-02-07T08:28:20Z</time>
      </trkpt>
      <trkpt lat="45.2962" lon="4.43681">
        <ele>1205</ele>
        <time>2021-02-07T08:28:22Z</time>
      </trkpt>
      <trkpt lat="45.29625" lon="4.43685">
        <ele>1205</ele>
        <time>2021-02-07T08:28:24Z</time>
      </trkpt>
      <trkpt lat="45.29629" lon="4.43687">
        <ele>1205</ele>
        <time>2021-02-07T08:28:26Z</time>
      </trkpt>
      <trkpt lat="45.29634" lon="4.43686">
        <ele>1205</ele>
        <time>2021-02-07T08:28:28Z</time>
      </trkpt>
      <trkpt lat="45.29638" lon="4.43686">
        <ele>1206</ele>
        <time>2021-02-07T08:28:30Z</time>
      </trkpt>
      <trkpt lat="45.29643" lon="4.43686">
        <ele>1206</ele>
        <time>2021-02-07T08:28:32Z</time>
      </trkpt>
      <trkpt lat="45.29648" lon="4.43687">
        <ele>1206</ele>
        <time>2021-02-07T08:28:34Z</time>
      </trkpt>
      <trkpt lat="45.29653" lon="4.43688">
        <ele>1207</ele>
        <time>2021-02-07T08:28:36Z</time>
      </trkpt>
      <trkpt lat="45.29657" lon="4.43688">
        <ele>1206</ele>
        <time>2021-02-07T08:28:38Z</time>
      </trkpt>
      <trkpt lat="45.29662" lon="4.43689">
        <ele>1206</ele>
        <time>2021-02-07T08:28:40Z</time>
      </trkpt>
      <trkpt lat="45.29667" lon="4.43689">
        <ele>1207</ele>
        <time>2021-02-07T08:28:42Z</time>
      </trkpt>
      <trkpt lat="45.29671" lon="4.43689">
        <ele>1207</ele>
        <time>2021-02-07T08:28:44Z</time>
      </trkpt>
      <trkpt lat="45.29675" lon="4.4369">
        <ele>1206</ele>
        <time>2021-02-07T08:28:46Z</time>
      </trkpt>
      <trkpt lat="45.2968" lon="4.4369">
        <ele>1207</ele>
        <time>2021-02-07T08:28:48Z</time>
      </trkpt>
      <trkpt lat="45.29684" lon="4.4369">
        <ele>1207</ele>
        <time>2021-02-07T08:28:50Z</time>
      </trkpt>
      <trkpt lat="45.29689" lon="4.43691">
        <ele>1207</ele>
        <time>2021-02-07T08:28:52Z</time>
      </trkpt>
      <trkpt lat="45.29693" lon="4.43692">
        <ele>1207</ele>
        <time>2021-02-07T08:28:54Z</time>
      </trkpt>
      <trkpt lat="45.29698" lon="4.43692">
        <ele>1207</ele>
        <time>2021-02-07T08:28:56Z</time>
      </trkpt>
      <trkpt lat="45.29702" lon="4.43693">
        <ele>1206</ele>
        <time>2021-02-07T08:28:58Z</time>
      </trkpt>
      <trkpt lat="45.29706" lon="4.43694">
        <ele>1207</ele>
        <time>2021-02-07T08:29:00Z</time>
      </trkpt>
      <trkpt lat="45.29711" lon="4.43695">
        <ele>1207</ele>
        <time>2021-02-07T08:29:02Z</time>
      </trkpt>
      <trkpt lat="45.29715" lon="4.43695">
        <ele>1208</ele>
        <time>2021-02-07T08:29:04Z</time>
      </trkpt>
      <trkpt lat="45.2972" lon="4.43696">
        <ele>1209</ele>
        <time>2021-02-07T08:29:06Z</time>
      </trkpt>
      <trkpt lat="45.29725" lon="4.43697">
        <ele>1208</ele>
        <time>2021-02-07T08:29:08Z</time>
      </trkpt>
      <trkpt lat="45.2973" lon="4.43697">
        <ele>1209</ele>
        <time>2021-02-07T08:29:10Z</time>
      </trkpt>
      <trkpt lat="45.29734" lon="4.43697">
        <ele>1209</ele>
        <time>2021-02-07T08:29:12Z</time>
      </trkpt>
      <trkpt lat="45.29739" lon="4.43698">
        <ele>1209</ele>
        <time>2021-02-07T08:29:14Z</time>
      </trkpt>
      <trkpt lat="45.29744" lon="4.43699">
        <ele>1211</ele>
        <time>2021-02-07T08:29:16Z</time>
      </trkpt>
      <trkpt lat="45.29748" lon="4.437">
        <ele>1210</ele>
        <time>2021-02-07T08:29:18Z</time>
      </trkpt>
      <trkpt lat="45.29752" lon="4.43699">
        <ele>1210</ele>
        <time>2021-02-07T08:29:21Z</time>
      </trkpt>
      <trkpt lat="45.29757" lon="4.43699">
        <ele>1210</ele>
        <time>2021-02-07T08:29:24Z</time>
      </trkpt>
      <trkpt lat="45.29761" lon="4.43699">
        <ele>1211</ele>
        <time>2021-02-07T08:29:27Z</time>
      </trkpt>
      <trkpt lat="45.29765" lon="4.437">
        <ele>1210</ele>
        <time>2021-02-07T08:29:30Z</time>
      </trkpt>
      <trkpt lat="45.29769" lon="4.437">
        <ele>1210</ele>
        <time>2021-02-07T08:29:33Z</time>
      </trkpt>
      <trkpt lat="45.29773" lon="4.43701">
        <ele>1212</ele>
        <time>2021-02-07T08:29:36Z</time>
      </trkpt>
      <trkpt lat="45.29777" lon="4.43703">
        <ele>1212</ele>
        <time>2021-02-07T08:29:39Z</time>
      </trkpt>
      <trkpt lat="45.29781" lon="4.43705">
        <ele>1212</ele>
        <time>2021-02-07T08:29:42Z</time>
      </trkpt>
      <trkpt lat="45.29784" lon="4.43708">
        <ele>1212</ele>
        <time>2021-02-07T08:29:45Z</time>
      </trkpt>
      <trkpt lat="45.29789" lon="4.43709">
        <ele>1211</ele>
        <time>2021-02-07T08:29:48Z</time>
      </trkpt>
      <trkpt lat="45.29794" lon="4.43711">
        <ele>1211</ele>
        <time>2021-02-07T08:29:51Z</time>
      </trkpt>
      <trkpt lat="45.29798" lon="4.43712">
        <ele>1211</ele>
        <time>2021-02-07T08:29:53Z</time>
      </trkpt>
      <trkpt lat="45.29803" lon="4.43713">
        <ele>1211</ele>
        <time>2021-02-07T08:29:55Z</time>
      </trkpt>
      <trkpt lat="45.29807" lon="4.43714">
        <ele>1211</ele>
        <time>2021-02-07T08:29:57Z</time>
      </trkpt>
      <trkpt lat="45.29812" lon="4.43714">
        <ele>1211</ele>
        <time>2021-02-07T08:29:59Z</time>
      </trkpt>
      <trkpt lat="45.29816" lon="4.43716">
        <ele>1211</ele>
        <time>2021-02-07T08:30:01Z</time>
      </trkpt>
      <trkpt lat="45.2982" lon="4.43717">
        <ele>1211</ele>
        <time>2021-02-07T08:30:03Z</time>
      </trkpt>
      <trkpt lat="45.29825" lon="4.43718">
        <ele>1211</ele>
        <time>2021-02-07T08:30:05Z</time>
      </trkpt>
      <trkpt lat="45.29829" lon="4.43719">
        <ele>1211</ele>
        <time>2021-02-07T08:30:07Z</time>
      </trkpt>
      <trkpt lat="45.29834" lon="4.4372">
        <ele>1211</ele>
        <time>2021-02-07T08:30:09Z</time>
      </trkpt>
      <trkpt lat="45.29838" lon="4.43722">
        <ele>1211</ele>
        <time>2021-02-07T08:30:11Z</time>
      </trkpt>
      <trkpt lat="45.29842" lon="4.43724">
        <ele>1211</ele>
        <time>2021-02-07T08:30:13Z</time>
      </trkpt>
      <trkpt lat="45.29846" lon="4.43726">
        <ele>1211</ele>
        <time>2021-02-07T08:30:15Z</time>
      </trkpt>
      <trkpt lat="45.29852" lon="4.43725">
        <ele>1211</ele>
        <time>2021-02-07T08:30:18Z</time>
      </trkpt>
      <trkpt lat="45.29856" lon="4.43725">
        <ele>1211</ele>
        <time>2021-02-07T08:30:20Z</time>
      </trkpt>
      <trkpt lat="45.2986" lon="4.43724">
        <ele>1211</ele>
        <time>2021-02-07T08:30:22Z</time>
      </trkpt>
      <trkpt lat="45.29865" lon="4.43724">
        <ele>1212</ele>
        <time>2021-02-07T08:30:24Z</time>
      </trkpt>
      <trkpt lat="45.29869" lon="4.43723">
        <ele>1211</ele>
        <time>2021-02-07T08:30:26Z</time>
      </trkpt>
      <trkpt lat="45.29873" lon="4.43722">
        <ele>1211</ele>
        <time>2021-02-07T08:30:28Z</time>
      </trkpt>
      <trkpt lat="45.29878" lon="4.4372">
        <ele>1211</ele>
        <time>2021-02-07T08:30:31Z</time>
      </trkpt>
      <trkpt lat="45.29881" lon="4.43719">
        <ele>1210</ele>
        <time>2021-02-07T08:30:34Z</time>
      </trkpt>
      <trkpt lat="45.29885" lon="4.43717">
        <ele>1210</ele>
        <time>2021-02-07T08:30:37Z</time>
      </trkpt>
      <trkpt lat="45.2989" lon="4.43715">
        <ele>1210</ele>
        <time>2021-02-07T08:30:40Z</time>
      </trkpt>
      <trkpt lat="45.29894" lon="4.43713">
        <ele>1210</ele>
        <time>2021-02-07T08:30:43Z</time>
      </trkpt>
      <trkpt lat="45.29897" lon="4.4371">
        <ele>1209</ele>
        <time>2021-02-07T08:30:46Z</time>
      </trkpt>
      <trkpt lat="45.29902" lon="4.43707">
        <ele>1208</ele>
        <time>2021-02-07T08:30:48Z</time>
      </trkpt>
      <trkpt lat="45.29905" lon="4.43704">
        <ele>1208</ele>
        <time>2021-02-07T08:30:50Z</time>
      </trkpt>
      <trkpt lat="45.29909" lon="4.43701">
        <ele>1207</ele>
        <time>2021-02-07T08:30:52Z</time>
      </trkpt>
      <trkpt lat="45.29911" lon="4.43697">
        <ele>1208</ele>
        <time>2021-02-07T08:30:54Z</time>
      </trkpt>
      <trkpt lat="45.29915" lon="4.43692">
        <ele>1208</ele>
        <time>2021-02-07T08:30:56Z</time>
      </trkpt>
      <trkpt lat="45.29919" lon="4.43689">
        <ele>1208</ele>
        <time>2021-02-07T08:30:58Z</time>
      </trkpt>
      <trkpt lat="45.29924" lon="4.43685">
        <ele>1208</ele>
        <time>2021-02-07T08:31:00Z</time>
      </trkpt>
      <trkpt lat="45.29928" lon="4.43682">
        <ele>1207</ele>
        <time>2021-02-07T08:31:02Z</time>
      </trkpt>
      <trkpt lat="45.29933" lon="4.43678">
        <ele>1207</ele>
        <time>2021-02-07T08:31:04Z</time>
      </trkpt>
      <trkpt lat="45.29939" lon="4.43674">
        <ele>1207</ele>
        <time>2021-02-07T08:31:06Z</time>
      </trkpt>
      <trkpt lat="45.29943" lon="4.43671">
        <ele>1207</ele>
        <time>2021-02-07T08:31:08Z</time>
      </trkpt>
      <trkpt lat="45.29947" lon="4.43666">
        <ele>1206</ele>
        <time>2021-02-07T08:31:10Z</time>
      </trkpt>
      <trkpt lat="45.29951" lon="4.43662">
        <ele>1206</ele>
        <time>2021-02-07T08:31:12Z</time>
      </trkpt>
      <trkpt lat="45.29956" lon="4.43658">
        <ele>1206</ele>
        <time>2021-02-07T08:31:14Z</time>
      </trkpt>
      <trkpt lat="45.29959" lon="4.43654">
        <ele>1206</ele>
        <time>2021-02-07T08:31:16Z</time>
      </trkpt>
      <trkpt lat="45.29963" lon="4.43651">
        <ele>1205</ele>
        <time>2021-02-07T08:31:18Z</time>
      </trkpt>
      <trkpt lat="45.29968" lon="4.4365">
        <ele>1206</ele>
        <time>2021-02-07T08:31:21Z</time>
      </trkpt>
      <trkpt lat="45.29972" lon="4.43648">
        <ele>1206</ele>
        <time>2021-02-07T08:31:24Z</time>
      </trkpt>
      <trkpt lat="45.29976" lon="4.43644">
        <ele>1206</ele>
        <time>2021-02-07T08:31:27Z</time>
      </trkpt>
      <trkpt lat="45.2998" lon="4.4364">
        <ele>1207</ele>
        <time>2021-02-07T08:31:30Z</time>
      </trkpt>
      <trkpt lat="45.29984" lon="4.43638">
        <ele>1205</ele>
        <time>2021-02-07T08:31:32Z</time>
      </trkpt>
      <trkpt lat="45.29988" lon="4.43637">
        <ele>1205</ele>
        <time>2021-02-07T08:31:34Z</time>
      </trkpt>
      <trkpt lat="45.29992" lon="4.43635">
        <ele>1205</ele>
        <time>2021-02-07T08:31:36Z</time>
      </trkpt>
      <trkpt lat="45.29997" lon="4.43634">
        <ele>1205</ele>
        <time>2021-02-07T08:31:38Z</time>
      </trkpt>
      <trkpt lat="45.30001" lon="4.43632">
        <ele>1205</ele>
        <time>2021-02-07T08:31:40Z</time>
      </trkpt>
      <trkpt lat="45.30005" lon="4.43632">
        <ele>1206</ele>
        <time>2021-02-07T08:31:43Z</time>
      </trkpt>
      <trkpt lat="45.30009" lon="4.43632">
        <ele>1206</ele>
        <time>2021-02-07T08:31:47Z</time>
      </trkpt>
      <trkpt lat="45.30013" lon="4.43633">
        <ele>1206</ele>
        <time>2021-02-07T08:31:50Z</time>
      </trkpt>
      <trkpt lat="45.30017" lon="4.43635">
        <ele>1206</ele>
        <time>2021-02-07T08:31:54Z</time>
      </trkpt>
      <trkpt lat="45.30022" lon="4.43636">
        <ele>1207</ele>
        <time>2021-02-07T08:31:57Z</time>
      </trkpt>
      <trkpt lat="45.30027" lon="4.43637">
        <ele>1207</ele>
        <time>2021-02-07T08:32:00Z</time>
      </trkpt>
      <trkpt lat="45.30031" lon="4.43638">
        <ele>1206</ele>
        <time>2021-02-07T08:32:03Z</time>
      </trkpt>
      <trkpt lat="45.30037" lon="4.4364">
        <ele>1206</ele>
        <time>2021-02-07T08:32:06Z</time>
      </trkpt>
      <trkpt lat="45.30041" lon="4.43641">
        <ele>1207</ele>
        <time>2021-02-07T08:32:09Z</time>
      </trkpt>
      <trkpt lat="45.30046" lon="4.43643">
        <ele>1207</ele>
        <time>2021-02-07T08:32:11Z</time>
      </trkpt>
      <trkpt lat="45.3005" lon="4.43647">
        <ele>1207</ele>
        <time>2021-02-07T08:32:13Z</time>
      </trkpt>
      <trkpt lat="45.30056" lon="4.43648">
        <ele>1207</ele>
        <time>2021-02-07T08:32:17Z</time>
      </trkpt>
      <trkpt lat="45.3006" lon="4.43651">
        <ele>1207</ele>
        <time>2021-02-07T08:32:19Z</time>
      </trkpt>
      <trkpt lat="45.30064" lon="4.43652">
        <ele>1207</ele>
        <time>2021-02-07T08:32:21Z</time>
      </trkpt>
      <trkpt lat="45.30069" lon="4.43656">
        <ele>1207</ele>
        <time>2021-02-07T08:32:23Z</time>
      </trkpt>
      <trkpt lat="45.30081" lon="4.43659">
        <ele>1207</ele>
        <time>2021-02-07T08:32:29Z</time>
      </trkpt>
      <trkpt lat="45.30091" lon="4.43664">
        <ele>1208</ele>
        <time>2021-02-07T08:32:35Z</time>
      </trkpt>
      <trkpt lat="45.30104" lon="4.43669">
        <ele>1209</ele>
        <time>2021-02-07T08:32:41Z</time>
      </trkpt>
      <trkpt lat="45.30115" lon="4.43674">
        <ele>1209</ele>
        <time>2021-02-07T08:32:49Z</time>
      </trkpt>
      <trkpt lat="45.30127" lon="4.43678">
        <ele>1209</ele>
        <time>2021-02-07T08:32:54Z</time>
      </trkpt>
      <trkpt lat="45.3014" lon="4.43679">
        <ele>1209</ele>
        <time>2021-02-07T08:32:59Z</time>
      </trkpt>
      <trkpt lat="45.30152" lon="4.43678">
        <ele>1208</ele>
        <time>2021-02-07T08:33:05Z</time>
      </trkpt>
      <trkpt lat="45.30164" lon="4.4368">
        <ele>1208</ele>
        <time>2021-02-07T08:33:08Z</time>
      </trkpt>
      <trkpt lat="45.30178" lon="4.43681">
        <ele>1207</ele>
        <time>2021-02-07T08:33:11Z</time>
      </trkpt>
      <trkpt lat="45.30189" lon="4.43683">
        <ele>1207</ele>
        <time>2021-02-07T08:33:13Z</time>
      </trkpt>
      <trkpt lat="45.30194" lon="4.43685">
        <ele>1207</ele>
        <time>2021-02-07T08:33:14Z</time>
      </trkpt>
      <trkpt lat="45.30199" lon="4.43687">
        <ele>1207</ele>
        <time>2021-02-07T08:33:15Z</time>
      </trkpt>
      <trkpt lat="45.30205" lon="4.4369">
        <ele>1207</ele>
        <time>2021-02-07T08:33:17Z</time>
      </trkpt>
      <trkpt lat="45.30209" lon="4.43691">
        <ele>1207</ele>
        <time>2021-02-07T08:33:19Z</time>
      </trkpt>
      <trkpt lat="45.30214" lon="4.43691">
        <ele>1207</ele>
        <time>2021-02-07T08:33:21Z</time>
      </trkpt>
      <trkpt lat="45.30218" lon="4.43692">
        <ele>1207</ele>
        <time>2021-02-07T08:33:23Z</time>
      </trkpt>
      <trkpt lat="45.30224" lon="4.43693">
        <ele>1208</ele>
        <time>2021-02-07T08:33:25Z</time>
      </trkpt>
      <trkpt lat="45.30228" lon="4.43693">
        <ele>1208</ele>
        <time>2021-02-07T08:33:26Z</time>
      </trkpt>
      <trkpt lat="45.30233" lon="4.43692">
        <ele>1208</ele>
        <time>2021-02-07T08:33:28Z</time>
      </trkpt>
      <trkpt lat="45.30238" lon="4.43692">
        <ele>1208</ele>
        <time>2021-02-07T08:33:30Z</time>
      </trkpt>
      <trkpt lat="45.30242" lon="4.43691">
        <ele>1208</ele>
        <time>2021-02-07T08:33:32Z</time>
      </trkpt>
      <trkpt lat="45.30247" lon="4.43692">
        <ele>1208</ele>
        <time>2021-02-07T08:33:34Z</time>
      </trkpt>
      <trkpt lat="45.30253" lon="4.43691">
        <ele>1208</ele>
        <time>2021-02-07T08:33:36Z</time>
      </trkpt>
      <trkpt lat="45.30257" lon="4.43691">
        <ele>1208</ele>
        <time>2021-02-07T08:33:38Z</time>
      </trkpt>
      <trkpt lat="45.30262" lon="4.4369">
        <ele>1208</ele>
        <time>2021-02-07T08:33:40Z</time>
      </trkpt>
      <trkpt lat="45.30269" lon="4.43689">
        <ele>1208</ele>
        <time>2021-02-07T08:33:42Z</time>
      </trkpt>
      <trkpt lat="45.30272" lon="4.43689">
        <ele>1206</ele>
        <time>2021-02-07T08:33:43Z</time>
      </trkpt>
      <trkpt lat="45.30276" lon="4.43688">
        <ele>1206</ele>
        <time>2021-02-07T08:33:44Z</time>
      </trkpt>
      <trkpt lat="45.30281" lon="4.43688">
        <ele>1206</ele>
        <time>2021-02-07T08:33:45Z</time>
      </trkpt>
      <trkpt lat="45.30288" lon="4.43687">
        <ele>1206</ele>
        <time>2021-02-07T08:33:47Z</time>
      </trkpt>
      <trkpt lat="45.30292" lon="4.43686">
        <ele>1206</ele>
        <time>2021-02-07T08:33:49Z</time>
      </trkpt>
      <trkpt lat="45.30296" lon="4.43684">
        <ele>1205</ele>
        <time>2021-02-07T08:33:51Z</time>
      </trkpt>
      <trkpt lat="45.303" lon="4.43682">
        <ele>1205</ele>
        <time>2021-02-07T08:33:53Z</time>
      </trkpt>
      <trkpt lat="45.30305" lon="4.4368">
        <ele>1205</ele>
        <time>2021-02-07T08:33:55Z</time>
      </trkpt>
      <trkpt lat="45.30308" lon="4.43679">
        <ele>1205</ele>
        <time>2021-02-07T08:33:57Z</time>
      </trkpt>
      <trkpt lat="45.30311" lon="4.43678">
        <ele>1204</ele>
        <time>2021-02-07T08:34:08Z</time>
      </trkpt>
      <trkpt lat="45.30313" lon="4.43676">
        <ele>1200</ele>
        <time>2021-02-07T08:35:03Z</time>
      </trkpt>
      <trkpt lat="45.30315" lon="4.43675">
        <ele>1197</ele>
        <time>2021-02-07T08:35:37Z</time>
      </trkpt>
      <trkpt lat="45.3032" lon="4.43674">
        <ele>1196</ele>
        <time>2021-02-07T08:35:40Z</time>
      </trkpt>
      <trkpt lat="45.30324" lon="4.43673">
        <ele>1196</ele>
        <time>2021-02-07T08:35:42Z</time>
      </trkpt>
      <trkpt lat="45.30329" lon="4.43673">
        <ele>1195</ele>
        <time>2021-02-07T08:35:44Z</time>
      </trkpt>
      <trkpt lat="45.30335" lon="4.43672">
        <ele>1195</ele>
        <time>2021-02-07T08:35:46Z</time>
      </trkpt>
      <trkpt lat="45.30341" lon="4.43672">
        <ele>1194</ele>
        <time>2021-02-07T08:35:48Z</time>
      </trkpt>
      <trkpt lat="45.30347" lon="4.43671">
        <ele>1194</ele>
        <time>2021-02-07T08:35:50Z</time>
      </trkpt>
      <trkpt lat="45.30351" lon="4.43671">
        <ele>1193</ele>
        <time>2021-02-07T08:35:52Z</time>
      </trkpt>
      <trkpt lat="45.30356" lon="4.43672">
        <ele>1193</ele>
        <time>2021-02-07T08:35:54Z</time>
      </trkpt>
      <trkpt lat="45.3036" lon="4.43673">
        <ele>1192</ele>
        <time>2021-02-07T08:35:56Z</time>
      </trkpt>
      <trkpt lat="45.30364" lon="4.43673">
        <ele>1192</ele>
        <time>2021-02-07T08:35:58Z</time>
      </trkpt>
      <trkpt lat="45.30369" lon="4.43674">
        <ele>1191</ele>
        <time>2021-02-07T08:36:00Z</time>
      </trkpt>
      <trkpt lat="45.30375" lon="4.43675">
        <ele>1191</ele>
        <time>2021-02-07T08:36:02Z</time>
      </trkpt>
      <trkpt lat="45.3038" lon="4.43674">
        <ele>1190</ele>
        <time>2021-02-07T08:36:04Z</time>
      </trkpt>
      <trkpt lat="45.30385" lon="4.43675">
        <ele>1189</ele>
        <time>2021-02-07T08:36:06Z</time>
      </trkpt>
      <trkpt lat="45.30391" lon="4.43676">
        <ele>1189</ele>
        <time>2021-02-07T08:36:09Z</time>
      </trkpt>
      <trkpt lat="45.30394" lon="4.43677">
        <ele>1189</ele>
        <time>2021-02-07T08:36:11Z</time>
      </trkpt>
      <trkpt lat="45.30397" lon="4.43677">
        <ele>1187</ele>
        <time>2021-02-07T08:36:39Z</time>
      </trkpt>
      <trkpt lat="45.30402" lon="4.43677">
        <ele>1187</ele>
        <time>2021-02-07T08:36:42Z</time>
      </trkpt>
      <trkpt lat="45.30407" lon="4.43677">
        <ele>1187</ele>
        <time>2021-02-07T08:36:45Z</time>
      </trkpt>
      <trkpt lat="45.30412" lon="4.43677">
        <ele>1186</ele>
        <time>2021-02-07T08:36:47Z</time>
      </trkpt>
      <trkpt lat="45.30416" lon="4.43678">
        <ele>1187</ele>
        <time>2021-02-07T08:36:49Z</time>
      </trkpt>
      <trkpt lat="45.3042" lon="4.43678">
        <ele>1187</ele>
        <time>2021-02-07T08:36:51Z</time>
      </trkpt>
      <trkpt lat="45.30425" lon="4.43678">
        <ele>1187</ele>
        <time>2021-02-07T08:36:54Z</time>
      </trkpt>
      <trkpt lat="45.3043" lon="4.43676">
        <ele>1187</ele>
        <time>2021-02-07T08:36:57Z</time>
      </trkpt>
      <trkpt lat="45.30436" lon="4.43676">
        <ele>1187</ele>
        <time>2021-02-07T08:37:00Z</time>
      </trkpt>
      <trkpt lat="45.3044" lon="4.43675">
        <ele>1187</ele>
        <time>2021-02-07T08:37:02Z</time>
      </trkpt>
      <trkpt lat="45.30444" lon="4.43674">
        <ele>1187</ele>
        <time>2021-02-07T08:37:04Z</time>
      </trkpt>
      <trkpt lat="45.30448" lon="4.4367">
        <ele>1187</ele>
        <time>2021-02-07T08:37:07Z</time>
      </trkpt>
      <trkpt lat="45.30451" lon="4.43665">
        <ele>1186</ele>
        <time>2021-02-07T08:37:10Z</time>
      </trkpt>
      <trkpt lat="45.30454" lon="4.4366">
        <ele>1186</ele>
        <time>2021-02-07T08:37:13Z</time>
      </trkpt>
      <trkpt lat="45.30457" lon="4.43656">
        <ele>1187</ele>
        <time>2021-02-07T08:37:16Z</time>
      </trkpt>
      <trkpt lat="45.30459" lon="4.4365">
        <ele>1186</ele>
        <time>2021-02-07T08:37:20Z</time>
      </trkpt>
      <trkpt lat="45.30461" lon="4.43645">
        <ele>1186</ele>
        <time>2021-02-07T08:37:24Z</time>
      </trkpt>
      <trkpt lat="45.30465" lon="4.4364">
        <ele>1186</ele>
        <time>2021-02-07T08:37:27Z</time>
      </trkpt>
      <trkpt lat="45.30469" lon="4.43637">
        <ele>1185</ele>
        <time>2021-02-07T08:37:30Z</time>
      </trkpt>
      <trkpt lat="45.30474" lon="4.43634">
        <ele>1185</ele>
        <time>2021-02-07T08:37:33Z</time>
      </trkpt>
      <trkpt lat="45.30479" lon="4.4363">
        <ele>1185</ele>
        <time>2021-02-07T08:37:35Z</time>
      </trkpt>
      <trkpt lat="45.30483" lon="4.43628">
        <ele>1185</ele>
        <time>2021-02-07T08:37:37Z</time>
      </trkpt>
      <trkpt lat="45.30488" lon="4.43626">
        <ele>1186</ele>
        <time>2021-02-07T08:37:39Z</time>
      </trkpt>
      <trkpt lat="45.30493" lon="4.43624">
        <ele>1187</ele>
        <time>2021-02-07T08:37:41Z</time>
      </trkpt>
      <trkpt lat="45.30498" lon="4.43622">
        <ele>1187</ele>
        <time>2021-02-07T08:37:43Z</time>
      </trkpt>
      <trkpt lat="45.30503" lon="4.4362">
        <ele>1188</ele>
        <time>2021-02-07T08:37:45Z</time>
      </trkpt>
      <trkpt lat="45.30509" lon="4.43621">
        <ele>1188</ele>
        <time>2021-02-07T08:37:47Z</time>
      </trkpt>
      <trkpt lat="45.30513" lon="4.43621">
        <ele>1187</ele>
        <time>2021-02-07T08:37:49Z</time>
      </trkpt>
      <trkpt lat="45.30517" lon="4.4362">
        <ele>1188</ele>
        <time>2021-02-07T08:37:51Z</time>
      </trkpt>
      <trkpt lat="45.30521" lon="4.43618">
        <ele>1188</ele>
        <time>2021-02-07T08:37:53Z</time>
      </trkpt>
      <trkpt lat="45.30525" lon="4.43615">
        <ele>1189</ele>
        <time>2021-02-07T08:37:55Z</time>
      </trkpt>
      <trkpt lat="45.30529" lon="4.43611">
        <ele>1190</ele>
        <time>2021-02-07T08:37:57Z</time>
      </trkpt>
      <trkpt lat="45.30533" lon="4.43606">
        <ele>1190</ele>
        <time>2021-02-07T08:37:59Z</time>
      </trkpt>
      <trkpt lat="45.30536" lon="4.43601">
        <ele>1190</ele>
        <time>2021-02-07T08:38:01Z</time>
      </trkpt>
      <trkpt lat="45.30538" lon="4.43596">
        <ele>1190</ele>
        <time>2021-02-07T08:38:03Z</time>
      </trkpt>
      <trkpt lat="45.30541" lon="4.4359">
        <ele>1190</ele>
        <time>2021-02-07T08:38:04Z</time>
      </trkpt>
      <trkpt lat="45.30543" lon="4.43585">
        <ele>1190</ele>
        <time>2021-02-07T08:38:07Z</time>
      </trkpt>
      <trkpt lat="45.30545" lon="4.43579">
        <ele>1189</ele>
        <time>2021-02-07T08:38:09Z</time>
      </trkpt>
      <trkpt lat="45.30548" lon="4.43573">
        <ele>1190</ele>
        <time>2021-02-07T08:38:12Z</time>
      </trkpt>
      <trkpt lat="45.30548" lon="4.43567">
        <ele>1190</ele>
        <time>2021-02-07T08:38:15Z</time>
      </trkpt>
      <trkpt lat="45.3055" lon="4.43561">
        <ele>1191</ele>
        <time>2021-02-07T08:38:18Z</time>
      </trkpt>
      <trkpt lat="45.30551" lon="4.43555">
        <ele>1191</ele>
        <time>2021-02-07T08:38:20Z</time>
      </trkpt>
      <trkpt lat="45.30553" lon="4.4355">
        <ele>1192</ele>
        <time>2021-02-07T08:38:22Z</time>
      </trkpt>
      <trkpt lat="45.30555" lon="4.43546">
        <ele>1192</ele>
        <time>2021-02-07T08:38:24Z</time>
      </trkpt>
      <trkpt lat="45.30558" lon="4.43541">
        <ele>1192</ele>
        <time>2021-02-07T08:38:26Z</time>
      </trkpt>
      <trkpt lat="45.30561" lon="4.43536">
        <ele>1192</ele>
        <time>2021-02-07T08:38:28Z</time>
      </trkpt>
      <trkpt lat="45.30564" lon="4.43531">
        <ele>1192</ele>
        <time>2021-02-07T08:38:30Z</time>
      </trkpt>
      <trkpt lat="45.30567" lon="4.43526">
        <ele>1192</ele>
        <time>2021-02-07T08:38:32Z</time>
      </trkpt>
      <trkpt lat="45.3057" lon="4.43521">
        <ele>1192</ele>
        <time>2021-02-07T08:38:34Z</time>
      </trkpt>
      <trkpt lat="45.30572" lon="4.43516">
        <ele>1192</ele>
        <time>2021-02-07T08:38:36Z</time>
      </trkpt>
      <trkpt lat="45.30575" lon="4.4351">
        <ele>1192</ele>
        <time>2021-02-07T08:38:38Z</time>
      </trkpt>
      <trkpt lat="45.30578" lon="4.43505">
        <ele>1191</ele>
        <time>2021-02-07T08:38:40Z</time>
      </trkpt>
      <trkpt lat="45.30581" lon="4.435">
        <ele>1191</ele>
        <time>2021-02-07T08:38:42Z</time>
      </trkpt>
      <trkpt lat="45.30584" lon="4.43495">
        <ele>1191</ele>
        <time>2021-02-07T08:38:44Z</time>
      </trkpt>
      <trkpt lat="45.30586" lon="4.43491">
        <ele>1193</ele>
        <time>2021-02-07T08:38:46Z</time>
      </trkpt>
      <trkpt lat="45.30589" lon="4.43486">
        <ele>1193</ele>
        <time>2021-02-07T08:38:48Z</time>
      </trkpt>
      <trkpt lat="45.30591" lon="4.43482">
        <ele>1193</ele>
        <time>2021-02-07T08:38:50Z</time>
      </trkpt>
      <trkpt lat="45.30594" lon="4.43478">
        <ele>1192</ele>
        <time>2021-02-07T08:38:52Z</time>
      </trkpt>
      <trkpt lat="45.30597" lon="4.43474">
        <ele>1192</ele>
        <time>2021-02-07T08:38:54Z</time>
      </trkpt>
      <trkpt lat="45.306" lon="4.43469">
        <ele>1192</ele>
        <time>2021-02-07T08:38:56Z</time>
      </trkpt>
      <trkpt lat="45.30604" lon="4.43464">
        <ele>1193</ele>
        <time>2021-02-07T08:38:58Z</time>
      </trkpt>
      <trkpt lat="45.30607" lon="4.4346">
        <ele>1193</ele>
        <time>2021-02-07T08:39:00Z</time>
      </trkpt>
      <trkpt lat="45.30611" lon="4.43455">
        <ele>1192</ele>
        <time>2021-02-07T08:39:02Z</time>
      </trkpt>
      <trkpt lat="45.30616" lon="4.43452">
        <ele>1192</ele>
        <time>2021-02-07T08:39:04Z</time>
      </trkpt>
      <trkpt lat="45.3062" lon="4.43451">
        <ele>1192</ele>
        <time>2021-02-07T08:39:06Z</time>
      </trkpt>
      <trkpt lat="45.30625" lon="4.4345">
        <ele>1192</ele>
        <time>2021-02-07T08:39:08Z</time>
      </trkpt>
      <trkpt lat="45.3063" lon="4.43451">
        <ele>1192</ele>
        <time>2021-02-07T08:39:10Z</time>
      </trkpt>
      <trkpt lat="45.30634" lon="4.43452">
        <ele>1193</ele>
        <time>2021-02-07T08:39:12Z</time>
      </trkpt>
      <trkpt lat="45.30638" lon="4.43454">
        <ele>1192</ele>
        <time>2021-02-07T08:39:15Z</time>
      </trkpt>
      <trkpt lat="45.30643" lon="4.43455">
        <ele>1193</ele>
        <time>2021-02-07T08:39:19Z</time>
      </trkpt>
      <trkpt lat="45.30647" lon="4.43456">
        <ele>1192</ele>
        <time>2021-02-07T08:39:23Z</time>
      </trkpt>
      <trkpt lat="45.30651" lon="4.43457">
        <ele>1191</ele>
        <time>2021-02-07T08:39:27Z</time>
      </trkpt>
      <trkpt lat="45.30656" lon="4.43459">
        <ele>1191</ele>
        <time>2021-02-07T08:39:31Z</time>
      </trkpt>
      <trkpt lat="45.30659" lon="4.43461">
        <ele>1191</ele>
        <time>2021-02-07T08:39:34Z</time>
      </trkpt>
      <trkpt lat="45.30663" lon="4.43464">
        <ele>1191</ele>
        <time>2021-02-07T08:39:37Z</time>
      </trkpt>
      <trkpt lat="45.30668" lon="4.43467">
        <ele>1190</ele>
        <time>2021-02-07T08:39:40Z</time>
      </trkpt>
      <trkpt lat="45.30671" lon="4.43469">
        <ele>1190</ele>
        <time>2021-02-07T08:39:42Z</time>
      </trkpt>
      <trkpt lat="45.30674" lon="4.43472">
        <ele>1190</ele>
        <time>2021-02-07T08:39:44Z</time>
      </trkpt>
      <trkpt lat="45.30677" lon="4.43474">
        <ele>1191</ele>
        <time>2021-02-07T08:39:46Z</time>
      </trkpt>
      <trkpt lat="45.30681" lon="4.43476">
        <ele>1191</ele>
        <time>2021-02-07T08:39:48Z</time>
      </trkpt>
      <trkpt lat="45.30685" lon="4.43478">
        <ele>1191</ele>
        <time>2021-02-07T08:39:50Z</time>
      </trkpt>
      <trkpt lat="45.3069" lon="4.43481">
        <ele>1191</ele>
        <time>2021-02-07T08:39:52Z</time>
      </trkpt>
      <trkpt lat="45.30695" lon="4.43482">
        <ele>1189</ele>
        <time>2021-02-07T08:39:54Z</time>
      </trkpt>
      <trkpt lat="45.307" lon="4.43484">
        <ele>1189</ele>
        <time>2021-02-07T08:39:56Z</time>
      </trkpt>
      <trkpt lat="45.30705" lon="4.43485">
        <ele>1189</ele>
        <time>2021-02-07T08:39:58Z</time>
      </trkpt>
      <trkpt lat="45.30708" lon="4.43486">
        <ele>1189</ele>
        <time>2021-02-07T08:40:00Z</time>
      </trkpt>
      <trkpt lat="45.30713" lon="4.43487">
        <ele>1188</ele>
        <time>2021-02-07T08:40:03Z</time>
      </trkpt>
      <trkpt lat="45.30717" lon="4.4349">
        <ele>1188</ele>
        <time>2021-02-07T08:40:05Z</time>
      </trkpt>
      <trkpt lat="45.3072" lon="4.43491">
        <ele>1188</ele>
        <time>2021-02-07T08:40:07Z</time>
      </trkpt>
      <trkpt lat="45.30724" lon="4.43493">
        <ele>1188</ele>
        <time>2021-02-07T08:40:10Z</time>
      </trkpt>
      <trkpt lat="45.30728" lon="4.43494">
        <ele>1187</ele>
        <time>2021-02-07T08:40:13Z</time>
      </trkpt>
      <trkpt lat="45.30732" lon="4.43495">
        <ele>1187</ele>
        <time>2021-02-07T08:40:15Z</time>
      </trkpt>
      <trkpt lat="45.30735" lon="4.43497">
        <ele>1187</ele>
        <time>2021-02-07T08:40:17Z</time>
      </trkpt>
      <trkpt lat="45.3074" lon="4.43499">
        <ele>1187</ele>
        <time>2021-02-07T08:40:19Z</time>
      </trkpt>
      <trkpt lat="45.30743" lon="4.43501">
        <ele>1187</ele>
        <time>2021-02-07T08:40:21Z</time>
      </trkpt>
      <trkpt lat="45.30747" lon="4.43502">
        <ele>1187</ele>
        <time>2021-02-07T08:40:23Z</time>
      </trkpt>
      <trkpt lat="45.3075" lon="4.43504">
        <ele>1188</ele>
        <time>2021-02-07T08:40:25Z</time>
      </trkpt>
      <trkpt lat="45.30755" lon="4.43506">
        <ele>1188</ele>
        <time>2021-02-07T08:40:27Z</time>
      </trkpt>
      <trkpt lat="45.30759" lon="4.43509">
        <ele>1189</ele>
        <time>2021-02-07T08:40:29Z</time>
      </trkpt>
      <trkpt lat="45.30765" lon="4.43512">
        <ele>1189</ele>
        <time>2021-02-07T08:40:31Z</time>
      </trkpt>
      <trkpt lat="45.30769" lon="4.43514">
        <ele>1189</ele>
        <time>2021-02-07T08:40:33Z</time>
      </trkpt>
      <trkpt lat="45.30773" lon="4.43515">
        <ele>1189</ele>
        <time>2021-02-07T08:40:35Z</time>
      </trkpt>
      <trkpt lat="45.30777" lon="4.43516">
        <ele>1189</ele>
        <time>2021-02-07T08:40:37Z</time>
      </trkpt>
      <trkpt lat="45.30782" lon="4.43518">
        <ele>1189</ele>
        <time>2021-02-07T08:40:39Z</time>
      </trkpt>
      <trkpt lat="45.30786" lon="4.4352">
        <ele>1189</ele>
        <time>2021-02-07T08:40:41Z</time>
      </trkpt>
      <trkpt lat="45.30791" lon="4.43523">
        <ele>1189</ele>
        <time>2021-02-07T08:40:43Z</time>
      </trkpt>
      <trkpt lat="45.30796" lon="4.43524">
        <ele>1189</ele>
        <time>2021-02-07T08:40:45Z</time>
      </trkpt>
      <trkpt lat="45.308" lon="4.43526">
        <ele>1190</ele>
        <time>2021-02-07T08:40:47Z</time>
      </trkpt>
      <trkpt lat="45.30806" lon="4.43527">
        <ele>1190</ele>
        <time>2021-02-07T08:40:50Z</time>
      </trkpt>
      <trkpt lat="45.30811" lon="4.43529">
        <ele>1190</ele>
        <time>2021-02-07T08:40:52Z</time>
      </trkpt>
      <trkpt lat="45.30815" lon="4.43531">
        <ele>1190</ele>
        <time>2021-02-07T08:40:53Z</time>
      </trkpt>
      <trkpt lat="45.30819" lon="4.43533">
        <ele>1190</ele>
        <time>2021-02-07T08:40:54Z</time>
      </trkpt>
      <trkpt lat="45.30823" lon="4.43535">
        <ele>1190</ele>
        <time>2021-02-07T08:40:55Z</time>
      </trkpt>
      <trkpt lat="45.30829" lon="4.43537">
        <ele>1190</ele>
        <time>2021-02-07T08:40:57Z</time>
      </trkpt>
      <trkpt lat="45.30833" lon="4.43539">
        <ele>1190</ele>
        <time>2021-02-07T08:40:58Z</time>
      </trkpt>
      <trkpt lat="45.30837" lon="4.4354">
        <ele>1190</ele>
        <time>2021-02-07T08:40:59Z</time>
      </trkpt>
      <trkpt lat="45.30843" lon="4.43543">
        <ele>1190</ele>
        <time>2021-02-07T08:41:01Z</time>
      </trkpt>
      <trkpt lat="45.3085" lon="4.43545">
        <ele>1190</ele>
        <time>2021-02-07T08:41:03Z</time>
      </trkpt>
      <trkpt lat="45.30855" lon="4.43548">
        <ele>1189</ele>
        <time>2021-02-07T08:41:05Z</time>
      </trkpt>
      <trkpt lat="45.30861" lon="4.4355">
        <ele>1189</ele>
        <time>2021-02-07T08:41:07Z</time>
      </trkpt>
      <trkpt lat="45.30866" lon="4.43552">
        <ele>1189</ele>
        <time>2021-02-07T08:41:09Z</time>
      </trkpt>
      <trkpt lat="45.30871" lon="4.43554">
        <ele>1189</ele>
        <time>2021-02-07T08:41:11Z</time>
      </trkpt>
      <trkpt lat="45.30876" lon="4.43556">
        <ele>1189</ele>
        <time>2021-02-07T08:41:13Z</time>
      </trkpt>
      <trkpt lat="45.3088" lon="4.43558">
        <ele>1189</ele>
        <time>2021-02-07T08:41:15Z</time>
      </trkpt>
      <trkpt lat="45.30885" lon="4.43559">
        <ele>1188</ele>
        <time>2021-02-07T08:41:18Z</time>
      </trkpt>
      <trkpt lat="45.30888" lon="4.4356">
        <ele>1187</ele>
        <time>2021-02-07T08:41:20Z</time>
      </trkpt>
      <trkpt lat="45.30892" lon="4.43561">
        <ele>1187</ele>
        <time>2021-02-07T08:41:23Z</time>
      </trkpt>
      <trkpt lat="45.30896" lon="4.43562">
        <ele>1187</ele>
        <time>2021-02-07T08:41:26Z</time>
      </trkpt>
      <trkpt lat="45.30902" lon="4.43565">
        <ele>1187</ele>
        <time>2021-02-07T08:41:29Z</time>
      </trkpt>
      <trkpt lat="45.30907" lon="4.43568">
        <ele>1187</ele>
        <time>2021-02-07T08:41:31Z</time>
      </trkpt>
      <trkpt lat="45.30913" lon="4.4357">
        <ele>1187</ele>
        <time>2021-02-07T08:41:33Z</time>
      </trkpt>
      <trkpt lat="45.30925" lon="4.43577">
        <ele>1185</ele>
        <time>2021-02-07T08:41:38Z</time>
      </trkpt>
      <trkpt lat="45.30937" lon="4.43582">
        <ele>1185</ele>
        <time>2021-02-07T08:41:43Z</time>
      </trkpt>
      <trkpt lat="45.30947" lon="4.43586">
        <ele>1183</ele>
        <time>2021-02-07T08:41:48Z</time>
      </trkpt>
      <trkpt lat="45.30959" lon="4.43591">
        <ele>1182</ele>
        <time>2021-02-07T08:41:53Z</time>
      </trkpt>
      <trkpt lat="45.30969" lon="4.43596">
        <ele>1182</ele>
        <time>2021-02-07T08:41:57Z</time>
      </trkpt>
      <trkpt lat="45.30973" lon="4.43597">
        <ele>1181</ele>
        <time>2021-02-07T08:41:59Z</time>
      </trkpt>
      <trkpt lat="45.30987" lon="4.43605">
        <ele>1181</ele>
        <time>2021-02-07T08:42:04Z</time>
      </trkpt>
      <trkpt lat="45.30993" lon="4.43609">
        <ele>1181</ele>
        <time>2021-02-07T08:42:06Z</time>
      </trkpt>
      <trkpt lat="45.30999" lon="4.43614">
        <ele>1181</ele>
        <time>2021-02-07T08:42:08Z</time>
      </trkpt>
      <trkpt lat="45.31003" lon="4.43618">
        <ele>1180</ele>
        <time>2021-02-07T08:42:10Z</time>
      </trkpt>
      <trkpt lat="45.31014" lon="4.43625">
        <ele>1178</ele>
        <time>2021-02-07T08:42:15Z</time>
      </trkpt>
      <trkpt lat="45.31025" lon="4.43628">
        <ele>1177</ele>
        <time>2021-02-07T08:42:20Z</time>
      </trkpt>
      <trkpt lat="45.31037" lon="4.43627">
        <ele>1176</ele>
        <time>2021-02-07T08:42:24Z</time>
      </trkpt>
      <trkpt lat="45.31048" lon="4.43628">
        <ele>1175</ele>
        <time>2021-02-07T08:42:28Z</time>
      </trkpt>
      <trkpt lat="45.31059" lon="4.43634">
        <ele>1173</ele>
        <time>2021-02-07T08:42:31Z</time>
      </trkpt>
      <trkpt lat="45.31069" lon="4.4364">
        <ele>1173</ele>
        <time>2021-02-07T08:42:34Z</time>
      </trkpt>
      <trkpt lat="45.31083" lon="4.43647">
        <ele>1172</ele>
        <time>2021-02-07T08:42:38Z</time>
      </trkpt>
      <trkpt lat="45.31094" lon="4.43655">
        <ele>1171</ele>
        <time>2021-02-07T08:42:41Z</time>
      </trkpt>
      <trkpt lat="45.31106" lon="4.43664">
        <ele>1171</ele>
        <time>2021-02-07T08:42:46Z</time>
      </trkpt>
      <trkpt lat="45.31117" lon="4.43668">
        <ele>1170</ele>
        <time>2021-02-07T08:42:50Z</time>
      </trkpt>
      <trkpt lat="45.31131" lon="4.4367">
        <ele>1168</ele>
        <time>2021-02-07T08:42:54Z</time>
      </trkpt>
      <trkpt lat="45.31142" lon="4.43672">
        <ele>1168</ele>
        <time>2021-02-07T08:42:58Z</time>
      </trkpt>
      <trkpt lat="45.31155" lon="4.43676">
        <ele>1166</ele>
        <time>2021-02-07T08:43:02Z</time>
      </trkpt>
      <trkpt lat="45.31165" lon="4.43678">
        <ele>1166</ele>
        <time>2021-02-07T08:43:06Z</time>
      </trkpt>
      <trkpt lat="45.31176" lon="4.43676">
        <ele>1163</ele>
        <time>2021-02-07T08:43:12Z</time>
      </trkpt>
      <trkpt lat="45.31189" lon="4.4368">
        <ele>1162</ele>
        <time>2021-02-07T08:43:17Z</time>
      </trkpt>
      <trkpt lat="45.31201" lon="4.43683">
        <ele>1160</ele>
        <time>2021-02-07T08:43:21Z</time>
      </trkpt>
      <trkpt lat="45.31212" lon="4.43685">
        <ele>1159</ele>
        <time>2021-02-07T08:43:26Z</time>
      </trkpt>
      <trkpt lat="45.31223" lon="4.43687">
        <ele>1157</ele>
        <time>2021-02-07T08:43:30Z</time>
      </trkpt>
      <trkpt lat="45.31234" lon="4.43691">
        <ele>1157</ele>
        <time>2021-02-07T08:43:34Z</time>
      </trkpt>
      <trkpt lat="45.31247" lon="4.43694">
        <ele>1157</ele>
        <time>2021-02-07T08:43:39Z</time>
      </trkpt>
      <trkpt lat="45.31258" lon="4.43698">
        <ele>1155</ele>
        <time>2021-02-07T08:43:44Z</time>
      </trkpt>
      <trkpt lat="45.31269" lon="4.43701">
        <ele>1152</ele>
        <time>2021-02-07T08:43:50Z</time>
      </trkpt>
      <trkpt lat="45.31281" lon="4.43702">
        <ele>1151</ele>
        <time>2021-02-07T08:43:54Z</time>
      </trkpt>
      <trkpt lat="45.31292" lon="4.43706">
        <ele>1149</ele>
        <time>2021-02-07T08:43:58Z</time>
      </trkpt>
      <trkpt lat="45.31304" lon="4.43704">
        <ele>1147</ele>
        <time>2021-02-07T08:44:03Z</time>
      </trkpt>
      <trkpt lat="45.31314" lon="4.43698">
        <ele>1143</ele>
        <time>2021-02-07T08:44:09Z</time>
      </trkpt>
      <trkpt lat="45.31325" lon="4.43697">
        <ele>1143</ele>
        <time>2021-02-07T08:44:14Z</time>
      </trkpt>
      <trkpt lat="45.31336" lon="4.437">
        <ele>1142</ele>
        <time>2021-02-07T08:44:18Z</time>
      </trkpt>
      <trkpt lat="45.31347" lon="4.43699">
        <ele>1140</ele>
        <time>2021-02-07T08:44:23Z</time>
      </trkpt>
      <trkpt lat="45.31358" lon="4.437">
        <ele>1138</ele>
        <time>2021-02-07T08:44:28Z</time>
      </trkpt>
      <trkpt lat="45.31369" lon="4.43705">
        <ele>1137</ele>
        <time>2021-02-07T08:44:36Z</time>
      </trkpt>
      <trkpt lat="45.31381" lon="4.4371">
        <ele>1135</ele>
        <time>2021-02-07T08:44:41Z</time>
      </trkpt>
      <trkpt lat="45.31393" lon="4.43715">
        <ele>1133</ele>
        <time>2021-02-07T08:44:46Z</time>
      </trkpt>
      <trkpt lat="45.31406" lon="4.43722">
        <ele>1132</ele>
        <time>2021-02-07T08:44:49Z</time>
      </trkpt>
      <trkpt lat="45.31417" lon="4.43728">
        <ele>1131</ele>
        <time>2021-02-07T08:44:53Z</time>
      </trkpt>
      <trkpt lat="45.31427" lon="4.43734">
        <ele>1130</ele>
        <time>2021-02-07T08:44:57Z</time>
      </trkpt>
      <trkpt lat="45.31441" lon="4.43735">
        <ele>1130</ele>
        <time>2021-02-07T08:45:03Z</time>
      </trkpt>
      <trkpt lat="45.31453" lon="4.43737">
        <ele>1129</ele>
        <time>2021-02-07T08:45:08Z</time>
      </trkpt>
      <trkpt lat="45.31467" lon="4.43741">
        <ele>1129</ele>
        <time>2021-02-07T08:45:13Z</time>
      </trkpt>
      <trkpt lat="45.31478" lon="4.43748">
        <ele>1128</ele>
        <time>2021-02-07T08:45:17Z</time>
      </trkpt>
      <trkpt lat="45.31482" lon="4.43751">
        <ele>1128</ele>
        <time>2021-02-07T08:45:19Z</time>
      </trkpt>
      <trkpt lat="45.31487" lon="4.43752">
        <ele>1128</ele>
        <time>2021-02-07T08:45:24Z</time>
      </trkpt>
      <trkpt lat="45.3149" lon="4.43748">
        <ele>1129</ele>
        <time>2021-02-07T08:45:34Z</time>
      </trkpt>
      <trkpt lat="45.31493" lon="4.43745">
        <ele>1128</ele>
        <time>2021-02-07T08:45:52Z</time>
      </trkpt>
      <trkpt lat="45.31497" lon="4.43744">
        <ele>1128</ele>
        <time>2021-02-07T08:46:12Z</time>
      </trkpt>
      <trkpt lat="45.31502" lon="4.43743">
        <ele>1127</ele>
        <time>2021-02-07T08:46:15Z</time>
      </trkpt>
      <trkpt lat="45.31505" lon="4.43745">
        <ele>1127</ele>
        <time>2021-02-07T08:46:17Z</time>
      </trkpt>
      <trkpt lat="45.3151" lon="4.43748">
        <ele>1127</ele>
        <time>2021-02-07T08:46:19Z</time>
      </trkpt>
      <trkpt lat="45.31516" lon="4.43752">
        <ele>1127</ele>
        <time>2021-02-07T08:46:21Z</time>
      </trkpt>
      <trkpt lat="45.31521" lon="4.43756">
        <ele>1127</ele>
        <time>2021-02-07T08:46:23Z</time>
      </trkpt>
      <trkpt lat="45.31527" lon="4.43759">
        <ele>1127</ele>
        <time>2021-02-07T08:46:26Z</time>
      </trkpt>
      <trkpt lat="45.31531" lon="4.43759">
        <ele>1127</ele>
        <time>2021-02-07T08:46:28Z</time>
      </trkpt>
      <trkpt lat="45.31535" lon="4.43758">
        <ele>1127</ele>
        <time>2021-02-07T08:46:31Z</time>
      </trkpt>
      <trkpt lat="45.3154" lon="4.43756">
        <ele>1127</ele>
        <time>2021-02-07T08:46:33Z</time>
      </trkpt>
      <trkpt lat="45.31549" lon="4.43753">
        <ele>1127</ele>
        <time>2021-02-07T08:46:37Z</time>
      </trkpt>
      <trkpt lat="45.31554" lon="4.4375">
        <ele>1126</ele>
        <time>2021-02-07T08:46:39Z</time>
      </trkpt>
      <trkpt lat="45.31558" lon="4.43748">
        <ele>1124</ele>
        <time>2021-02-07T08:46:41Z</time>
      </trkpt>
      <trkpt lat="45.3157" lon="4.43746">
        <ele>1124</ele>
        <time>2021-02-07T08:46:46Z</time>
      </trkpt>
      <trkpt lat="45.31583" lon="4.43741">
        <ele>1121</ele>
        <time>2021-02-07T08:46:51Z</time>
      </trkpt>
      <trkpt lat="45.31589" lon="4.43742">
        <ele>1121</ele>
        <time>2021-02-07T08:46:53Z</time>
      </trkpt>
      <trkpt lat="45.31594" lon="4.43743">
        <ele>1121</ele>
        <time>2021-02-07T08:46:56Z</time>
      </trkpt>
      <trkpt lat="45.31598" lon="4.43744">
        <ele>1120</ele>
        <time>2021-02-07T08:46:58Z</time>
      </trkpt>
      <trkpt lat="45.31602" lon="4.43745">
        <ele>1119</ele>
        <time>2021-02-07T08:47:01Z</time>
      </trkpt>
      <trkpt lat="45.31605" lon="4.43748">
        <ele>1120</ele>
        <time>2021-02-07T08:47:04Z</time>
      </trkpt>
      <trkpt lat="45.31609" lon="4.4375">
        <ele>1120</ele>
        <time>2021-02-07T08:47:07Z</time>
      </trkpt>
      <trkpt lat="45.31612" lon="4.43753">
        <ele>1120</ele>
        <time>2021-02-07T08:47:10Z</time>
      </trkpt>
      <trkpt lat="45.31614" lon="4.43758">
        <ele>1120</ele>
        <time>2021-02-07T08:47:13Z</time>
      </trkpt>
      <trkpt lat="45.31619" lon="4.43764">
        <ele>1121</ele>
        <time>2021-02-07T08:47:16Z</time>
      </trkpt>
      <trkpt lat="45.31621" lon="4.43768">
        <ele>1121</ele>
        <time>2021-02-07T08:47:18Z</time>
      </trkpt>
      <trkpt lat="45.31624" lon="4.43773">
        <ele>1120</ele>
        <time>2021-02-07T08:47:21Z</time>
      </trkpt>
      <trkpt lat="45.31626" lon="4.43779">
        <ele>1120</ele>
        <time>2021-02-07T08:47:24Z</time>
      </trkpt>
      <trkpt lat="45.31625" lon="4.43786">
        <ele>1121</ele>
        <time>2021-02-07T08:47:27Z</time>
      </trkpt>
      <trkpt lat="45.31624" lon="4.43792">
        <ele>1122</ele>
        <time>2021-02-07T08:47:30Z</time>
      </trkpt>
      <trkpt lat="45.31623" lon="4.43799">
        <ele>1122</ele>
        <time>2021-02-07T08:47:33Z</time>
      </trkpt>
      <trkpt lat="45.31622" lon="4.43804">
        <ele>1122</ele>
        <time>2021-02-07T08:47:36Z</time>
      </trkpt>
      <trkpt lat="45.31622" lon="4.43812">
        <ele>1123</ele>
        <time>2021-02-07T08:47:39Z</time>
      </trkpt>
      <trkpt lat="45.31623" lon="4.43819">
        <ele>1123</ele>
        <time>2021-02-07T08:47:42Z</time>
      </trkpt>
      <trkpt lat="45.31625" lon="4.43824">
        <ele>1124</ele>
        <time>2021-02-07T08:47:44Z</time>
      </trkpt>
      <trkpt lat="45.31627" lon="4.43831">
        <ele>1124</ele>
        <time>2021-02-07T08:47:47Z</time>
      </trkpt>
      <trkpt lat="45.31629" lon="4.43837">
        <ele>1124</ele>
        <time>2021-02-07T08:47:49Z</time>
      </trkpt>
      <trkpt lat="45.31631" lon="4.43842">
        <ele>1125</ele>
        <time>2021-02-07T08:47:51Z</time>
      </trkpt>
      <trkpt lat="45.31633" lon="4.43848">
        <ele>1126</ele>
        <time>2021-02-07T08:47:53Z</time>
      </trkpt>
      <trkpt lat="45.31634" lon="4.43853">
        <ele>1126</ele>
        <time>2021-02-07T08:47:55Z</time>
      </trkpt>
      <trkpt lat="45.31636" lon="4.43861">
        <ele>1126</ele>
        <time>2021-02-07T08:47:57Z</time>
      </trkpt>
      <trkpt lat="45.31639" lon="4.43866">
        <ele>1126</ele>
        <time>2021-02-07T08:47:59Z</time>
      </trkpt>
      <trkpt lat="45.31641" lon="4.43872">
        <ele>1127</ele>
        <time>2021-02-07T08:48:01Z</time>
      </trkpt>
      <trkpt lat="45.31644" lon="4.4388">
        <ele>1127</ele>
        <time>2021-02-07T08:48:04Z</time>
      </trkpt>
      <trkpt lat="45.31645" lon="4.43887">
        <ele>1127</ele>
        <time>2021-02-07T08:48:06Z</time>
      </trkpt>
      <trkpt lat="45.31647" lon="4.43893">
        <ele>1128</ele>
        <time>2021-02-07T08:48:08Z</time>
      </trkpt>
      <trkpt lat="45.3165" lon="4.439">
        <ele>1128</ele>
        <time>2021-02-07T08:48:10Z</time>
      </trkpt>
      <trkpt lat="45.31652" lon="4.43906">
        <ele>1128</ele>
        <time>2021-02-07T08:48:12Z</time>
      </trkpt>
      <trkpt lat="45.31653" lon="4.43912">
        <ele>1129</ele>
        <time>2021-02-07T08:48:14Z</time>
      </trkpt>
      <trkpt lat="45.31654" lon="4.43919">
        <ele>1129</ele>
        <time>2021-02-07T08:48:16Z</time>
      </trkpt>
      <trkpt lat="45.31655" lon="4.43924">
        <ele>1129</ele>
        <time>2021-02-07T08:48:18Z</time>
      </trkpt>
      <trkpt lat="45.31657" lon="4.4393">
        <ele>1129</ele>
        <time>2021-02-07T08:48:20Z</time>
      </trkpt>
      <trkpt lat="45.3166" lon="4.43936">
        <ele>1129</ele>
        <time>2021-02-07T08:48:22Z</time>
      </trkpt>
      <trkpt lat="45.31662" lon="4.43942">
        <ele>1128</ele>
        <time>2021-02-07T08:48:24Z</time>
      </trkpt>
      <trkpt lat="45.31665" lon="4.43947">
        <ele>1128</ele>
        <time>2021-02-07T08:48:26Z</time>
      </trkpt>
      <trkpt lat="45.31669" lon="4.43952">
        <ele>1129</ele>
        <time>2021-02-07T08:48:28Z</time>
      </trkpt>
      <trkpt lat="45.31672" lon="4.43958">
        <ele>1129</ele>
        <time>2021-02-07T08:48:30Z</time>
      </trkpt>
      <trkpt lat="45.31676" lon="4.43964">
        <ele>1129</ele>
        <time>2021-02-07T08:48:32Z</time>
      </trkpt>
      <trkpt lat="45.3168" lon="4.4397">
        <ele>1129</ele>
        <time>2021-02-07T08:48:34Z</time>
      </trkpt>
      <trkpt lat="45.31683" lon="4.43976">
        <ele>1129</ele>
        <time>2021-02-07T08:48:36Z</time>
      </trkpt>
      <trkpt lat="45.31687" lon="4.43981">
        <ele>1130</ele>
        <time>2021-02-07T08:48:38Z</time>
      </trkpt>
      <trkpt lat="45.31691" lon="4.43985">
        <ele>1129</ele>
        <time>2021-02-07T08:48:40Z</time>
      </trkpt>
      <trkpt lat="45.31695" lon="4.4399">
        <ele>1129</ele>
        <time>2021-02-07T08:48:42Z</time>
      </trkpt>
      <trkpt lat="45.31697" lon="4.43995">
        <ele>1129</ele>
        <time>2021-02-07T08:48:44Z</time>
      </trkpt>
      <trkpt lat="45.31699" lon="4.44">
        <ele>1129</ele>
        <time>2021-02-07T08:48:46Z</time>
      </trkpt>
      <trkpt lat="45.31702" lon="4.44005">
        <ele>1129</ele>
        <time>2021-02-07T08:48:48Z</time>
      </trkpt>
      <trkpt lat="45.31706" lon="4.4401">
        <ele>1130</ele>
        <time>2021-02-07T08:48:50Z</time>
      </trkpt>
      <trkpt lat="45.31709" lon="4.44015">
        <ele>1130</ele>
        <time>2021-02-07T08:48:52Z</time>
      </trkpt>
      <trkpt lat="45.31712" lon="4.4402">
        <ele>1129</ele>
        <time>2021-02-07T08:48:54Z</time>
      </trkpt>
      <trkpt lat="45.31714" lon="4.44024">
        <ele>1128</ele>
        <time>2021-02-07T08:48:56Z</time>
      </trkpt>
      <trkpt lat="45.31716" lon="4.44028">
        <ele>1128</ele>
        <time>2021-02-07T08:48:58Z</time>
      </trkpt>
      <trkpt lat="45.31718" lon="4.44035">
        <ele>1128</ele>
        <time>2021-02-07T08:49:01Z</time>
      </trkpt>
      <trkpt lat="45.31724" lon="4.44048">
        <ele>1128</ele>
        <time>2021-02-07T08:49:06Z</time>
      </trkpt>
      <trkpt lat="45.31729" lon="4.44061">
        <ele>1129</ele>
        <time>2021-02-07T08:49:11Z</time>
      </trkpt>
      <trkpt lat="45.31736" lon="4.44074">
        <ele>1129</ele>
        <time>2021-02-07T08:49:16Z</time>
      </trkpt>
      <trkpt lat="45.31743" lon="4.44086">
        <ele>1129</ele>
        <time>2021-02-07T08:49:21Z</time>
      </trkpt>
      <trkpt lat="45.31747" lon="4.44101">
        <ele>1129</ele>
        <time>2021-02-07T08:49:27Z</time>
      </trkpt>
      <trkpt lat="45.31753" lon="4.44117">
        <ele>1131</ele>
        <time>2021-02-07T08:49:33Z</time>
      </trkpt>
      <trkpt lat="45.31756" lon="4.44132">
        <ele>1132</ele>
        <time>2021-02-07T08:49:38Z</time>
      </trkpt>
      <trkpt lat="45.3176" lon="4.44147">
        <ele>1133</ele>
        <time>2021-02-07T08:49:44Z</time>
      </trkpt>
      <trkpt lat="45.31763" lon="4.44165">
        <ele>1133</ele>
        <time>2021-02-07T08:49:50Z</time>
      </trkpt>
      <trkpt lat="45.31769" lon="4.44181">
        <ele>1134</ele>
        <time>2021-02-07T08:49:56Z</time>
      </trkpt>
      <trkpt lat="45.31775" lon="4.44195">
        <ele>1134</ele>
        <time>2021-02-07T08:50:04Z</time>
      </trkpt>
      <trkpt lat="45.31775" lon="4.44211">
        <ele>1135</ele>
        <time>2021-02-07T08:50:11Z</time>
      </trkpt>
      <trkpt lat="45.31778" lon="4.44227">
        <ele>1135</ele>
        <time>2021-02-07T08:50:18Z</time>
      </trkpt>
      <trkpt lat="45.31781" lon="4.44243">
        <ele>1135</ele>
        <time>2021-02-07T08:50:23Z</time>
      </trkpt>
      <trkpt lat="45.31787" lon="4.44257">
        <ele>1136</ele>
        <time>2021-02-07T08:50:27Z</time>
      </trkpt>
      <trkpt lat="45.31794" lon="4.44274">
        <ele>1136</ele>
        <time>2021-02-07T08:50:31Z</time>
      </trkpt>
      <trkpt lat="45.31799" lon="4.44289">
        <ele>1137</ele>
        <time>2021-02-07T08:50:36Z</time>
      </trkpt>
      <trkpt lat="45.31804" lon="4.44303">
        <ele>1137</ele>
        <time>2021-02-07T08:50:41Z</time>
      </trkpt>
      <trkpt lat="45.3181" lon="4.44319">
        <ele>1137</ele>
        <time>2021-02-07T08:50:47Z</time>
      </trkpt>
      <trkpt lat="45.31814" lon="4.44332">
        <ele>1138</ele>
        <time>2021-02-07T08:50:52Z</time>
      </trkpt>
      <trkpt lat="45.31818" lon="4.44342">
        <ele>1138</ele>
        <time>2021-02-07T08:50:57Z</time>
      </trkpt>
      <trkpt lat="45.3182" lon="4.44347">
        <ele>1138</ele>
        <time>2021-02-07T08:51:00Z</time>
      </trkpt>
      <trkpt lat="45.31821" lon="4.44353">
        <ele>1138</ele>
        <time>2021-02-07T08:51:04Z</time>
      </trkpt>
      <trkpt lat="45.31824" lon="4.44365">
        <ele>1139</ele>
        <time>2021-02-07T08:51:13Z</time>
      </trkpt>
      <trkpt lat="45.3183" lon="4.4438">
        <ele>1139</ele>
        <time>2021-02-07T08:51:21Z</time>
      </trkpt>
      <trkpt lat="45.31837" lon="4.44392">
        <ele>1139</ele>
        <time>2021-02-07T08:51:27Z</time>
      </trkpt>
      <trkpt lat="45.31844" lon="4.44407">
        <ele>1139</ele>
        <time>2021-02-07T08:51:33Z</time>
      </trkpt>
      <trkpt lat="45.3185" lon="4.4442">
        <ele>1140</ele>
        <time>2021-02-07T08:51:44Z</time>
      </trkpt>
      <trkpt lat="45.3185" lon="4.44427">
        <ele>1140</ele>
        <time>2021-02-07T08:51:51Z</time>
      </trkpt>
      <trkpt lat="45.31856" lon="4.44443">
        <ele>1140</ele>
        <time>2021-02-07T08:52:00Z</time>
      </trkpt>
      <trkpt lat="45.3186" lon="4.44458">
        <ele>1141</ele>
        <time>2021-02-07T08:52:07Z</time>
      </trkpt>
      <trkpt lat="45.31862" lon="4.44474">
        <ele>1141</ele>
        <time>2021-02-07T08:52:15Z</time>
      </trkpt>
      <trkpt lat="45.31864" lon="4.4449">
        <ele>1143</ele>
        <time>2021-02-07T08:52:24Z</time>
      </trkpt>
      <trkpt lat="45.31867" lon="4.44507">
        <ele>1144</ele>
        <time>2021-02-07T08:52:35Z</time>
      </trkpt>
      <trkpt lat="45.31873" lon="4.44523">
        <ele>1144</ele>
        <time>2021-02-07T08:52:41Z</time>
      </trkpt>
      <trkpt lat="45.31875" lon="4.44529">
        <ele>1145</ele>
        <time>2021-02-07T08:52:44Z</time>
      </trkpt>
      <trkpt lat="45.31883" lon="4.4454">
        <ele>1145</ele>
        <time>2021-02-07T08:52:52Z</time>
      </trkpt>
      <trkpt lat="45.31888" lon="4.44554">
        <ele>1145</ele>
        <time>2021-02-07T08:52:59Z</time>
      </trkpt>
      <trkpt lat="45.31894" lon="4.44568">
        <ele>1147</ele>
        <time>2021-02-07T08:53:06Z</time>
      </trkpt>
      <trkpt lat="45.31898" lon="4.44582">
        <ele>1146</ele>
        <time>2021-02-07T08:53:15Z</time>
      </trkpt>
      <trkpt lat="45.319" lon="4.44598">
        <ele>1148</ele>
        <time>2021-02-07T08:53:21Z</time>
      </trkpt>
      <trkpt lat="45.31899" lon="4.44609">
        <ele>1148</ele>
        <time>2021-02-07T08:53:25Z</time>
      </trkpt>
      <trkpt lat="45.31901" lon="4.44615">
        <ele>1148</ele>
        <time>2021-02-07T08:53:29Z</time>
      </trkpt>
      <trkpt lat="45.31903" lon="4.44619">
        <ele>1149</ele>
        <time>2021-02-07T08:53:33Z</time>
      </trkpt>
      <trkpt lat="45.31903" lon="4.44632">
        <ele>1150</ele>
        <time>2021-02-07T08:53:41Z</time>
      </trkpt>
      <trkpt lat="45.31902" lon="4.44638">
        <ele>1150</ele>
        <time>2021-02-07T08:53:44Z</time>
      </trkpt>
      <trkpt lat="45.319" lon="4.44644">
        <ele>1150</ele>
        <time>2021-02-07T08:53:47Z</time>
      </trkpt>
      <trkpt lat="45.31899" lon="4.4465">
        <ele>1151</ele>
        <time>2021-02-07T08:53:50Z</time>
      </trkpt>
      <trkpt lat="45.31901" lon="4.44655">
        <ele>1152</ele>
        <time>2021-02-07T08:53:54Z</time>
      </trkpt>
      <trkpt lat="45.31903" lon="4.44664">
        <ele>1152</ele>
        <time>2021-02-07T08:54:00Z</time>
      </trkpt>
      <trkpt lat="45.31903" lon="4.4467">
        <ele>1153</ele>
        <time>2021-02-07T08:54:03Z</time>
      </trkpt>
      <trkpt lat="45.31904" lon="4.44675">
        <ele>1153</ele>
        <time>2021-02-07T08:54:06Z</time>
      </trkpt>
      <trkpt lat="45.31905" lon="4.44682">
        <ele>1153</ele>
        <time>2021-02-07T08:54:09Z</time>
      </trkpt>
      <trkpt lat="45.31907" lon="4.44688">
        <ele>1154</ele>
        <time>2021-02-07T08:54:12Z</time>
      </trkpt>
      <trkpt lat="45.31907" lon="4.44694">
        <ele>1155</ele>
        <time>2021-02-07T08:54:16Z</time>
      </trkpt>
      <trkpt lat="45.31909" lon="4.44705">
        <ele>1156</ele>
        <time>2021-02-07T08:54:24Z</time>
      </trkpt>
      <trkpt lat="45.31909" lon="4.44721">
        <ele>1157</ele>
        <time>2021-02-07T08:54:32Z</time>
      </trkpt>
      <trkpt lat="45.31913" lon="4.44728">
        <ele>1157</ele>
        <time>2021-02-07T08:54:37Z</time>
      </trkpt>
      <trkpt lat="45.31916" lon="4.44738">
        <ele>1158</ele>
        <time>2021-02-07T08:54:41Z</time>
      </trkpt>
      <trkpt lat="45.31916" lon="4.44743">
        <ele>1158</ele>
        <time>2021-02-07T08:54:43Z</time>
      </trkpt>
      <trkpt lat="45.31915" lon="4.44756">
        <ele>1159</ele>
        <time>2021-02-07T08:54:49Z</time>
      </trkpt>
      <trkpt lat="45.31914" lon="4.44762">
        <ele>1159</ele>
        <time>2021-02-07T08:54:52Z</time>
      </trkpt>
      <trkpt lat="45.31914" lon="4.44768">
        <ele>1160</ele>
        <time>2021-02-07T08:54:55Z</time>
      </trkpt>
      <trkpt lat="45.31913" lon="4.44773">
        <ele>1160</ele>
        <time>2021-02-07T08:54:58Z</time>
      </trkpt>
      <trkpt lat="45.3191" lon="4.44778">
        <ele>1161</ele>
        <time>2021-02-07T08:55:01Z</time>
      </trkpt>
      <trkpt lat="45.31908" lon="4.44783">
        <ele>1161</ele>
        <time>2021-02-07T08:55:04Z</time>
      </trkpt>
      <trkpt lat="45.31905" lon="4.44786">
        <ele>1162</ele>
        <time>2021-02-07T08:55:26Z</time>
      </trkpt>
      <trkpt lat="45.31902" lon="4.44785">
        <ele>1162</ele>
        <time>2021-02-07T08:55:28Z</time>
      </trkpt>
      <trkpt lat="45.31898" lon="4.44783">
        <ele>1162</ele>
        <time>2021-02-07T08:55:30Z</time>
      </trkpt>
      <trkpt lat="45.31894" lon="4.44781">
        <ele>1162</ele>
        <time>2021-02-07T08:55:32Z</time>
      </trkpt>
      <trkpt lat="45.3189" lon="4.44778">
        <ele>1162</ele>
        <time>2021-02-07T08:55:34Z</time>
      </trkpt>
      <trkpt lat="45.31886" lon="4.44777">
        <ele>1162</ele>
        <time>2021-02-07T08:55:36Z</time>
      </trkpt>
      <trkpt lat="45.31882" lon="4.44774">
        <ele>1162</ele>
        <time>2021-02-07T08:55:39Z</time>
      </trkpt>
      <trkpt lat="45.31879" lon="4.44771">
        <ele>1163</ele>
        <time>2021-02-07T08:55:43Z</time>
      </trkpt>
      <trkpt lat="45.31875" lon="4.44769">
        <ele>1164</ele>
        <time>2021-02-07T08:55:46Z</time>
      </trkpt>
      <trkpt lat="45.31871" lon="4.44767">
        <ele>1165</ele>
        <time>2021-02-07T08:55:49Z</time>
      </trkpt>
      <trkpt lat="45.31867" lon="4.44765">
        <ele>1166</ele>
        <time>2021-02-07T08:55:54Z</time>
      </trkpt>
      <trkpt lat="45.31863" lon="4.44764">
        <ele>1166</ele>
        <time>2021-02-07T08:55:57Z</time>
      </trkpt>
      <trkpt lat="45.31858" lon="4.44763">
        <ele>1167</ele>
        <time>2021-02-07T08:56:00Z</time>
      </trkpt>
      <trkpt lat="45.31854" lon="4.44764">
        <ele>1167</ele>
        <time>2021-02-07T08:56:03Z</time>
      </trkpt>
      <trkpt lat="45.3185" lon="4.44762">
        <ele>1168</ele>
        <time>2021-02-07T08:56:08Z</time>
      </trkpt>
      <trkpt lat="45.31846" lon="4.44761">
        <ele>1169</ele>
        <time>2021-02-07T08:56:11Z</time>
      </trkpt>
      <trkpt lat="45.31843" lon="4.44757">
        <ele>1169</ele>
        <time>2021-02-07T08:56:14Z</time>
      </trkpt>
      <trkpt lat="45.3184" lon="4.44752">
        <ele>1169</ele>
        <time>2021-02-07T08:56:17Z</time>
      </trkpt>
      <trkpt lat="45.31837" lon="4.44749">
        <ele>1170</ele>
        <time>2021-02-07T08:56:19Z</time>
      </trkpt>
      <trkpt lat="45.31833" lon="4.44746">
        <ele>1170</ele>
        <time>2021-02-07T08:56:21Z</time>
      </trkpt>
      <trkpt lat="45.31831" lon="4.44742">
        <ele>1169</ele>
        <time>2021-02-07T08:56:23Z</time>
      </trkpt>
      <trkpt lat="45.31828" lon="4.44738">
        <ele>1170</ele>
        <time>2021-02-07T08:56:27Z</time>
      </trkpt>
      <trkpt lat="45.31824" lon="4.44735">
        <ele>1170</ele>
        <time>2021-02-07T08:56:32Z</time>
      </trkpt>
      <trkpt lat="45.3182" lon="4.44733">
        <ele>1170</ele>
        <time>2021-02-07T08:56:36Z</time>
      </trkpt>
      <trkpt lat="45.31816" lon="4.44731">
        <ele>1171</ele>
        <time>2021-02-07T08:56:40Z</time>
      </trkpt>
      <trkpt lat="45.31812" lon="4.4473">
        <ele>1173</ele>
        <time>2021-02-07T08:56:45Z</time>
      </trkpt>
      <trkpt lat="45.31807" lon="4.4473">
        <ele>1173</ele>
        <time>2021-02-07T08:56:48Z</time>
      </trkpt>
      <trkpt lat="45.31804" lon="4.44729">
        <ele>1174</ele>
        <time>2021-02-07T08:56:51Z</time>
      </trkpt>
      <trkpt lat="45.318" lon="4.4473">
        <ele>1175</ele>
        <time>2021-02-07T08:56:55Z</time>
      </trkpt>
      <trkpt lat="45.31796" lon="4.44732">
        <ele>1175</ele>
        <time>2021-02-07T08:57:00Z</time>
      </trkpt>
      <trkpt lat="45.31792" lon="4.44733">
        <ele>1176</ele>
        <time>2021-02-07T08:57:03Z</time>
      </trkpt>
      <trkpt lat="45.31789" lon="4.44732">
        <ele>1177</ele>
        <time>2021-02-07T08:57:09Z</time>
      </trkpt>
      <trkpt lat="45.31785" lon="4.44731">
        <ele>1178</ele>
        <time>2021-02-07T08:57:23Z</time>
      </trkpt>
      <trkpt lat="45.3178" lon="4.44728">
        <ele>1178</ele>
        <time>2021-02-07T08:57:50Z</time>
      </trkpt>
      <trkpt lat="45.31776" lon="4.44728">
        <ele>1179</ele>
        <time>2021-02-07T08:57:54Z</time>
      </trkpt>
      <trkpt lat="45.31772" lon="4.44727">
        <ele>1180</ele>
        <time>2021-02-07T08:57:57Z</time>
      </trkpt>
      <trkpt lat="45.3176" lon="4.44728">
        <ele>1183</ele>
        <time>2021-02-07T08:58:04Z</time>
      </trkpt>
      <trkpt lat="45.31749" lon="4.44729">
        <ele>1185</ele>
        <time>2021-02-07T08:58:11Z</time>
      </trkpt>
      <trkpt lat="45.31745" lon="4.44729">
        <ele>1186</ele>
        <time>2021-02-07T08:58:16Z</time>
      </trkpt>
      <trkpt lat="45.3174" lon="4.44728">
        <ele>1188</ele>
        <time>2021-02-07T08:58:20Z</time>
      </trkpt>
      <trkpt lat="45.31736" lon="4.44728">
        <ele>1189</ele>
        <time>2021-02-07T08:58:26Z</time>
      </trkpt>
      <trkpt lat="45.31735" lon="4.44723">
        <ele>1189</ele>
        <time>2021-02-07T08:58:43Z</time>
      </trkpt>
      <trkpt lat="45.31731" lon="4.44724">
        <ele>1190</ele>
        <time>2021-02-07T08:58:58Z</time>
      </trkpt>
      <trkpt lat="45.31728" lon="4.44722">
        <ele>1190</ele>
        <time>2021-02-07T08:59:03Z</time>
      </trkpt>
      <trkpt lat="45.31724" lon="4.44721">
        <ele>1191</ele>
        <time>2021-02-07T08:59:06Z</time>
      </trkpt>
      <trkpt lat="45.31721" lon="4.44719">
        <ele>1192</ele>
        <time>2021-02-07T08:59:10Z</time>
      </trkpt>
      <trkpt lat="45.31716" lon="4.44718">
        <ele>1193</ele>
        <time>2021-02-07T08:59:14Z</time>
      </trkpt>
      <trkpt lat="45.31713" lon="4.44717">
        <ele>1195</ele>
        <time>2021-02-07T08:59:18Z</time>
      </trkpt>
      <trkpt lat="45.31703" lon="4.44718">
        <ele>1197</ele>
        <time>2021-02-07T08:59:28Z</time>
      </trkpt>
      <trkpt lat="45.31699" lon="4.44717">
        <ele>1197</ele>
        <time>2021-02-07T08:59:31Z</time>
      </trkpt>
      <trkpt lat="45.31697" lon="4.44711">
        <ele>1198</ele>
        <time>2021-02-07T08:59:34Z</time>
      </trkpt>
      <trkpt lat="45.31695" lon="4.44706">
        <ele>1198</ele>
        <time>2021-02-07T08:59:36Z</time>
      </trkpt>
      <trkpt lat="45.31692" lon="4.44701">
        <ele>1199</ele>
        <time>2021-02-07T08:59:39Z</time>
      </trkpt>
      <trkpt lat="45.31688" lon="4.44698">
        <ele>1199</ele>
        <time>2021-02-07T08:59:42Z</time>
      </trkpt>
      <trkpt lat="45.31687" lon="4.44693">
        <ele>1200</ele>
        <time>2021-02-07T08:59:46Z</time>
      </trkpt>
      <trkpt lat="45.31685" lon="4.44686">
        <ele>1200</ele>
        <time>2021-02-07T08:59:52Z</time>
      </trkpt>
      <trkpt lat="45.31684" lon="4.4468">
        <ele>1200</ele>
        <time>2021-02-07T08:59:54Z</time>
      </trkpt>
      <trkpt lat="45.31681" lon="4.44665">
        <ele>1200</ele>
        <time>2021-02-07T09:00:01Z</time>
      </trkpt>
      <trkpt lat="45.31682" lon="4.44657">
        <ele>1201</ele>
        <time>2021-02-07T09:00:05Z</time>
      </trkpt>
      <trkpt lat="45.31675" lon="4.44644">
        <ele>1202</ele>
        <time>2021-02-07T09:00:12Z</time>
      </trkpt>
      <trkpt lat="45.31669" lon="4.44633">
        <ele>1203</ele>
        <time>2021-02-07T09:00:18Z</time>
      </trkpt>
      <trkpt lat="45.31668" lon="4.44628">
        <ele>1202</ele>
        <time>2021-02-07T09:00:22Z</time>
      </trkpt>
      <trkpt lat="45.31668" lon="4.44622">
        <ele>1201</ele>
        <time>2021-02-07T09:00:25Z</time>
      </trkpt>
      <trkpt lat="45.31666" lon="4.44617">
        <ele>1201</ele>
        <time>2021-02-07T09:00:28Z</time>
      </trkpt>
      <trkpt lat="45.31663" lon="4.44613">
        <ele>1201</ele>
        <time>2021-02-07T09:00:35Z</time>
      </trkpt>
      <trkpt lat="45.31659" lon="4.4461">
        <ele>1200</ele>
        <time>2021-02-07T09:01:16Z</time>
      </trkpt>
      <trkpt lat="45.31655" lon="4.44608">
        <ele>1200</ele>
        <time>2021-02-07T09:01:18Z</time>
      </trkpt>
      <trkpt lat="45.31651" lon="4.44605">
        <ele>1200</ele>
        <time>2021-02-07T09:01:21Z</time>
      </trkpt>
      <trkpt lat="45.31649" lon="4.44601">
        <ele>1200</ele>
        <time>2021-02-07T09:01:23Z</time>
      </trkpt>
      <trkpt lat="45.31647" lon="4.44596">
        <ele>1200</ele>
        <time>2021-02-07T09:01:25Z</time>
      </trkpt>
      <trkpt lat="45.31645" lon="4.4459">
        <ele>1199</ele>
        <time>2021-02-07T09:01:27Z</time>
      </trkpt>
      <trkpt lat="45.31644" lon="4.44584">
        <ele>1199</ele>
        <time>2021-02-07T09:01:29Z</time>
      </trkpt>
      <trkpt lat="45.31642" lon="4.44578">
        <ele>1198</ele>
        <time>2021-02-07T09:01:31Z</time>
      </trkpt>
      <trkpt lat="45.31639" lon="4.44571">
        <ele>1198</ele>
        <time>2021-02-07T09:01:33Z</time>
      </trkpt>
      <trkpt lat="45.31635" lon="4.44567">
        <ele>1198</ele>
        <time>2021-02-07T09:01:35Z</time>
      </trkpt>
      <trkpt lat="45.31629" lon="4.44559">
        <ele>1198</ele>
        <time>2021-02-07T09:01:38Z</time>
      </trkpt>
      <trkpt lat="45.31625" lon="4.44554">
        <ele>1198</ele>
        <time>2021-02-07T09:01:40Z</time>
      </trkpt>
      <trkpt lat="45.31619" lon="4.44551">
        <ele>1198</ele>
        <time>2021-02-07T09:01:42Z</time>
      </trkpt>
      <trkpt lat="45.31614" lon="4.44549">
        <ele>1199</ele>
        <time>2021-02-07T09:01:44Z</time>
      </trkpt>
      <trkpt lat="45.3161" lon="4.44548">
        <ele>1200</ele>
        <time>2021-02-07T09:01:46Z</time>
      </trkpt>
      <trkpt lat="45.31605" lon="4.44546">
        <ele>1201</ele>
        <time>2021-02-07T09:01:48Z</time>
      </trkpt>
      <trkpt lat="45.31602" lon="4.44543">
        <ele>1201</ele>
        <time>2021-02-07T09:01:50Z</time>
      </trkpt>
      <trkpt lat="45.31598" lon="4.4454">
        <ele>1202</ele>
        <time>2021-02-07T09:01:52Z</time>
      </trkpt>
      <trkpt lat="45.31594" lon="4.4454">
        <ele>1202</ele>
        <time>2021-02-07T09:01:54Z</time>
      </trkpt>
      <trkpt lat="45.31589" lon="4.44538">
        <ele>1201</ele>
        <time>2021-02-07T09:01:57Z</time>
      </trkpt>
      <trkpt lat="45.31585" lon="4.44539">
        <ele>1201</ele>
        <time>2021-02-07T09:01:59Z</time>
      </trkpt>
      <trkpt lat="45.31581" lon="4.44538">
        <ele>1202</ele>
        <time>2021-02-07T09:02:01Z</time>
      </trkpt>
      <trkpt lat="45.31578" lon="4.44534">
        <ele>1203</ele>
        <time>2021-02-07T09:02:04Z</time>
      </trkpt>
      <trkpt lat="45.31575" lon="4.44529">
        <ele>1204</ele>
        <time>2021-02-07T09:02:07Z</time>
      </trkpt>
      <trkpt lat="45.31571" lon="4.44526">
        <ele>1204</ele>
        <time>2021-02-07T09:02:08Z</time>
      </trkpt>
      <trkpt lat="45.31569" lon="4.44522">
        <ele>1204</ele>
        <time>2021-02-07T09:02:11Z</time>
      </trkpt>
      <trkpt lat="45.31566" lon="4.44517">
        <ele>1205</ele>
        <time>2021-02-07T09:02:13Z</time>
      </trkpt>
      <trkpt lat="45.31563" lon="4.44512">
        <ele>1205</ele>
        <time>2021-02-07T09:02:15Z</time>
      </trkpt>
      <trkpt lat="45.31559" lon="4.44508">
        <ele>1205</ele>
        <time>2021-02-07T09:02:17Z</time>
      </trkpt>
      <trkpt lat="45.31557" lon="4.44504">
        <ele>1205</ele>
        <time>2021-02-07T09:02:19Z</time>
      </trkpt>
      <trkpt lat="45.31554" lon="4.44501">
        <ele>1204</ele>
        <time>2021-02-07T09:02:21Z</time>
      </trkpt>
      <trkpt lat="45.3155" lon="4.44497">
        <ele>1204</ele>
        <time>2021-02-07T09:02:24Z</time>
      </trkpt>
      <trkpt lat="45.31546" lon="4.44495">
        <ele>1206</ele>
        <time>2021-02-07T09:02:26Z</time>
      </trkpt>
      <trkpt lat="45.31543" lon="4.44493">
        <ele>1207</ele>
        <time>2021-02-07T09:02:29Z</time>
      </trkpt>
      <trkpt lat="45.31538" lon="4.44491">
        <ele>1207</ele>
        <time>2021-02-07T09:02:32Z</time>
      </trkpt>
      <trkpt lat="45.31534" lon="4.44489">
        <ele>1207</ele>
        <time>2021-02-07T09:02:35Z</time>
      </trkpt>
      <trkpt lat="45.3153" lon="4.44487">
        <ele>1208</ele>
        <time>2021-02-07T09:02:38Z</time>
      </trkpt>
      <trkpt lat="45.31526" lon="4.44487">
        <ele>1208</ele>
        <time>2021-02-07T09:02:41Z</time>
      </trkpt>
      <trkpt lat="45.31522" lon="4.44487">
        <ele>1209</ele>
        <time>2021-02-07T09:02:45Z</time>
      </trkpt>
      <trkpt lat="45.31518" lon="4.44486">
        <ele>1209</ele>
        <time>2021-02-07T09:02:48Z</time>
      </trkpt>
      <trkpt lat="45.31514" lon="4.44485">
        <ele>1210</ele>
        <time>2021-02-07T09:02:51Z</time>
      </trkpt>
      <trkpt lat="45.31511" lon="4.44486">
        <ele>1211</ele>
        <time>2021-02-07T09:02:54Z</time>
      </trkpt>
      <trkpt lat="45.31507" lon="4.44486">
        <ele>1211</ele>
        <time>2021-02-07T09:02:57Z</time>
      </trkpt>
      <trkpt lat="45.31502" lon="4.44485">
        <ele>1211</ele>
        <time>2021-02-07T09:03:01Z</time>
      </trkpt>
      <trkpt lat="45.31499" lon="4.44483">
        <ele>1212</ele>
        <time>2021-02-07T09:03:05Z</time>
      </trkpt>
      <trkpt lat="45.31494" lon="4.44482">
        <ele>1211</ele>
        <time>2021-02-07T09:03:09Z</time>
      </trkpt>
      <trkpt lat="45.3149" lon="4.44482">
        <ele>1211</ele>
        <time>2021-02-07T09:03:12Z</time>
      </trkpt>
      <trkpt lat="45.31486" lon="4.44483">
        <ele>1211</ele>
        <time>2021-02-07T09:03:15Z</time>
      </trkpt>
      <trkpt lat="45.31482" lon="4.44483">
        <ele>1211</ele>
        <time>2021-02-07T09:03:18Z</time>
      </trkpt>
      <trkpt lat="45.31478" lon="4.44483">
        <ele>1211</ele>
        <time>2021-02-07T09:03:21Z</time>
      </trkpt>
      <trkpt lat="45.31474" lon="4.44483">
        <ele>1211</ele>
        <time>2021-02-07T09:03:24Z</time>
      </trkpt>
      <trkpt lat="45.31469" lon="4.44482">
        <ele>1211</ele>
        <time>2021-02-07T09:03:32Z</time>
      </trkpt>
      <trkpt lat="45.31465" lon="4.44481">
        <ele>1211</ele>
        <time>2021-02-07T09:03:35Z</time>
      </trkpt>
      <trkpt lat="45.31461" lon="4.4448">
        <ele>1211</ele>
        <time>2021-02-07T09:03:37Z</time>
      </trkpt>
      <trkpt lat="45.31456" lon="4.4448">
        <ele>1211</ele>
        <time>2021-02-07T09:03:39Z</time>
      </trkpt>
      <trkpt lat="45.31452" lon="4.4448">
        <ele>1211</ele>
        <time>2021-02-07T09:03:41Z</time>
      </trkpt>
      <trkpt lat="45.31447" lon="4.4448">
        <ele>1211</ele>
        <time>2021-02-07T09:03:43Z</time>
      </trkpt>
      <trkpt lat="45.31443" lon="4.44481">
        <ele>1212</ele>
        <time>2021-02-07T09:03:46Z</time>
      </trkpt>
      <trkpt lat="45.31439" lon="4.44481">
        <ele>1212</ele>
        <time>2021-02-07T09:03:48Z</time>
      </trkpt>
      <trkpt lat="45.31434" lon="4.4448">
        <ele>1213</ele>
        <time>2021-02-07T09:03:51Z</time>
      </trkpt>
      <trkpt lat="45.31426" lon="4.4448">
        <ele>1213</ele>
        <time>2021-02-07T09:03:54Z</time>
      </trkpt>
      <trkpt lat="45.31421" lon="4.44482">
        <ele>1213</ele>
        <time>2021-02-07T09:03:56Z</time>
      </trkpt>
      <trkpt lat="45.31415" lon="4.44484">
        <ele>1213</ele>
        <time>2021-02-07T09:03:58Z</time>
      </trkpt>
      <trkpt lat="45.3141" lon="4.44484">
        <ele>1213</ele>
        <time>2021-02-07T09:04:00Z</time>
      </trkpt>
      <trkpt lat="45.31405" lon="4.44485">
        <ele>1214</ele>
        <time>2021-02-07T09:04:02Z</time>
      </trkpt>
      <trkpt lat="45.31399" lon="4.44485">
        <ele>1214</ele>
        <time>2021-02-07T09:04:04Z</time>
      </trkpt>
      <trkpt lat="45.31394" lon="4.44486">
        <ele>1214</ele>
        <time>2021-02-07T09:04:06Z</time>
      </trkpt>
      <trkpt lat="45.3139" lon="4.44487">
        <ele>1214</ele>
        <time>2021-02-07T09:04:08Z</time>
      </trkpt>
      <trkpt lat="45.31386" lon="4.44487">
        <ele>1214</ele>
        <time>2021-02-07T09:04:10Z</time>
      </trkpt>
      <trkpt lat="45.31382" lon="4.44487">
        <ele>1214</ele>
        <time>2021-02-07T09:04:12Z</time>
      </trkpt>
      <trkpt lat="45.31377" lon="4.44489">
        <ele>1214</ele>
        <time>2021-02-07T09:04:14Z</time>
      </trkpt>
      <trkpt lat="45.31373" lon="4.44489">
        <ele>1215</ele>
        <time>2021-02-07T09:04:16Z</time>
      </trkpt>
      <trkpt lat="45.31368" lon="4.4449">
        <ele>1215</ele>
        <time>2021-02-07T09:04:18Z</time>
      </trkpt>
      <trkpt lat="45.31363" lon="4.44492">
        <ele>1216</ele>
        <time>2021-02-07T09:04:20Z</time>
      </trkpt>
      <trkpt lat="45.31359" lon="4.44493">
        <ele>1216</ele>
        <time>2021-02-07T09:04:22Z</time>
      </trkpt>
      <trkpt lat="45.31355" lon="4.44494">
        <ele>1216</ele>
        <time>2021-02-07T09:04:24Z</time>
      </trkpt>
      <trkpt lat="45.31351" lon="4.44495">
        <ele>1216</ele>
        <time>2021-02-07T09:04:26Z</time>
      </trkpt>
      <trkpt lat="45.31347" lon="4.44496">
        <ele>1216</ele>
        <time>2021-02-07T09:04:28Z</time>
      </trkpt>
      <trkpt lat="45.31343" lon="4.44497">
        <ele>1217</ele>
        <time>2021-02-07T09:04:32Z</time>
      </trkpt>
      <trkpt lat="45.3134" lon="4.44499">
        <ele>1217</ele>
        <time>2021-02-07T09:04:35Z</time>
      </trkpt>
      <trkpt lat="45.31337" lon="4.44503">
        <ele>1217</ele>
        <time>2021-02-07T09:04:38Z</time>
      </trkpt>
      <trkpt lat="45.31333" lon="4.44503">
        <ele>1217</ele>
        <time>2021-02-07T09:04:42Z</time>
      </trkpt>
      <trkpt lat="45.31329" lon="4.44504">
        <ele>1218</ele>
        <time>2021-02-07T09:04:46Z</time>
      </trkpt>
      <trkpt lat="45.31325" lon="4.44505">
        <ele>1217</ele>
        <time>2021-02-07T09:04:50Z</time>
      </trkpt>
      <trkpt lat="45.31321" lon="4.44507">
        <ele>1217</ele>
        <time>2021-02-07T09:04:54Z</time>
      </trkpt>
      <trkpt lat="45.31316" lon="4.4451">
        <ele>1217</ele>
        <time>2021-02-07T09:04:57Z</time>
      </trkpt>
      <trkpt lat="45.31313" lon="4.44512">
        <ele>1217</ele>
        <time>2021-02-07T09:04:59Z</time>
      </trkpt>
      <trkpt lat="45.31309" lon="4.44514">
        <ele>1218</ele>
        <time>2021-02-07T09:05:01Z</time>
      </trkpt>
      <trkpt lat="45.31304" lon="4.44518">
        <ele>1218</ele>
        <time>2021-02-07T09:05:04Z</time>
      </trkpt>
      <trkpt lat="45.31302" lon="4.44522">
        <ele>1218</ele>
        <time>2021-02-07T09:05:07Z</time>
      </trkpt>
      <trkpt lat="45.31299" lon="4.44526">
        <ele>1218</ele>
        <time>2021-02-07T09:05:14Z</time>
      </trkpt>
      <trkpt lat="45.31294" lon="4.44524">
        <ele>1218</ele>
        <time>2021-02-07T09:05:43Z</time>
      </trkpt>
      <trkpt lat="45.3129" lon="4.4452">
        <ele>1218</ele>
        <time>2021-02-07T09:05:46Z</time>
      </trkpt>
      <trkpt lat="45.31286" lon="4.44516">
        <ele>1217</ele>
        <time>2021-02-07T09:05:48Z</time>
      </trkpt>
      <trkpt lat="45.31282" lon="4.44513">
        <ele>1217</ele>
        <time>2021-02-07T09:05:50Z</time>
      </trkpt>
      <trkpt lat="45.31278" lon="4.44509">
        <ele>1217</ele>
        <time>2021-02-07T09:05:52Z</time>
      </trkpt>
      <trkpt lat="45.31274" lon="4.44505">
        <ele>1217</ele>
        <time>2021-02-07T09:05:54Z</time>
      </trkpt>
      <trkpt lat="45.3127" lon="4.44502">
        <ele>1217</ele>
        <time>2021-02-07T09:05:58Z</time>
      </trkpt>
      <trkpt lat="45.31266" lon="4.44502">
        <ele>1217</ele>
        <time>2021-02-07T09:06:01Z</time>
      </trkpt>
      <trkpt lat="45.31262" lon="4.44502">
        <ele>1217</ele>
        <time>2021-02-07T09:06:04Z</time>
      </trkpt>
      <trkpt lat="45.31258" lon="4.445">
        <ele>1217</ele>
        <time>2021-02-07T09:06:07Z</time>
      </trkpt>
      <trkpt lat="45.31255" lon="4.44495">
        <ele>1216</ele>
        <time>2021-02-07T09:06:10Z</time>
      </trkpt>
      <trkpt lat="45.31253" lon="4.44488">
        <ele>1217</ele>
        <time>2021-02-07T09:06:13Z</time>
      </trkpt>
      <trkpt lat="45.3125" lon="4.44485">
        <ele>1217</ele>
        <time>2021-02-07T09:06:15Z</time>
      </trkpt>
      <trkpt lat="45.31247" lon="4.44482">
        <ele>1217</ele>
        <time>2021-02-07T09:06:17Z</time>
      </trkpt>
      <trkpt lat="45.31242" lon="4.4448">
        <ele>1218</ele>
        <time>2021-02-07T09:06:20Z</time>
      </trkpt>
      <trkpt lat="45.31238" lon="4.44479">
        <ele>1219</ele>
        <time>2021-02-07T09:06:23Z</time>
      </trkpt>
      <trkpt lat="45.31233" lon="4.44477">
        <ele>1219</ele>
        <time>2021-02-07T09:06:26Z</time>
      </trkpt>
      <trkpt lat="45.31229" lon="4.44473">
        <ele>1220</ele>
        <time>2021-02-07T09:06:29Z</time>
      </trkpt>
      <trkpt lat="45.31226" lon="4.44468">
        <ele>1220</ele>
        <time>2021-02-07T09:06:31Z</time>
      </trkpt>
      <trkpt lat="45.31224" lon="4.44463">
        <ele>1220</ele>
        <time>2021-02-07T09:06:33Z</time>
      </trkpt>
      <trkpt lat="45.3122" lon="4.44459">
        <ele>1220</ele>
        <time>2021-02-07T09:06:34Z</time>
      </trkpt>
      <trkpt lat="45.31216" lon="4.44455">
        <ele>1221</ele>
        <time>2021-02-07T09:06:37Z</time>
      </trkpt>
      <trkpt lat="45.31212" lon="4.44452">
        <ele>1221</ele>
        <time>2021-02-07T09:06:39Z</time>
      </trkpt>
      <trkpt lat="45.31208" lon="4.44448">
        <ele>1221</ele>
        <time>2021-02-07T09:06:41Z</time>
      </trkpt>
      <trkpt lat="45.31205" lon="4.44445">
        <ele>1221</ele>
        <time>2021-02-07T09:06:43Z</time>
      </trkpt>
      <trkpt lat="45.31202" lon="4.44442">
        <ele>1222</ele>
        <time>2021-02-07T09:06:46Z</time>
      </trkpt>
      <trkpt lat="45.31199" lon="4.44437">
        <ele>1222</ele>
        <time>2021-02-07T09:06:49Z</time>
      </trkpt>
      <trkpt lat="45.31198" lon="4.44432">
        <ele>1222</ele>
        <time>2021-02-07T09:06:52Z</time>
      </trkpt>
      <trkpt lat="45.31195" lon="4.44427">
        <ele>1222</ele>
        <time>2021-02-07T09:06:55Z</time>
      </trkpt>
      <trkpt lat="45.31192" lon="4.44425">
        <ele>1223</ele>
        <time>2021-02-07T09:06:58Z</time>
      </trkpt>
      <trkpt lat="45.31188" lon="4.44422">
        <ele>1222</ele>
        <time>2021-02-07T09:07:02Z</time>
      </trkpt>
      <trkpt lat="45.31185" lon="4.44419">
        <ele>1223</ele>
        <time>2021-02-07T09:07:06Z</time>
      </trkpt>
      <trkpt lat="45.31182" lon="4.44414">
        <ele>1223</ele>
        <time>2021-02-07T09:07:09Z</time>
      </trkpt>
      <trkpt lat="45.31179" lon="4.4441">
        <ele>1224</ele>
        <time>2021-02-07T09:07:12Z</time>
      </trkpt>
      <trkpt lat="45.31176" lon="4.44405">
        <ele>1224</ele>
        <time>2021-02-07T09:07:15Z</time>
      </trkpt>
      <trkpt lat="45.31173" lon="4.44401">
        <ele>1224</ele>
        <time>2021-02-07T09:07:18Z</time>
      </trkpt>
      <trkpt lat="45.3117" lon="4.44396">
        <ele>1224</ele>
        <time>2021-02-07T09:07:21Z</time>
      </trkpt>
      <trkpt lat="45.31167" lon="4.44389">
        <ele>1224</ele>
        <time>2021-02-07T09:07:24Z</time>
      </trkpt>
      <trkpt lat="45.31165" lon="4.44384">
        <ele>1224</ele>
        <time>2021-02-07T09:07:26Z</time>
      </trkpt>
      <trkpt lat="45.31163" lon="4.44379">
        <ele>1226</ele>
        <time>2021-02-07T09:07:28Z</time>
      </trkpt>
      <trkpt lat="45.3116" lon="4.44374">
        <ele>1226</ele>
        <time>2021-02-07T09:07:30Z</time>
      </trkpt>
      <trkpt lat="45.31158" lon="4.44369">
        <ele>1226</ele>
        <time>2021-02-07T09:07:32Z</time>
      </trkpt>
      <trkpt lat="45.31155" lon="4.44366">
        <ele>1225</ele>
        <time>2021-02-07T09:07:34Z</time>
      </trkpt>
      <trkpt lat="45.31151" lon="4.4436">
        <ele>1226</ele>
        <time>2021-02-07T09:07:37Z</time>
      </trkpt>
      <trkpt lat="45.3115" lon="4.44354">
        <ele>1227</ele>
        <time>2021-02-07T09:07:40Z</time>
      </trkpt>
      <trkpt lat="45.31151" lon="4.44348">
        <ele>1227</ele>
        <time>2021-02-07T09:07:43Z</time>
      </trkpt>
      <trkpt lat="45.31152" lon="4.44342">
        <ele>1227</ele>
        <time>2021-02-07T09:07:45Z</time>
      </trkpt>
      <trkpt lat="45.31153" lon="4.44335">
        <ele>1226</ele>
        <time>2021-02-07T09:07:47Z</time>
      </trkpt>
      <trkpt lat="45.31152" lon="4.44329">
        <ele>1226</ele>
        <time>2021-02-07T09:07:49Z</time>
      </trkpt>
      <trkpt lat="45.31149" lon="4.44325">
        <ele>1226</ele>
        <time>2021-02-07T09:07:50Z</time>
      </trkpt>
      <trkpt lat="45.31146" lon="4.44319">
        <ele>1226</ele>
        <time>2021-02-07T09:07:54Z</time>
      </trkpt>
      <trkpt lat="45.31146" lon="4.44314">
        <ele>1227</ele>
        <time>2021-02-07T09:07:56Z</time>
      </trkpt>
      <trkpt lat="45.31144" lon="4.44309">
        <ele>1227</ele>
        <time>2021-02-07T09:07:58Z</time>
      </trkpt>
      <trkpt lat="45.31143" lon="4.44304">
        <ele>1227</ele>
        <time>2021-02-07T09:08:00Z</time>
      </trkpt>
      <trkpt lat="45.3114" lon="4.44299">
        <ele>1227</ele>
        <time>2021-02-07T09:08:02Z</time>
      </trkpt>
      <trkpt lat="45.31137" lon="4.44294">
        <ele>1227</ele>
        <time>2021-02-07T09:08:05Z</time>
      </trkpt>
      <trkpt lat="45.31134" lon="4.4429">
        <ele>1228</ele>
        <time>2021-02-07T09:08:08Z</time>
      </trkpt>
      <trkpt lat="45.31133" lon="4.44284">
        <ele>1228</ele>
        <time>2021-02-07T09:08:11Z</time>
      </trkpt>
      <trkpt lat="45.3113" lon="4.44279">
        <ele>1227</ele>
        <time>2021-02-07T09:08:14Z</time>
      </trkpt>
      <trkpt lat="45.31127" lon="4.44276">
        <ele>1227</ele>
        <time>2021-02-07T09:08:17Z</time>
      </trkpt>
      <trkpt lat="45.31123" lon="4.44271">
        <ele>1227</ele>
        <time>2021-02-07T09:08:20Z</time>
      </trkpt>
      <trkpt lat="45.3112" lon="4.44267">
        <ele>1227</ele>
        <time>2021-02-07T09:08:22Z</time>
      </trkpt>
      <trkpt lat="45.31119" lon="4.44262">
        <ele>1227</ele>
        <time>2021-02-07T09:08:24Z</time>
      </trkpt>
      <trkpt lat="45.31117" lon="4.44257">
        <ele>1227</ele>
        <time>2021-02-07T09:08:26Z</time>
      </trkpt>
      <trkpt lat="45.31115" lon="4.44252">
        <ele>1227</ele>
        <time>2021-02-07T09:08:29Z</time>
      </trkpt>
      <trkpt lat="45.31112" lon="4.44246">
        <ele>1226</ele>
        <time>2021-02-07T09:08:33Z</time>
      </trkpt>
      <trkpt lat="45.31109" lon="4.44241">
        <ele>1226</ele>
        <time>2021-02-07T09:08:36Z</time>
      </trkpt>
      <trkpt lat="45.31107" lon="4.44237">
        <ele>1226</ele>
        <time>2021-02-07T09:08:39Z</time>
      </trkpt>
      <trkpt lat="45.31104" lon="4.44234">
        <ele>1226</ele>
        <time>2021-02-07T09:08:42Z</time>
      </trkpt>
      <trkpt lat="45.311" lon="4.44233">
        <ele>1225</ele>
        <time>2021-02-07T09:08:45Z</time>
      </trkpt>
      <trkpt lat="45.31096" lon="4.44232">
        <ele>1225</ele>
        <time>2021-02-07T09:08:48Z</time>
      </trkpt>
      <trkpt lat="45.31092" lon="4.44231">
        <ele>1225</ele>
        <time>2021-02-07T09:08:50Z</time>
      </trkpt>
      <trkpt lat="45.31088" lon="4.44229">
        <ele>1225</ele>
        <time>2021-02-07T09:08:52Z</time>
      </trkpt>
      <trkpt lat="45.31085" lon="4.44226">
        <ele>1226</ele>
        <time>2021-02-07T09:08:54Z</time>
      </trkpt>
      <trkpt lat="45.31081" lon="4.44224">
        <ele>1225</ele>
        <time>2021-02-07T09:08:56Z</time>
      </trkpt>
      <trkpt lat="45.31076" lon="4.44221">
        <ele>1225</ele>
        <time>2021-02-07T09:08:58Z</time>
      </trkpt>
      <trkpt lat="45.31072" lon="4.44218">
        <ele>1225</ele>
        <time>2021-02-07T09:09:00Z</time>
      </trkpt>
      <trkpt lat="45.31068" lon="4.44215">
        <ele>1225</ele>
        <time>2021-02-07T09:09:02Z</time>
      </trkpt>
      <trkpt lat="45.31063" lon="4.44211">
        <ele>1225</ele>
        <time>2021-02-07T09:09:04Z</time>
      </trkpt>
      <trkpt lat="45.31058" lon="4.44208">
        <ele>1225</ele>
        <time>2021-02-07T09:09:06Z</time>
      </trkpt>
      <trkpt lat="45.31054" lon="4.44203">
        <ele>1225</ele>
        <time>2021-02-07T09:09:08Z</time>
      </trkpt>
      <trkpt lat="45.3105" lon="4.44198">
        <ele>1225</ele>
        <time>2021-02-07T09:09:10Z</time>
      </trkpt>
      <trkpt lat="45.31047" lon="4.44193">
        <ele>1225</ele>
        <time>2021-02-07T09:09:12Z</time>
      </trkpt>
      <trkpt lat="45.31041" lon="4.44189">
        <ele>1224</ele>
        <time>2021-02-07T09:09:14Z</time>
      </trkpt>
      <trkpt lat="45.31037" lon="4.44186">
        <ele>1224</ele>
        <time>2021-02-07T09:09:16Z</time>
      </trkpt>
      <trkpt lat="45.31033" lon="4.44183">
        <ele>1224</ele>
        <time>2021-02-07T09:09:18Z</time>
      </trkpt>
      <trkpt lat="45.31028" lon="4.4418">
        <ele>1223</ele>
        <time>2021-02-07T09:09:20Z</time>
      </trkpt>
      <trkpt lat="45.31024" lon="4.44179">
        <ele>1223</ele>
        <time>2021-02-07T09:09:22Z</time>
      </trkpt>
      <trkpt lat="45.3102" lon="4.44176">
        <ele>1223</ele>
        <time>2021-02-07T09:09:27Z</time>
      </trkpt>
      <trkpt lat="45.31019" lon="4.44171">
        <ele>1224</ele>
        <time>2021-02-07T09:09:34Z</time>
      </trkpt>
      <trkpt lat="45.31016" lon="4.44168">
        <ele>1224</ele>
        <time>2021-02-07T09:09:39Z</time>
      </trkpt>
      <trkpt lat="45.31012" lon="4.44165">
        <ele>1224</ele>
        <time>2021-02-07T09:09:43Z</time>
      </trkpt>
      <trkpt lat="45.31009" lon="4.44163">
        <ele>1224</ele>
        <time>2021-02-07T09:09:47Z</time>
      </trkpt>
      <trkpt lat="45.31005" lon="4.44161">
        <ele>1224</ele>
        <time>2021-02-07T09:09:51Z</time>
      </trkpt>
      <trkpt lat="45.31002" lon="4.44157">
        <ele>1223</ele>
        <time>2021-02-07T09:09:54Z</time>
      </trkpt>
      <trkpt lat="45.30997" lon="4.44153">
        <ele>1223</ele>
        <time>2021-02-07T09:09:57Z</time>
      </trkpt>
      <trkpt lat="45.30993" lon="4.44151">
        <ele>1223</ele>
        <time>2021-02-07T09:09:59Z</time>
      </trkpt>
      <trkpt lat="45.30989" lon="4.44148">
        <ele>1223</ele>
        <time>2021-02-07T09:10:01Z</time>
      </trkpt>
      <trkpt lat="45.30984" lon="4.44145">
        <ele>1223</ele>
        <time>2021-02-07T09:10:03Z</time>
      </trkpt>
      <trkpt lat="45.30979" lon="4.44143">
        <ele>1223</ele>
        <time>2021-02-07T09:10:05Z</time>
      </trkpt>
      <trkpt lat="45.30974" lon="4.44141">
        <ele>1223</ele>
        <time>2021-02-07T09:10:07Z</time>
      </trkpt>
      <trkpt lat="45.30969" lon="4.44139">
        <ele>1224</ele>
        <time>2021-02-07T09:10:09Z</time>
      </trkpt>
      <trkpt lat="45.30964" lon="4.44136">
        <ele>1224</ele>
        <time>2021-02-07T09:10:11Z</time>
      </trkpt>
      <trkpt lat="45.30959" lon="4.44133">
        <ele>1224</ele>
        <time>2021-02-07T09:10:13Z</time>
      </trkpt>
      <trkpt lat="45.30954" lon="4.4413">
        <ele>1224</ele>
        <time>2021-02-07T09:10:15Z</time>
      </trkpt>
      <trkpt lat="45.30949" lon="4.44127">
        <ele>1224</ele>
        <time>2021-02-07T09:10:17Z</time>
      </trkpt>
      <trkpt lat="45.30944" lon="4.44123">
        <ele>1225</ele>
        <time>2021-02-07T09:10:19Z</time>
      </trkpt>
      <trkpt lat="45.3094" lon="4.4412">
        <ele>1225</ele>
        <time>2021-02-07T09:10:21Z</time>
      </trkpt>
      <trkpt lat="45.30935" lon="4.44117">
        <ele>1226</ele>
        <time>2021-02-07T09:10:23Z</time>
      </trkpt>
      <trkpt lat="45.30931" lon="4.44114">
        <ele>1226</ele>
        <time>2021-02-07T09:10:25Z</time>
      </trkpt>
      <trkpt lat="45.30927" lon="4.4411">
        <ele>1226</ele>
        <time>2021-02-07T09:10:27Z</time>
      </trkpt>
      <trkpt lat="45.30923" lon="4.44107">
        <ele>1226</ele>
        <time>2021-02-07T09:10:29Z</time>
      </trkpt>
      <trkpt lat="45.3092" lon="4.44104">
        <ele>1226</ele>
        <time>2021-02-07T09:10:31Z</time>
      </trkpt>
      <trkpt lat="45.30916" lon="4.44101">
        <ele>1227</ele>
        <time>2021-02-07T09:10:33Z</time>
      </trkpt>
      <trkpt lat="45.30912" lon="4.44098">
        <ele>1227</ele>
        <time>2021-02-07T09:10:35Z</time>
      </trkpt>
      <trkpt lat="45.30908" lon="4.44096">
        <ele>1227</ele>
        <time>2021-02-07T09:10:37Z</time>
      </trkpt>
      <trkpt lat="45.30904" lon="4.44093">
        <ele>1227</ele>
        <time>2021-02-07T09:10:39Z</time>
      </trkpt>
      <trkpt lat="45.309" lon="4.4409">
        <ele>1227</ele>
        <time>2021-02-07T09:10:41Z</time>
      </trkpt>
      <trkpt lat="45.30896" lon="4.44086">
        <ele>1227</ele>
        <time>2021-02-07T09:10:43Z</time>
      </trkpt>
      <trkpt lat="45.30893" lon="4.44084">
        <ele>1227</ele>
        <time>2021-02-07T09:10:45Z</time>
      </trkpt>
      <trkpt lat="45.30889" lon="4.44081">
        <ele>1227</ele>
        <time>2021-02-07T09:10:47Z</time>
      </trkpt>
      <trkpt lat="45.30884" lon="4.44077">
        <ele>1227</ele>
        <time>2021-02-07T09:10:49Z</time>
      </trkpt>
      <trkpt lat="45.3088" lon="4.44074">
        <ele>1228</ele>
        <time>2021-02-07T09:10:51Z</time>
      </trkpt>
      <trkpt lat="45.30876" lon="4.44071">
        <ele>1229</ele>
        <time>2021-02-07T09:10:53Z</time>
      </trkpt>
      <trkpt lat="45.30872" lon="4.44068">
        <ele>1229</ele>
        <time>2021-02-07T09:10:55Z</time>
      </trkpt>
      <trkpt lat="45.30868" lon="4.44064">
        <ele>1229</ele>
        <time>2021-02-07T09:10:57Z</time>
      </trkpt>
      <trkpt lat="45.30865" lon="4.44061">
        <ele>1229</ele>
        <time>2021-02-07T09:10:59Z</time>
      </trkpt>
      <trkpt lat="45.30862" lon="4.44057">
        <ele>1230</ele>
        <time>2021-02-07T09:11:01Z</time>
      </trkpt>
      <trkpt lat="45.3086" lon="4.44052">
        <ele>1230</ele>
        <time>2021-02-07T09:11:04Z</time>
      </trkpt>
      <trkpt lat="45.30857" lon="4.44048">
        <ele>1229</ele>
        <time>2021-02-07T09:11:18Z</time>
      </trkpt>
      <trkpt lat="45.30854" lon="4.44048">
        <ele>1228</ele>
        <time>2021-02-07T09:11:55Z</time>
      </trkpt>
      <trkpt lat="45.3085" lon="4.44048">
        <ele>1228</ele>
        <time>2021-02-07T09:11:57Z</time>
      </trkpt>
      <trkpt lat="45.30846" lon="4.44047">
        <ele>1228</ele>
        <time>2021-02-07T09:11:59Z</time>
      </trkpt>
      <trkpt lat="45.30841" lon="4.44047">
        <ele>1228</ele>
        <time>2021-02-07T09:12:01Z</time>
      </trkpt>
      <trkpt lat="45.30836" lon="4.44046">
        <ele>1229</ele>
        <time>2021-02-07T09:12:03Z</time>
      </trkpt>
      <trkpt lat="45.30832" lon="4.44045">
        <ele>1229</ele>
        <time>2021-02-07T09:12:05Z</time>
      </trkpt>
      <trkpt lat="45.30828" lon="4.44044">
        <ele>1230</ele>
        <time>2021-02-07T09:12:07Z</time>
      </trkpt>
      <trkpt lat="45.30825" lon="4.44043">
        <ele>1230</ele>
        <time>2021-02-07T09:12:09Z</time>
      </trkpt>
      <trkpt lat="45.30821" lon="4.44043">
        <ele>1230</ele>
        <time>2021-02-07T09:12:11Z</time>
      </trkpt>
      <trkpt lat="45.30817" lon="4.44042">
        <ele>1232</ele>
        <time>2021-02-07T09:12:13Z</time>
      </trkpt>
      <trkpt lat="45.30813" lon="4.4404">
        <ele>1232</ele>
        <time>2021-02-07T09:12:15Z</time>
      </trkpt>
      <trkpt lat="45.30808" lon="4.44038">
        <ele>1232</ele>
        <time>2021-02-07T09:12:17Z</time>
      </trkpt>
      <trkpt lat="45.30806" lon="4.44034">
        <ele>1232</ele>
        <time>2021-02-07T09:12:19Z</time>
      </trkpt>
      <trkpt lat="45.30803" lon="4.4403">
        <ele>1232</ele>
        <time>2021-02-07T09:12:21Z</time>
      </trkpt>
      <trkpt lat="45.30802" lon="4.44025">
        <ele>1231</ele>
        <time>2021-02-07T09:12:23Z</time>
      </trkpt>
      <trkpt lat="45.30799" lon="4.4402">
        <ele>1231</ele>
        <time>2021-02-07T09:12:26Z</time>
      </trkpt>
      <trkpt lat="45.30797" lon="4.44014">
        <ele>1231</ele>
        <time>2021-02-07T09:12:30Z</time>
      </trkpt>
      <trkpt lat="45.30794" lon="4.44011">
        <ele>1231</ele>
        <time>2021-02-07T09:12:33Z</time>
      </trkpt>
      <trkpt lat="45.30792" lon="4.44006">
        <ele>1231</ele>
        <time>2021-02-07T09:12:37Z</time>
      </trkpt>
      <trkpt lat="45.3079" lon="4.44001">
        <ele>1232</ele>
        <time>2021-02-07T09:12:41Z</time>
      </trkpt>
      <trkpt lat="45.3079" lon="4.43995">
        <ele>1232</ele>
        <time>2021-02-07T09:12:45Z</time>
      </trkpt>
      <trkpt lat="45.30791" lon="4.4399">
        <ele>1231</ele>
        <time>2021-02-07T09:12:48Z</time>
      </trkpt>
      <trkpt lat="45.3079" lon="4.43985">
        <ele>1231</ele>
        <time>2021-02-07T09:12:52Z</time>
      </trkpt>
      <trkpt lat="45.30794" lon="4.43986">
        <ele>1229</ele>
        <time>2021-02-07T09:13:31Z</time>
      </trkpt>
      <trkpt lat="45.30794" lon="4.43992">
        <ele>1228</ele>
        <time>2021-02-07T09:13:56Z</time>
      </trkpt>
      <trkpt lat="45.30794" lon="4.43997">
        <ele>1228</ele>
        <time>2021-02-07T09:14:00Z</time>
      </trkpt>
      <trkpt lat="45.30797" lon="4.43995">
        <ele>1229</ele>
        <time>2021-02-07T09:14:47Z</time>
      </trkpt>
      <trkpt lat="45.30795" lon="4.44001">
        <ele>1228</ele>
        <time>2021-02-07T09:15:02Z</time>
      </trkpt>
      <trkpt lat="45.30796" lon="4.44007">
        <ele>1228</ele>
        <time>2021-02-07T09:15:08Z</time>
      </trkpt>
      <trkpt lat="45.30799" lon="4.44011">
        <ele>1228</ele>
        <time>2021-02-07T09:15:09Z</time>
      </trkpt>
      <trkpt lat="45.30802" lon="4.44017">
        <ele>1227</ele>
        <time>2021-02-07T09:15:11Z</time>
      </trkpt>
      <trkpt lat="45.30805" lon="4.44024">
        <ele>1228</ele>
        <time>2021-02-07T09:15:13Z</time>
      </trkpt>
      <trkpt lat="45.30807" lon="4.44031">
        <ele>1228</ele>
        <time>2021-02-07T09:15:15Z</time>
      </trkpt>
      <trkpt lat="45.30809" lon="4.44039">
        <ele>1228</ele>
        <time>2021-02-07T09:15:17Z</time>
      </trkpt>
      <trkpt lat="45.30809" lon="4.44047">
        <ele>1228</ele>
        <time>2021-02-07T09:15:19Z</time>
      </trkpt>
      <trkpt lat="45.30809" lon="4.44055">
        <ele>1228</ele>
        <time>2021-02-07T09:15:21Z</time>
      </trkpt>
      <trkpt lat="45.30808" lon="4.44063">
        <ele>1228</ele>
        <time>2021-02-07T09:15:23Z</time>
      </trkpt>
      <trkpt lat="45.30808" lon="4.44071">
        <ele>1228</ele>
        <time>2021-02-07T09:15:25Z</time>
      </trkpt>
      <trkpt lat="45.30808" lon="4.44078">
        <ele>1228</ele>
        <time>2021-02-07T09:15:27Z</time>
      </trkpt>
      <trkpt lat="45.30808" lon="4.44086">
        <ele>1228</ele>
        <time>2021-02-07T09:15:29Z</time>
      </trkpt>
      <trkpt lat="45.30807" lon="4.44093">
        <ele>1229</ele>
        <time>2021-02-07T09:15:31Z</time>
      </trkpt>
      <trkpt lat="45.30807" lon="4.44099">
        <ele>1231</ele>
        <time>2021-02-07T09:15:33Z</time>
      </trkpt>
      <trkpt lat="45.30808" lon="4.44104">
        <ele>1231</ele>
        <time>2021-02-07T09:15:35Z</time>
      </trkpt>
      <trkpt lat="45.30808" lon="4.44111">
        <ele>1231</ele>
        <time>2021-02-07T09:15:37Z</time>
      </trkpt>
      <trkpt lat="45.30808" lon="4.44118">
        <ele>1232</ele>
        <time>2021-02-07T09:15:39Z</time>
      </trkpt>
      <trkpt lat="45.30808" lon="4.44124">
        <ele>1232</ele>
        <time>2021-02-07T09:15:41Z</time>
      </trkpt>
      <trkpt lat="45.30808" lon="4.44131">
        <ele>1232</ele>
        <time>2021-02-07T09:15:43Z</time>
      </trkpt>
      <trkpt lat="45.30807" lon="4.44137">
        <ele>1233</ele>
        <time>2021-02-07T09:15:45Z</time>
      </trkpt>
      <trkpt lat="45.30807" lon="4.44143">
        <ele>1233</ele>
        <time>2021-02-07T09:15:47Z</time>
      </trkpt>
      <trkpt lat="45.30807" lon="4.44149">
        <ele>1233</ele>
        <time>2021-02-07T09:15:49Z</time>
      </trkpt>
      <trkpt lat="45.30807" lon="4.44156">
        <ele>1233</ele>
        <time>2021-02-07T09:15:51Z</time>
      </trkpt>
      <trkpt lat="45.30807" lon="4.44162">
        <ele>1232</ele>
        <time>2021-02-07T09:15:53Z</time>
      </trkpt>
      <trkpt lat="45.30807" lon="4.44168">
        <ele>1233</ele>
        <time>2021-02-07T09:15:55Z</time>
      </trkpt>
      <trkpt lat="45.30808" lon="4.44175">
        <ele>1233</ele>
        <time>2021-02-07T09:15:57Z</time>
      </trkpt>
      <trkpt lat="45.30807" lon="4.44181">
        <ele>1234</ele>
        <time>2021-02-07T09:15:59Z</time>
      </trkpt>
      <trkpt lat="45.30807" lon="4.44186">
        <ele>1234</ele>
        <time>2021-02-07T09:16:01Z</time>
      </trkpt>
      <trkpt lat="45.30808" lon="4.44193">
        <ele>1234</ele>
        <time>2021-02-07T09:16:04Z</time>
      </trkpt>
      <trkpt lat="45.30809" lon="4.44198">
        <ele>1235</ele>
        <time>2021-02-07T09:16:07Z</time>
      </trkpt>
      <trkpt lat="45.30808" lon="4.44204">
        <ele>1236</ele>
        <time>2021-02-07T09:16:10Z</time>
      </trkpt>
      <trkpt lat="45.30807" lon="4.44209">
        <ele>1236</ele>
        <time>2021-02-07T09:16:13Z</time>
      </trkpt>
      <trkpt lat="45.30806" lon="4.44216">
        <ele>1236</ele>
        <time>2021-02-07T09:16:17Z</time>
      </trkpt>
      <trkpt lat="45.30805" lon="4.44221">
        <ele>1237</ele>
        <time>2021-02-07T09:16:21Z</time>
      </trkpt>
      <trkpt lat="45.30804" lon="4.44227">
        <ele>1237</ele>
        <time>2021-02-07T09:16:25Z</time>
      </trkpt>
      <trkpt lat="45.30803" lon="4.44233">
        <ele>1238</ele>
        <time>2021-02-07T09:16:29Z</time>
      </trkpt>
      <trkpt lat="45.30801" lon="4.44239">
        <ele>1238</ele>
        <time>2021-02-07T09:16:33Z</time>
      </trkpt>
      <trkpt lat="45.30799" lon="4.44245">
        <ele>1238</ele>
        <time>2021-02-07T09:16:37Z</time>
      </trkpt>
      <trkpt lat="45.30798" lon="4.44251">
        <ele>1239</ele>
        <time>2021-02-07T09:16:41Z</time>
      </trkpt>
      <trkpt lat="45.30796" lon="4.44257">
        <ele>1239</ele>
        <time>2021-02-07T09:16:45Z</time>
      </trkpt>
      <trkpt lat="45.30796" lon="4.44263">
        <ele>1240</ele>
        <time>2021-02-07T09:16:49Z</time>
      </trkpt>
      <trkpt lat="45.30795" lon="4.44269">
        <ele>1240</ele>
        <time>2021-02-07T09:16:53Z</time>
      </trkpt>
      <trkpt lat="45.30795" lon="4.44276">
        <ele>1240</ele>
        <time>2021-02-07T09:17:05Z</time>
      </trkpt>
      <trkpt lat="45.30795" lon="4.44283">
        <ele>1241</ele>
        <time>2021-02-07T09:17:09Z</time>
      </trkpt>
      <trkpt lat="45.30794" lon="4.44288">
        <ele>1241</ele>
        <time>2021-02-07T09:17:12Z</time>
      </trkpt>
      <trkpt lat="45.30792" lon="4.44294">
        <ele>1242</ele>
        <time>2021-02-07T09:17:15Z</time>
      </trkpt>
      <trkpt lat="45.30791" lon="4.443">
        <ele>1241</ele>
        <time>2021-02-07T09:17:18Z</time>
      </trkpt>
      <trkpt lat="45.3079" lon="4.44306">
        <ele>1241</ele>
        <time>2021-02-07T09:17:21Z</time>
      </trkpt>
      <trkpt lat="45.30789" lon="4.44312">
        <ele>1242</ele>
        <time>2021-02-07T09:17:24Z</time>
      </trkpt>
      <trkpt lat="45.30788" lon="4.44318">
        <ele>1242</ele>
        <time>2021-02-07T09:17:27Z</time>
      </trkpt>
      <trkpt lat="45.30788" lon="4.44324">
        <ele>1242</ele>
        <time>2021-02-07T09:17:30Z</time>
      </trkpt>
      <trkpt lat="45.30787" lon="4.44329">
        <ele>1242</ele>
        <time>2021-02-07T09:17:33Z</time>
      </trkpt>
      <trkpt lat="45.30786" lon="4.44334">
        <ele>1243</ele>
        <time>2021-02-07T09:17:36Z</time>
      </trkpt>
      <trkpt lat="45.30783" lon="4.4434">
        <ele>1244</ele>
        <time>2021-02-07T09:17:40Z</time>
      </trkpt>
      <trkpt lat="45.30781" lon="4.44346">
        <ele>1244</ele>
        <time>2021-02-07T09:17:43Z</time>
      </trkpt>
      <trkpt lat="45.3078" lon="4.44352">
        <ele>1245</ele>
        <time>2021-02-07T09:17:46Z</time>
      </trkpt>
      <trkpt lat="45.30779" lon="4.44357">
        <ele>1245</ele>
        <time>2021-02-07T09:17:49Z</time>
      </trkpt>
      <trkpt lat="45.30778" lon="4.44363">
        <ele>1245</ele>
        <time>2021-02-07T09:17:52Z</time>
      </trkpt>
      <trkpt lat="45.30777" lon="4.44369">
        <ele>1245</ele>
        <time>2021-02-07T09:17:55Z</time>
      </trkpt>
      <trkpt lat="45.30775" lon="4.44374">
        <ele>1245</ele>
        <time>2021-02-07T09:17:58Z</time>
      </trkpt>
      <trkpt lat="45.30773" lon="4.44379">
        <ele>1245</ele>
        <time>2021-02-07T09:18:01Z</time>
      </trkpt>
      <trkpt lat="45.30772" lon="4.44384">
        <ele>1245</ele>
        <time>2021-02-07T09:18:04Z</time>
      </trkpt>
      <trkpt lat="45.30771" lon="4.4439">
        <ele>1245</ele>
        <time>2021-02-07T09:18:07Z</time>
      </trkpt>
      <trkpt lat="45.3077" lon="4.44396">
        <ele>1246</ele>
        <time>2021-02-07T09:18:10Z</time>
      </trkpt>
      <trkpt lat="45.30769" lon="4.44402">
        <ele>1246</ele>
        <time>2021-02-07T09:18:13Z</time>
      </trkpt>
      <trkpt lat="45.30768" lon="4.44408">
        <ele>1246</ele>
        <time>2021-02-07T09:18:16Z</time>
      </trkpt>
      <trkpt lat="45.30768" lon="4.44414">
        <ele>1246</ele>
        <time>2021-02-07T09:18:19Z</time>
      </trkpt>
      <trkpt lat="45.30765" lon="4.44421">
        <ele>1246</ele>
        <time>2021-02-07T09:18:22Z</time>
      </trkpt>
      <trkpt lat="45.30764" lon="4.44426">
        <ele>1246</ele>
        <time>2021-02-07T09:18:25Z</time>
      </trkpt>
      <trkpt lat="45.30762" lon="4.44431">
        <ele>1246</ele>
        <time>2021-02-07T09:18:28Z</time>
      </trkpt>
      <trkpt lat="45.30759" lon="4.44436">
        <ele>1246</ele>
        <time>2021-02-07T09:18:31Z</time>
      </trkpt>
      <trkpt lat="45.30756" lon="4.44442">
        <ele>1245</ele>
        <time>2021-02-07T09:18:34Z</time>
      </trkpt>
      <trkpt lat="45.30753" lon="4.44446">
        <ele>1245</ele>
        <time>2021-02-07T09:18:36Z</time>
      </trkpt>
      <trkpt lat="45.30749" lon="4.4445">
        <ele>1245</ele>
        <time>2021-02-07T09:18:38Z</time>
      </trkpt>
      <trkpt lat="45.30745" lon="4.44454">
        <ele>1245</ele>
        <time>2021-02-07T09:18:40Z</time>
      </trkpt>
      <trkpt lat="45.30741" lon="4.44457">
        <ele>1244</ele>
        <time>2021-02-07T09:18:42Z</time>
      </trkpt>
      <trkpt lat="45.30737" lon="4.44461">
        <ele>1244</ele>
        <time>2021-02-07T09:18:44Z</time>
      </trkpt>
      <trkpt lat="45.30734" lon="4.44463">
        <ele>1243</ele>
        <time>2021-02-07T09:18:50Z</time>
      </trkpt>
      <trkpt lat="45.30729" lon="4.44467">
        <ele>1243</ele>
        <time>2021-02-07T09:18:52Z</time>
      </trkpt>
      <trkpt lat="45.30724" lon="4.4447">
        <ele>1243</ele>
        <time>2021-02-07T09:18:54Z</time>
      </trkpt>
      <trkpt lat="45.30718" lon="4.44473">
        <ele>1243</ele>
        <time>2021-02-07T09:18:56Z</time>
      </trkpt>
      <trkpt lat="45.30711" lon="4.44476">
        <ele>1243</ele>
        <time>2021-02-07T09:18:58Z</time>
      </trkpt>
      <trkpt lat="45.30705" lon="4.44478">
        <ele>1243</ele>
        <time>2021-02-07T09:19:00Z</time>
      </trkpt>
      <trkpt lat="45.30699" lon="4.44478">
        <ele>1243</ele>
        <time>2021-02-07T09:19:02Z</time>
      </trkpt>
      <trkpt lat="45.30692" lon="4.44479">
        <ele>1243</ele>
        <time>2021-02-07T09:19:04Z</time>
      </trkpt>
      <trkpt lat="45.30686" lon="4.44479">
        <ele>1243</ele>
        <time>2021-02-07T09:19:06Z</time>
      </trkpt>
      <trkpt lat="45.30681" lon="4.44479">
        <ele>1243</ele>
        <time>2021-02-07T09:19:08Z</time>
      </trkpt>
      <trkpt lat="45.30676" lon="4.44479">
        <ele>1243</ele>
        <time>2021-02-07T09:19:10Z</time>
      </trkpt>
      <trkpt lat="45.3067" lon="4.44479">
        <ele>1243</ele>
        <time>2021-02-07T09:19:12Z</time>
      </trkpt>
      <trkpt lat="45.30665" lon="4.44479">
        <ele>1243</ele>
        <time>2021-02-07T09:19:14Z</time>
      </trkpt>
      <trkpt lat="45.30659" lon="4.44478">
        <ele>1243</ele>
        <time>2021-02-07T09:19:16Z</time>
      </trkpt>
      <trkpt lat="45.30654" lon="4.44478">
        <ele>1242</ele>
        <time>2021-02-07T09:19:18Z</time>
      </trkpt>
      <trkpt lat="45.30649" lon="4.44477">
        <ele>1242</ele>
        <time>2021-02-07T09:19:20Z</time>
      </trkpt>
      <trkpt lat="45.30644" lon="4.44475">
        <ele>1243</ele>
        <time>2021-02-07T09:19:22Z</time>
      </trkpt>
      <trkpt lat="45.30639" lon="4.44474">
        <ele>1243</ele>
        <time>2021-02-07T09:19:24Z</time>
      </trkpt>
      <trkpt lat="45.30632" lon="4.44473">
        <ele>1243</ele>
        <time>2021-02-07T09:19:26Z</time>
      </trkpt>
      <trkpt lat="45.30626" lon="4.4447">
        <ele>1243</ele>
        <time>2021-02-07T09:19:28Z</time>
      </trkpt>
      <trkpt lat="45.30621" lon="4.44467">
        <ele>1243</ele>
        <time>2021-02-07T09:19:30Z</time>
      </trkpt>
      <trkpt lat="45.30615" lon="4.44463">
        <ele>1243</ele>
        <time>2021-02-07T09:19:32Z</time>
      </trkpt>
      <trkpt lat="45.30609" lon="4.44458">
        <ele>1243</ele>
        <time>2021-02-07T09:19:34Z</time>
      </trkpt>
      <trkpt lat="45.30603" lon="4.44452">
        <ele>1242</ele>
        <time>2021-02-07T09:19:36Z</time>
      </trkpt>
      <trkpt lat="45.30601" lon="4.44449">
        <ele>1241</ele>
        <time>2021-02-07T09:19:37Z</time>
      </trkpt>
      <trkpt lat="45.30595" lon="4.44445">
        <ele>1241</ele>
        <time>2021-02-07T09:19:39Z</time>
      </trkpt>
      <trkpt lat="45.3059" lon="4.44442">
        <ele>1241</ele>
        <time>2021-02-07T09:19:41Z</time>
      </trkpt>
      <trkpt lat="45.30585" lon="4.44439">
        <ele>1240</ele>
        <time>2021-02-07T09:19:43Z</time>
      </trkpt>
      <trkpt lat="45.30581" lon="4.44435">
        <ele>1240</ele>
        <time>2021-02-07T09:19:45Z</time>
      </trkpt>
      <trkpt lat="45.30576" lon="4.44431">
        <ele>1239</ele>
        <time>2021-02-07T09:19:47Z</time>
      </trkpt>
      <trkpt lat="45.3057" lon="4.44426">
        <ele>1238</ele>
        <time>2021-02-07T09:19:49Z</time>
      </trkpt>
      <trkpt lat="45.30565" lon="4.44422">
        <ele>1238</ele>
        <time>2021-02-07T09:19:51Z</time>
      </trkpt>
      <trkpt lat="45.3056" lon="4.44419">
        <ele>1238</ele>
        <time>2021-02-07T09:19:53Z</time>
      </trkpt>
      <trkpt lat="45.30555" lon="4.44416">
        <ele>1237</ele>
        <time>2021-02-07T09:19:55Z</time>
      </trkpt>
      <trkpt lat="45.3055" lon="4.44414">
        <ele>1237</ele>
        <time>2021-02-07T09:19:57Z</time>
      </trkpt>
      <trkpt lat="45.30545" lon="4.44412">
        <ele>1237</ele>
        <time>2021-02-07T09:19:59Z</time>
      </trkpt>
      <trkpt lat="45.30538" lon="4.4441">
        <ele>1237</ele>
        <time>2021-02-07T09:20:01Z</time>
      </trkpt>
      <trkpt lat="45.30533" lon="4.4441">
        <ele>1236</ele>
        <time>2021-02-07T09:20:03Z</time>
      </trkpt>
      <trkpt lat="45.30528" lon="4.4441">
        <ele>1236</ele>
        <time>2021-02-07T09:20:05Z</time>
      </trkpt>
      <trkpt lat="45.30523" lon="4.44411">
        <ele>1235</ele>
        <time>2021-02-07T09:20:07Z</time>
      </trkpt>
      <trkpt lat="45.30518" lon="4.44412">
        <ele>1235</ele>
        <time>2021-02-07T09:20:09Z</time>
      </trkpt>
      <trkpt lat="45.30512" lon="4.44413">
        <ele>1235</ele>
        <time>2021-02-07T09:20:11Z</time>
      </trkpt>
      <trkpt lat="45.30507" lon="4.44415">
        <ele>1235</ele>
        <time>2021-02-07T09:20:13Z</time>
      </trkpt>
      <trkpt lat="45.30502" lon="4.44415">
        <ele>1234</ele>
        <time>2021-02-07T09:20:15Z</time>
      </trkpt>
      <trkpt lat="45.30496" lon="4.44417">
        <ele>1234</ele>
        <time>2021-02-07T09:20:17Z</time>
      </trkpt>
      <trkpt lat="45.3049" lon="4.44417">
        <ele>1234</ele>
        <time>2021-02-07T09:20:19Z</time>
      </trkpt>
      <trkpt lat="45.30485" lon="4.44417">
        <ele>1234</ele>
        <time>2021-02-07T09:20:21Z</time>
      </trkpt>
      <trkpt lat="45.3048" lon="4.44417">
        <ele>1233</ele>
        <time>2021-02-07T09:20:23Z</time>
      </trkpt>
      <trkpt lat="45.30474" lon="4.44417">
        <ele>1233</ele>
        <time>2021-02-07T09:20:25Z</time>
      </trkpt>
      <trkpt lat="45.3047" lon="4.44418">
        <ele>1233</ele>
        <time>2021-02-07T09:20:27Z</time>
      </trkpt>
      <trkpt lat="45.30466" lon="4.4442">
        <ele>1233</ele>
        <time>2021-02-07T09:20:30Z</time>
      </trkpt>
      <trkpt lat="45.30462" lon="4.44422">
        <ele>1233</ele>
        <time>2021-02-07T09:20:33Z</time>
      </trkpt>
      <trkpt lat="45.30457" lon="4.44425">
        <ele>1232</ele>
        <time>2021-02-07T09:20:36Z</time>
      </trkpt>
      <trkpt lat="45.30459" lon="4.44429">
        <ele>1233</ele>
        <time>2021-02-07T09:20:48Z</time>
      </trkpt>
      <trkpt lat="45.30463" lon="4.4443">
        <ele>1234</ele>
        <time>2021-02-07T09:20:52Z</time>
      </trkpt>
      <trkpt lat="45.30467" lon="4.44432">
        <ele>1233</ele>
        <time>2021-02-07T09:20:55Z</time>
      </trkpt>
      <trkpt lat="45.30471" lon="4.44435">
        <ele>1234</ele>
        <time>2021-02-07T09:20:58Z</time>
      </trkpt>
      <trkpt lat="45.30474" lon="4.44438">
        <ele>1234</ele>
        <time>2021-02-07T09:21:06Z</time>
      </trkpt>
      <trkpt lat="45.30478" lon="4.44442">
        <ele>1234</ele>
        <time>2021-02-07T09:21:12Z</time>
      </trkpt>
      <trkpt lat="45.30481" lon="4.44447">
        <ele>1236</ele>
        <time>2021-02-07T09:21:15Z</time>
      </trkpt>
      <trkpt lat="45.30484" lon="4.44451">
        <ele>1236</ele>
        <time>2021-02-07T09:21:18Z</time>
      </trkpt>
      <trkpt lat="45.30488" lon="4.44456">
        <ele>1237</ele>
        <time>2021-02-07T09:21:21Z</time>
      </trkpt>
      <trkpt lat="45.30491" lon="4.44459">
        <ele>1237</ele>
        <time>2021-02-07T09:21:23Z</time>
      </trkpt>
      <trkpt lat="45.30495" lon="4.44463">
        <ele>1238</ele>
        <time>2021-02-07T09:21:25Z</time>
      </trkpt>
      <trkpt lat="45.30498" lon="4.44466">
        <ele>1238</ele>
        <time>2021-02-07T09:21:27Z</time>
      </trkpt>
      <trkpt lat="45.30502" lon="4.44469">
        <ele>1239</ele>
        <time>2021-02-07T09:21:29Z</time>
      </trkpt>
      <trkpt lat="45.30505" lon="4.44472">
        <ele>1239</ele>
        <time>2021-02-07T09:21:31Z</time>
      </trkpt>
      <trkpt lat="45.30509" lon="4.44475">
        <ele>1240</ele>
        <time>2021-02-07T09:21:33Z</time>
      </trkpt>
      <trkpt lat="45.30513" lon="4.44479">
        <ele>1241</ele>
        <time>2021-02-07T09:21:35Z</time>
      </trkpt>
      <trkpt lat="45.30516" lon="4.44482">
        <ele>1241</ele>
        <time>2021-02-07T09:21:37Z</time>
      </trkpt>
      <trkpt lat="45.3052" lon="4.44486">
        <ele>1241</ele>
        <time>2021-02-07T09:21:39Z</time>
      </trkpt>
      <trkpt lat="45.30523" lon="4.44489">
        <ele>1242</ele>
        <time>2021-02-07T09:21:41Z</time>
      </trkpt>
      <trkpt lat="45.30526" lon="4.44492">
        <ele>1243</ele>
        <time>2021-02-07T09:21:43Z</time>
      </trkpt>
      <trkpt lat="45.3053" lon="4.44496">
        <ele>1243</ele>
        <time>2021-02-07T09:21:45Z</time>
      </trkpt>
      <trkpt lat="45.30532" lon="4.445">
        <ele>1244</ele>
        <time>2021-02-07T09:21:47Z</time>
      </trkpt>
      <trkpt lat="45.30535" lon="4.44503">
        <ele>1244</ele>
        <time>2021-02-07T09:21:49Z</time>
      </trkpt>
      <trkpt lat="45.30539" lon="4.44507">
        <ele>1244</ele>
        <time>2021-02-07T09:21:52Z</time>
      </trkpt>
      <trkpt lat="45.30542" lon="4.44511">
        <ele>1245</ele>
        <time>2021-02-07T09:21:55Z</time>
      </trkpt>
      <trkpt lat="45.30545" lon="4.44516">
        <ele>1245</ele>
        <time>2021-02-07T09:21:59Z</time>
      </trkpt>
      <trkpt lat="45.30548" lon="4.4452">
        <ele>1245</ele>
        <time>2021-02-07T09:22:02Z</time>
      </trkpt>
      <trkpt lat="45.30552" lon="4.44522">
        <ele>1245</ele>
        <time>2021-02-07T09:22:05Z</time>
      </trkpt>
      <trkpt lat="45.30555" lon="4.44523">
        <ele>1245</ele>
        <time>2021-02-07T09:22:08Z</time>
      </trkpt>
      <trkpt lat="45.3056" lon="4.44523">
        <ele>1246</ele>
        <time>2021-02-07T09:22:11Z</time>
      </trkpt>
      <trkpt lat="45.30564" lon="4.44522">
        <ele>1246</ele>
        <time>2021-02-07T09:22:13Z</time>
      </trkpt>
      <trkpt lat="45.30568" lon="4.44522">
        <ele>1246</ele>
        <time>2021-02-07T09:22:15Z</time>
      </trkpt>
      <trkpt lat="45.30573" lon="4.44521">
        <ele>1246</ele>
        <time>2021-02-07T09:22:17Z</time>
      </trkpt>
      <trkpt lat="45.30578" lon="4.44521">
        <ele>1246</ele>
        <time>2021-02-07T09:22:19Z</time>
      </trkpt>
      <trkpt lat="45.30583" lon="4.44521">
        <ele>1246</ele>
        <time>2021-02-07T09:22:21Z</time>
      </trkpt>
      <trkpt lat="45.30588" lon="4.4452">
        <ele>1246</ele>
        <time>2021-02-07T09:22:23Z</time>
      </trkpt>
      <trkpt lat="45.30593" lon="4.4452">
        <ele>1247</ele>
        <time>2021-02-07T09:22:25Z</time>
      </trkpt>
      <trkpt lat="45.30598" lon="4.44522">
        <ele>1247</ele>
        <time>2021-02-07T09:22:27Z</time>
      </trkpt>
      <trkpt lat="45.30603" lon="4.44524">
        <ele>1246</ele>
        <time>2021-02-07T09:22:29Z</time>
      </trkpt>
      <trkpt lat="45.30607" lon="4.44525">
        <ele>1247</ele>
        <time>2021-02-07T09:22:31Z</time>
      </trkpt>
      <trkpt lat="45.30612" lon="4.44526">
        <ele>1247</ele>
        <time>2021-02-07T09:22:33Z</time>
      </trkpt>
      <trkpt lat="45.30617" lon="4.44527">
        <ele>1247</ele>
        <time>2021-02-07T09:22:35Z</time>
      </trkpt>
      <trkpt lat="45.30622" lon="4.44527">
        <ele>1247</ele>
        <time>2021-02-07T09:22:37Z</time>
      </trkpt>
      <trkpt lat="45.30627" lon="4.44527">
        <ele>1247</ele>
        <time>2021-02-07T09:22:39Z</time>
      </trkpt>
      <trkpt lat="45.30632" lon="4.44527">
        <ele>1247</ele>
        <time>2021-02-07T09:22:41Z</time>
      </trkpt>
      <trkpt lat="45.30637" lon="4.44527">
        <ele>1247</ele>
        <time>2021-02-07T09:22:43Z</time>
      </trkpt>
      <trkpt lat="45.30642" lon="4.44526">
        <ele>1247</ele>
        <time>2021-02-07T09:22:45Z</time>
      </trkpt>
      <trkpt lat="45.30648" lon="4.44526">
        <ele>1246</ele>
        <time>2021-02-07T09:22:47Z</time>
      </trkpt>
      <trkpt lat="45.30653" lon="4.44526">
        <ele>1247</ele>
        <time>2021-02-07T09:22:49Z</time>
      </trkpt>
      <trkpt lat="45.30658" lon="4.44526">
        <ele>1246</ele>
        <time>2021-02-07T09:22:51Z</time>
      </trkpt>
      <trkpt lat="45.30663" lon="4.44526">
        <ele>1246</ele>
        <time>2021-02-07T09:22:53Z</time>
      </trkpt>
      <trkpt lat="45.30669" lon="4.44526">
        <ele>1246</ele>
        <time>2021-02-07T09:22:55Z</time>
      </trkpt>
      <trkpt lat="45.30674" lon="4.44525">
        <ele>1246</ele>
        <time>2021-02-07T09:22:57Z</time>
      </trkpt>
      <trkpt lat="45.3068" lon="4.44524">
        <ele>1245</ele>
        <time>2021-02-07T09:22:59Z</time>
      </trkpt>
      <trkpt lat="45.30685" lon="4.44525">
        <ele>1245</ele>
        <time>2021-02-07T09:23:01Z</time>
      </trkpt>
      <trkpt lat="45.3069" lon="4.44525">
        <ele>1245</ele>
        <time>2021-02-07T09:23:03Z</time>
      </trkpt>
      <trkpt lat="45.30696" lon="4.44525">
        <ele>1245</ele>
        <time>2021-02-07T09:23:05Z</time>
      </trkpt>
      <trkpt lat="45.30702" lon="4.44526">
        <ele>1244</ele>
        <time>2021-02-07T09:23:07Z</time>
      </trkpt>
      <trkpt lat="45.30708" lon="4.44527">
        <ele>1244</ele>
        <time>2021-02-07T09:23:09Z</time>
      </trkpt>
      <trkpt lat="45.30713" lon="4.44529">
        <ele>1244</ele>
        <time>2021-02-07T09:23:11Z</time>
      </trkpt>
      <trkpt lat="45.30718" lon="4.44533">
        <ele>1244</ele>
        <time>2021-02-07T09:23:13Z</time>
      </trkpt>
      <trkpt lat="45.30723" lon="4.44534">
        <ele>1244</ele>
        <time>2021-02-07T09:23:15Z</time>
      </trkpt>
      <trkpt lat="45.30729" lon="4.44537">
        <ele>1244</ele>
        <time>2021-02-07T09:23:17Z</time>
      </trkpt>
      <trkpt lat="45.30734" lon="4.4454">
        <ele>1243</ele>
        <time>2021-02-07T09:23:19Z</time>
      </trkpt>
      <trkpt lat="45.30739" lon="4.44542">
        <ele>1243</ele>
        <time>2021-02-07T09:23:21Z</time>
      </trkpt>
      <trkpt lat="45.30744" lon="4.44544">
        <ele>1242</ele>
        <time>2021-02-07T09:23:23Z</time>
      </trkpt>
      <trkpt lat="45.3075" lon="4.44546">
        <ele>1241</ele>
        <time>2021-02-07T09:23:25Z</time>
      </trkpt>
      <trkpt lat="45.30755" lon="4.44548">
        <ele>1241</ele>
        <time>2021-02-07T09:23:27Z</time>
      </trkpt>
      <trkpt lat="45.30761" lon="4.44551">
        <ele>1241</ele>
        <time>2021-02-07T09:23:29Z</time>
      </trkpt>
      <trkpt lat="45.30766" lon="4.44554">
        <ele>1241</ele>
        <time>2021-02-07T09:23:31Z</time>
      </trkpt>
      <trkpt lat="45.30772" lon="4.44556">
        <ele>1241</ele>
        <time>2021-02-07T09:23:33Z</time>
      </trkpt>
      <trkpt lat="45.30777" lon="4.44559">
        <ele>1240</ele>
        <time>2021-02-07T09:23:35Z</time>
      </trkpt>
      <trkpt lat="45.30783" lon="4.44561">
        <ele>1240</ele>
        <time>2021-02-07T09:23:37Z</time>
      </trkpt>
      <trkpt lat="45.30788" lon="4.44564">
        <ele>1240</ele>
        <time>2021-02-07T09:23:39Z</time>
      </trkpt>
      <trkpt lat="45.30793" lon="4.44565">
        <ele>1239</ele>
        <time>2021-02-07T09:23:41Z</time>
      </trkpt>
      <trkpt lat="45.30798" lon="4.44568">
        <ele>1238</ele>
        <time>2021-02-07T09:23:43Z</time>
      </trkpt>
      <trkpt lat="45.30802" lon="4.4457">
        <ele>1238</ele>
        <time>2021-02-07T09:23:45Z</time>
      </trkpt>
      <trkpt lat="45.30806" lon="4.44572">
        <ele>1238</ele>
        <time>2021-02-07T09:23:47Z</time>
      </trkpt>
      <trkpt lat="45.30811" lon="4.44573">
        <ele>1237</ele>
        <time>2021-02-07T09:23:49Z</time>
      </trkpt>
      <trkpt lat="45.30815" lon="4.44575">
        <ele>1236</ele>
        <time>2021-02-07T09:23:52Z</time>
      </trkpt>
      <trkpt lat="45.30819" lon="4.44577">
        <ele>1236</ele>
        <time>2021-02-07T09:23:56Z</time>
      </trkpt>
      <trkpt lat="45.30823" lon="4.4458">
        <ele>1236</ele>
        <time>2021-02-07T09:24:00Z</time>
      </trkpt>
      <trkpt lat="45.30826" lon="4.44582">
        <ele>1235</ele>
        <time>2021-02-07T09:24:03Z</time>
      </trkpt>
      <trkpt lat="45.30831" lon="4.44585">
        <ele>1234</ele>
        <time>2021-02-07T09:24:06Z</time>
      </trkpt>
      <trkpt lat="45.30835" lon="4.44586">
        <ele>1234</ele>
        <time>2021-02-07T09:24:08Z</time>
      </trkpt>
      <trkpt lat="45.30839" lon="4.44587">
        <ele>1234</ele>
        <time>2021-02-07T09:24:10Z</time>
      </trkpt>
      <trkpt lat="45.30842" lon="4.44589">
        <ele>1234</ele>
        <time>2021-02-07T09:24:12Z</time>
      </trkpt>
      <trkpt lat="45.30847" lon="4.44592">
        <ele>1233</ele>
        <time>2021-02-07T09:24:14Z</time>
      </trkpt>
      <trkpt lat="45.30851" lon="4.44594">
        <ele>1232</ele>
        <time>2021-02-07T09:24:16Z</time>
      </trkpt>
      <trkpt lat="45.30856" lon="4.44596">
        <ele>1232</ele>
        <time>2021-02-07T09:24:18Z</time>
      </trkpt>
      <trkpt lat="45.3086" lon="4.44598">
        <ele>1232</ele>
        <time>2021-02-07T09:24:20Z</time>
      </trkpt>
      <trkpt lat="45.30865" lon="4.44599">
        <ele>1231</ele>
        <time>2021-02-07T09:24:22Z</time>
      </trkpt>
      <trkpt lat="45.3087" lon="4.44602">
        <ele>1230</ele>
        <time>2021-02-07T09:24:24Z</time>
      </trkpt>
      <trkpt lat="45.30875" lon="4.44603">
        <ele>1230</ele>
        <time>2021-02-07T09:24:26Z</time>
      </trkpt>
      <trkpt lat="45.30879" lon="4.44605">
        <ele>1230</ele>
        <time>2021-02-07T09:24:28Z</time>
      </trkpt>
      <trkpt lat="45.30883" lon="4.44606">
        <ele>1230</ele>
        <time>2021-02-07T09:24:30Z</time>
      </trkpt>
      <trkpt lat="45.30887" lon="4.44607">
        <ele>1229</ele>
        <time>2021-02-07T09:24:32Z</time>
      </trkpt>
      <trkpt lat="45.30892" lon="4.44608">
        <ele>1229</ele>
        <time>2021-02-07T09:24:34Z</time>
      </trkpt>
      <trkpt lat="45.30897" lon="4.4461">
        <ele>1228</ele>
        <time>2021-02-07T09:24:36Z</time>
      </trkpt>
      <trkpt lat="45.30902" lon="4.44613">
        <ele>1228</ele>
        <time>2021-02-07T09:24:38Z</time>
      </trkpt>
      <trkpt lat="45.30907" lon="4.44615">
        <ele>1227</ele>
        <time>2021-02-07T09:24:40Z</time>
      </trkpt>
      <trkpt lat="45.30912" lon="4.44618">
        <ele>1226</ele>
        <time>2021-02-07T09:24:42Z</time>
      </trkpt>
      <trkpt lat="45.30916" lon="4.44621">
        <ele>1225</ele>
        <time>2021-02-07T09:24:44Z</time>
      </trkpt>
      <trkpt lat="45.3092" lon="4.44622">
        <ele>1224</ele>
        <time>2021-02-07T09:24:46Z</time>
      </trkpt>
      <trkpt lat="45.30926" lon="4.44625">
        <ele>1223</ele>
        <time>2021-02-07T09:24:48Z</time>
      </trkpt>
      <trkpt lat="45.30932" lon="4.44628">
        <ele>1223</ele>
        <time>2021-02-07T09:24:50Z</time>
      </trkpt>
      <trkpt lat="45.30936" lon="4.44631">
        <ele>1223</ele>
        <time>2021-02-07T09:24:52Z</time>
      </trkpt>
      <trkpt lat="45.30939" lon="4.44636">
        <ele>1222</ele>
        <time>2021-02-07T09:24:55Z</time>
      </trkpt>
      <trkpt lat="45.30941" lon="4.44642">
        <ele>1221</ele>
        <time>2021-02-07T09:24:58Z</time>
      </trkpt>
      <trkpt lat="45.30937" lon="4.44641">
        <ele>1222</ele>
        <time>2021-02-07T09:25:03Z</time>
      </trkpt>
      <trkpt lat="45.30934" lon="4.44643">
        <ele>1223</ele>
        <time>2021-02-07T09:25:39Z</time>
      </trkpt>
      <trkpt lat="45.30934" lon="4.44648">
        <ele>1223</ele>
        <time>2021-02-07T09:25:55Z</time>
      </trkpt>
      <trkpt lat="45.30933" lon="4.44655">
        <ele>1221</ele>
        <time>2021-02-07T09:25:59Z</time>
      </trkpt>
      <trkpt lat="45.30931" lon="4.4466">
        <ele>1220</ele>
        <time>2021-02-07T09:26:01Z</time>
      </trkpt>
      <trkpt lat="45.30928" lon="4.44668">
        <ele>1220</ele>
        <time>2021-02-07T09:26:03Z</time>
      </trkpt>
      <trkpt lat="45.30925" lon="4.44676">
        <ele>1219</ele>
        <time>2021-02-07T09:26:05Z</time>
      </trkpt>
      <trkpt lat="45.30919" lon="4.44691">
        <ele>1217</ele>
        <time>2021-02-07T09:26:09Z</time>
      </trkpt>
      <trkpt lat="45.30916" lon="4.44709">
        <ele>1216</ele>
        <time>2021-02-07T09:26:13Z</time>
      </trkpt>
      <trkpt lat="45.30917" lon="4.44725">
        <ele>1214</ele>
        <time>2021-02-07T09:26:17Z</time>
      </trkpt>
      <trkpt lat="45.30917" lon="4.44742">
        <ele>1214</ele>
        <time>2021-02-07T09:26:22Z</time>
      </trkpt>
      <trkpt lat="45.30913" lon="4.44749">
        <ele>1213</ele>
        <time>2021-02-07T09:26:25Z</time>
      </trkpt>
      <trkpt lat="45.30911" lon="4.44757">
        <ele>1213</ele>
        <time>2021-02-07T09:26:28Z</time>
      </trkpt>
      <trkpt lat="45.30909" lon="4.44762">
        <ele>1212</ele>
        <time>2021-02-07T09:26:31Z</time>
      </trkpt>
      <trkpt lat="45.30906" lon="4.44768">
        <ele>1212</ele>
        <time>2021-02-07T09:26:34Z</time>
      </trkpt>
      <trkpt lat="45.30903" lon="4.44773">
        <ele>1213</ele>
        <time>2021-02-07T09:26:36Z</time>
      </trkpt>
      <trkpt lat="45.30901" lon="4.44778">
        <ele>1213</ele>
        <time>2021-02-07T09:26:38Z</time>
      </trkpt>
      <trkpt lat="45.30895" lon="4.44792">
        <ele>1213</ele>
        <time>2021-02-07T09:26:43Z</time>
      </trkpt>
      <trkpt lat="45.30889" lon="4.44805">
        <ele>1212</ele>
        <time>2021-02-07T09:26:48Z</time>
      </trkpt>
      <trkpt lat="45.30883" lon="4.44821">
        <ele>1211</ele>
        <time>2021-02-07T09:26:54Z</time>
      </trkpt>
      <trkpt lat="45.30882" lon="4.44839">
        <ele>1211</ele>
        <time>2021-02-07T09:27:00Z</time>
      </trkpt>
      <trkpt lat="45.30879" lon="4.44856">
        <ele>1211</ele>
        <time>2021-02-07T09:27:05Z</time>
      </trkpt>
      <trkpt lat="45.30878" lon="4.44873">
        <ele>1211</ele>
        <time>2021-02-07T09:27:10Z</time>
      </trkpt>
      <trkpt lat="45.30877" lon="4.44891">
        <ele>1210</ele>
        <time>2021-02-07T09:27:15Z</time>
      </trkpt>
      <trkpt lat="45.30875" lon="4.44908">
        <ele>1210</ele>
        <time>2021-02-07T09:27:21Z</time>
      </trkpt>
      <trkpt lat="45.30876" lon="4.44924">
        <ele>1208</ele>
        <time>2021-02-07T09:27:26Z</time>
      </trkpt>
      <trkpt lat="45.30878" lon="4.44942">
        <ele>1205</ele>
        <time>2021-02-07T09:27:32Z</time>
      </trkpt>
      <trkpt lat="45.30882" lon="4.44958">
        <ele>1205</ele>
        <time>2021-02-07T09:27:36Z</time>
      </trkpt>
      <trkpt lat="45.30888" lon="4.44976">
        <ele>1205</ele>
        <time>2021-02-07T09:27:40Z</time>
      </trkpt>
      <trkpt lat="45.30893" lon="4.44993">
        <ele>1204</ele>
        <time>2021-02-07T09:27:45Z</time>
      </trkpt>
      <trkpt lat="45.309" lon="4.45005">
        <ele>1203</ele>
        <time>2021-02-07T09:27:49Z</time>
      </trkpt>
      <trkpt lat="45.30908" lon="4.4502">
        <ele>1202</ele>
        <time>2021-02-07T09:27:54Z</time>
      </trkpt>
      <trkpt lat="45.30914" lon="4.45033">
        <ele>1201</ele>
        <time>2021-02-07T09:27:58Z</time>
      </trkpt>
      <trkpt lat="45.3092" lon="4.45045">
        <ele>1199</ele>
        <time>2021-02-07T09:28:03Z</time>
      </trkpt>
      <trkpt lat="45.30929" lon="4.45059">
        <ele>1199</ele>
        <time>2021-02-07T09:28:07Z</time>
      </trkpt>
      <trkpt lat="45.30937" lon="4.45075">
        <ele>1196</ele>
        <time>2021-02-07T09:28:11Z</time>
      </trkpt>
      <trkpt lat="45.3094" lon="4.45091">
        <ele>1195</ele>
        <time>2021-02-07T09:28:15Z</time>
      </trkpt>
      <trkpt lat="45.30939" lon="4.45108">
        <ele>1194</ele>
        <time>2021-02-07T09:28:19Z</time>
      </trkpt>
      <trkpt lat="45.30938" lon="4.45125">
        <ele>1194</ele>
        <time>2021-02-07T09:28:23Z</time>
      </trkpt>
      <trkpt lat="45.30938" lon="4.45143">
        <ele>1192</ele>
        <time>2021-02-07T09:28:27Z</time>
      </trkpt>
      <trkpt lat="45.30937" lon="4.45159">
        <ele>1190</ele>
        <time>2021-02-07T09:28:31Z</time>
      </trkpt>
      <trkpt lat="45.30935" lon="4.45174">
        <ele>1190</ele>
        <time>2021-02-07T09:28:37Z</time>
      </trkpt>
      <trkpt lat="45.30936" lon="4.45179">
        <ele>1187</ele>
        <time>2021-02-07T09:28:53Z</time>
      </trkpt>
      <trkpt lat="45.30934" lon="4.45184">
        <ele>1187</ele>
        <time>2021-02-07T09:28:57Z</time>
      </trkpt>
      <trkpt lat="45.30932" lon="4.4519">
        <ele>1186</ele>
        <time>2021-02-07T09:29:02Z</time>
      </trkpt>
      <trkpt lat="45.3093" lon="4.45194">
        <ele>1186</ele>
        <time>2021-02-07T09:29:05Z</time>
      </trkpt>
      <trkpt lat="45.30926" lon="4.45199">
        <ele>1187</ele>
        <time>2021-02-07T09:29:08Z</time>
      </trkpt>
      <trkpt lat="45.30923" lon="4.45203">
        <ele>1187</ele>
        <time>2021-02-07T09:29:10Z</time>
      </trkpt>
      <trkpt lat="45.30913" lon="4.45214">
        <ele>1187</ele>
        <time>2021-02-07T09:29:15Z</time>
      </trkpt>
      <trkpt lat="45.30905" lon="4.45229">
        <ele>1187</ele>
        <time>2021-02-07T09:29:20Z</time>
      </trkpt>
      <trkpt lat="45.30897" lon="4.45242">
        <ele>1188</ele>
        <time>2021-02-07T09:29:24Z</time>
      </trkpt>
      <trkpt lat="45.30887" lon="4.45254">
        <ele>1189</ele>
        <time>2021-02-07T09:29:29Z</time>
      </trkpt>
      <trkpt lat="45.30878" lon="4.45266">
        <ele>1189</ele>
        <time>2021-02-07T09:29:34Z</time>
      </trkpt>
      <trkpt lat="45.30869" lon="4.45279">
        <ele>1189</ele>
        <time>2021-02-07T09:29:39Z</time>
      </trkpt>
      <trkpt lat="45.30861" lon="4.4529">
        <ele>1189</ele>
        <time>2021-02-07T09:29:43Z</time>
      </trkpt>
      <trkpt lat="45.30853" lon="4.45305">
        <ele>1189</ele>
        <time>2021-02-07T09:29:47Z</time>
      </trkpt>
      <trkpt lat="45.30848" lon="4.4532">
        <ele>1188</ele>
        <time>2021-02-07T09:29:51Z</time>
      </trkpt>
      <trkpt lat="45.30842" lon="4.45334">
        <ele>1189</ele>
        <time>2021-02-07T09:29:55Z</time>
      </trkpt>
      <trkpt lat="45.30836" lon="4.45348">
        <ele>1189</ele>
        <time>2021-02-07T09:30:00Z</time>
      </trkpt>
      <trkpt lat="45.30833" lon="4.45365">
        <ele>1188</ele>
        <time>2021-02-07T09:30:05Z</time>
      </trkpt>
      <trkpt lat="45.30833" lon="4.45381">
        <ele>1187</ele>
        <time>2021-02-07T09:30:09Z</time>
      </trkpt>
      <trkpt lat="45.30832" lon="4.45397">
        <ele>1186</ele>
        <time>2021-02-07T09:30:14Z</time>
      </trkpt>
      <trkpt lat="45.30831" lon="4.45404">
        <ele>1186</ele>
        <time>2021-02-07T09:30:18Z</time>
      </trkpt>
      <trkpt lat="45.30829" lon="4.45413">
        <ele>1186</ele>
        <time>2021-02-07T09:30:22Z</time>
      </trkpt>
      <trkpt lat="45.30829" lon="4.45418">
        <ele>1185</ele>
        <time>2021-02-07T09:30:24Z</time>
      </trkpt>
      <trkpt lat="45.30829" lon="4.45426">
        <ele>1185</ele>
        <time>2021-02-07T09:30:31Z</time>
      </trkpt>
      <trkpt lat="45.30828" lon="4.45441">
        <ele>1185</ele>
        <time>2021-02-07T09:30:40Z</time>
      </trkpt>
      <trkpt lat="45.30828" lon="4.45446">
        <ele>1185</ele>
        <time>2021-02-07T09:30:43Z</time>
      </trkpt>
      <trkpt lat="45.3083" lon="4.45452">
        <ele>1185</ele>
        <time>2021-02-07T09:30:46Z</time>
      </trkpt>
      <trkpt lat="45.3083" lon="4.45458">
        <ele>1185</ele>
        <time>2021-02-07T09:30:50Z</time>
      </trkpt>
      <trkpt lat="45.3083" lon="4.45463">
        <ele>1184</ele>
        <time>2021-02-07T09:30:54Z</time>
      </trkpt>
      <trkpt lat="45.30828" lon="4.45478">
        <ele>1183</ele>
        <time>2021-02-07T09:31:04Z</time>
      </trkpt>
      <trkpt lat="45.30829" lon="4.45494">
        <ele>1183</ele>
        <time>2021-02-07T09:31:15Z</time>
      </trkpt>
      <trkpt lat="45.3083" lon="4.4551">
        <ele>1181</ele>
        <time>2021-02-07T09:31:22Z</time>
      </trkpt>
      <trkpt lat="45.30825" lon="4.45526">
        <ele>1179</ele>
        <time>2021-02-07T09:31:28Z</time>
      </trkpt>
      <trkpt lat="45.30821" lon="4.45541">
        <ele>1177</ele>
        <time>2021-02-07T09:31:34Z</time>
      </trkpt>
      <trkpt lat="45.3082" lon="4.45558">
        <ele>1174</ele>
        <time>2021-02-07T09:31:40Z</time>
      </trkpt>
      <trkpt lat="45.30819" lon="4.45573">
        <ele>1171</ele>
        <time>2021-02-07T09:31:46Z</time>
      </trkpt>
      <trkpt lat="45.30816" lon="4.45579">
        <ele>1170</ele>
        <time>2021-02-07T09:31:48Z</time>
      </trkpt>
      <trkpt lat="45.30816" lon="4.45584">
        <ele>1170</ele>
        <time>2021-02-07T09:31:50Z</time>
      </trkpt>
      <trkpt lat="45.30814" lon="4.4559">
        <ele>1170</ele>
        <time>2021-02-07T09:31:52Z</time>
      </trkpt>
      <trkpt lat="45.30813" lon="4.45595">
        <ele>1169</ele>
        <time>2021-02-07T09:31:54Z</time>
      </trkpt>
      <trkpt lat="45.30811" lon="4.456">
        <ele>1169</ele>
        <time>2021-02-07T09:31:57Z</time>
      </trkpt>
      <trkpt lat="45.30802" lon="4.45615">
        <ele>1167</ele>
        <time>2021-02-07T09:32:03Z</time>
      </trkpt>
      <trkpt lat="45.30797" lon="4.45631">
        <ele>1167</ele>
        <time>2021-02-07T09:32:07Z</time>
      </trkpt>
      <trkpt lat="45.30791" lon="4.45645">
        <ele>1165</ele>
        <time>2021-02-07T09:32:11Z</time>
      </trkpt>
      <trkpt lat="45.30782" lon="4.45656">
        <ele>1164</ele>
        <time>2021-02-07T09:32:16Z</time>
      </trkpt>
      <trkpt lat="45.30773" lon="4.4567">
        <ele>1162</ele>
        <time>2021-02-07T09:32:22Z</time>
      </trkpt>
      <trkpt lat="45.30771" lon="4.45685">
        <ele>1159</ele>
        <time>2021-02-07T09:32:27Z</time>
      </trkpt>
      <trkpt lat="45.30776" lon="4.45699">
        <ele>1159</ele>
        <time>2021-02-07T09:32:32Z</time>
      </trkpt>
      <trkpt lat="45.30785" lon="4.45707">
        <ele>1155</ele>
        <time>2021-02-07T09:32:40Z</time>
      </trkpt>
      <trkpt lat="45.30788" lon="4.45711">
        <ele>1156</ele>
        <time>2021-02-07T09:32:47Z</time>
      </trkpt>
      <trkpt lat="45.30791" lon="4.45714">
        <ele>1156</ele>
        <time>2021-02-07T09:32:50Z</time>
      </trkpt>
      <trkpt lat="45.30794" lon="4.45716">
        <ele>1156</ele>
        <time>2021-02-07T09:32:54Z</time>
      </trkpt>
      <trkpt lat="45.30798" lon="4.45719">
        <ele>1156</ele>
        <time>2021-02-07T09:32:58Z</time>
      </trkpt>
      <trkpt lat="45.30802" lon="4.45722">
        <ele>1155</ele>
        <time>2021-02-07T09:33:02Z</time>
      </trkpt>
      <trkpt lat="45.30806" lon="4.45723">
        <ele>1155</ele>
        <time>2021-02-07T09:33:05Z</time>
      </trkpt>
      <trkpt lat="45.30811" lon="4.45725">
        <ele>1154</ele>
        <time>2021-02-07T09:33:08Z</time>
      </trkpt>
      <trkpt lat="45.30815" lon="4.45728">
        <ele>1154</ele>
        <time>2021-02-07T09:33:11Z</time>
      </trkpt>
      <trkpt lat="45.30826" lon="4.45734">
        <ele>1154</ele>
        <time>2021-02-07T09:33:19Z</time>
      </trkpt>
      <trkpt lat="45.30837" lon="4.45738">
        <ele>1154</ele>
        <time>2021-02-07T09:33:27Z</time>
      </trkpt>
      <trkpt lat="45.30848" lon="4.45741">
        <ele>1153</ele>
        <time>2021-02-07T09:33:32Z</time>
      </trkpt>
      <trkpt lat="45.30858" lon="4.45744">
        <ele>1151</ele>
        <time>2021-02-07T09:33:38Z</time>
      </trkpt>
      <trkpt lat="45.30869" lon="4.45748">
        <ele>1151</ele>
        <time>2021-02-07T09:33:42Z</time>
      </trkpt>
      <trkpt lat="45.30879" lon="4.45754">
        <ele>1151</ele>
        <time>2021-02-07T09:33:46Z</time>
      </trkpt>
      <trkpt lat="45.3089" lon="4.45757">
        <ele>1150</ele>
        <time>2021-02-07T09:33:50Z</time>
      </trkpt>
      <trkpt lat="45.30901" lon="4.45762">
        <ele>1148</ele>
        <time>2021-02-07T09:33:54Z</time>
      </trkpt>
      <trkpt lat="45.30914" lon="4.45766">
        <ele>1147</ele>
        <time>2021-02-07T09:33:59Z</time>
      </trkpt>
      <trkpt lat="45.30925" lon="4.4577">
        <ele>1147</ele>
        <time>2021-02-07T09:34:03Z</time>
      </trkpt>
      <trkpt lat="45.3093" lon="4.45777">
        <ele>1146</ele>
        <time>2021-02-07T09:34:08Z</time>
      </trkpt>
      <trkpt lat="45.30932" lon="4.45782">
        <ele>1145</ele>
        <time>2021-02-07T09:34:11Z</time>
      </trkpt>
      <trkpt lat="45.30935" lon="4.45785">
        <ele>1145</ele>
        <time>2021-02-07T09:34:19Z</time>
      </trkpt>
      <trkpt lat="45.30939" lon="4.4579">
        <ele>1145</ele>
        <time>2021-02-07T09:34:22Z</time>
      </trkpt>
      <trkpt lat="45.30942" lon="4.45796">
        <ele>1145</ele>
        <time>2021-02-07T09:34:24Z</time>
      </trkpt>
      <trkpt lat="45.30945" lon="4.45815">
        <ele>1142</ele>
        <time>2021-02-07T09:34:29Z</time>
      </trkpt>
      <trkpt lat="45.30945" lon="4.45827">
        <ele>1141</ele>
        <time>2021-02-07T09:34:32Z</time>
      </trkpt>
      <trkpt lat="45.30943" lon="4.45844">
        <ele>1141</ele>
        <time>2021-02-07T09:34:36Z</time>
      </trkpt>
      <trkpt lat="45.30942" lon="4.45852">
        <ele>1140</ele>
        <time>2021-02-07T09:34:38Z</time>
      </trkpt>
      <trkpt lat="45.30941" lon="4.45859">
        <ele>1140</ele>
        <time>2021-02-07T09:34:40Z</time>
      </trkpt>
      <trkpt lat="45.30938" lon="4.45865">
        <ele>1140</ele>
        <time>2021-02-07T09:34:42Z</time>
      </trkpt>
      <trkpt lat="45.30935" lon="4.45871">
        <ele>1140</ele>
        <time>2021-02-07T09:34:44Z</time>
      </trkpt>
      <trkpt lat="45.30932" lon="4.45879">
        <ele>1140</ele>
        <time>2021-02-07T09:34:46Z</time>
      </trkpt>
      <trkpt lat="45.3093" lon="4.4589">
        <ele>1138</ele>
        <time>2021-02-07T09:34:49Z</time>
      </trkpt>
      <trkpt lat="45.30927" lon="4.45909">
        <ele>1138</ele>
        <time>2021-02-07T09:34:54Z</time>
      </trkpt>
      <trkpt lat="45.30924" lon="4.45926">
        <ele>1137</ele>
        <time>2021-02-07T09:34:59Z</time>
      </trkpt>
      <trkpt lat="45.30921" lon="4.45942">
        <ele>1135</ele>
        <time>2021-02-07T09:35:03Z</time>
      </trkpt>
      <trkpt lat="45.30916" lon="4.45961">
        <ele>1132</ele>
        <time>2021-02-07T09:35:08Z</time>
      </trkpt>
      <trkpt lat="45.30908" lon="4.45975">
        <ele>1132</ele>
        <time>2021-02-07T09:35:13Z</time>
      </trkpt>
      <trkpt lat="45.30902" lon="4.4599">
        <ele>1129</ele>
        <time>2021-02-07T09:35:18Z</time>
      </trkpt>
      <trkpt lat="45.30899" lon="4.46008">
        <ele>1128</ele>
        <time>2021-02-07T09:35:24Z</time>
      </trkpt>
      <trkpt lat="45.30898" lon="4.46026">
        <ele>1126</ele>
        <time>2021-02-07T09:35:29Z</time>
      </trkpt>
      <trkpt lat="45.30896" lon="4.46042">
        <ele>1125</ele>
        <time>2021-02-07T09:35:33Z</time>
      </trkpt>
      <trkpt lat="45.30895" lon="4.4606">
        <ele>1124</ele>
        <time>2021-02-07T09:35:36Z</time>
      </trkpt>
      <trkpt lat="45.30894" lon="4.4608">
        <ele>1123</ele>
        <time>2021-02-07T09:35:39Z</time>
      </trkpt>
      <trkpt lat="45.30895" lon="4.46098">
        <ele>1121</ele>
        <time>2021-02-07T09:35:42Z</time>
      </trkpt>
      <trkpt lat="45.30894" lon="4.46118">
        <ele>1121</ele>
        <time>2021-02-07T09:35:45Z</time>
      </trkpt>
      <trkpt lat="45.30894" lon="4.46133">
        <ele>1120</ele>
        <time>2021-02-07T09:35:48Z</time>
      </trkpt>
      <trkpt lat="45.30896" lon="4.46153">
        <ele>1118</ele>
        <time>2021-02-07T09:35:52Z</time>
      </trkpt>
      <trkpt lat="45.30898" lon="4.46169">
        <ele>1117</ele>
        <time>2021-02-07T09:35:55Z</time>
      </trkpt>
      <trkpt lat="45.30896" lon="4.46185">
        <ele>1117</ele>
        <time>2021-02-07T09:35:59Z</time>
      </trkpt>
      <trkpt lat="45.30893" lon="4.46201">
        <ele>1117</ele>
        <time>2021-02-07T09:36:04Z</time>
      </trkpt>
      <trkpt lat="45.30891" lon="4.46206">
        <ele>1116</ele>
        <time>2021-02-07T09:36:09Z</time>
      </trkpt>
      <trkpt lat="45.3089" lon="4.46212">
        <ele>1116</ele>
        <time>2021-02-07T09:36:12Z</time>
      </trkpt>
      <trkpt lat="45.30886" lon="4.46215">
        <ele>1116</ele>
        <time>2021-02-07T09:36:15Z</time>
      </trkpt>
      <trkpt lat="45.30882" lon="4.46214">
        <ele>1116</ele>
        <time>2021-02-07T09:36:18Z</time>
      </trkpt>
      <trkpt lat="45.30879" lon="4.46211">
        <ele>1116</ele>
        <time>2021-02-07T09:36:23Z</time>
      </trkpt>
      <trkpt lat="45.30875" lon="4.4621">
        <ele>1116</ele>
        <time>2021-02-07T09:36:27Z</time>
      </trkpt>
      <trkpt lat="45.30871" lon="4.46209">
        <ele>1115</ele>
        <time>2021-02-07T09:36:35Z</time>
      </trkpt>
      <trkpt lat="45.30867" lon="4.46206">
        <ele>1115</ele>
        <time>2021-02-07T09:36:39Z</time>
      </trkpt>
      <trkpt lat="45.30862" lon="4.46205">
        <ele>1116</ele>
        <time>2021-02-07T09:36:41Z</time>
      </trkpt>
      <trkpt lat="45.30858" lon="4.46203">
        <ele>1114</ele>
        <time>2021-02-07T09:36:43Z</time>
      </trkpt>
      <trkpt lat="45.30853" lon="4.462">
        <ele>1114</ele>
        <time>2021-02-07T09:36:45Z</time>
      </trkpt>
      <trkpt lat="45.3085" lon="4.46198">
        <ele>1115</ele>
        <time>2021-02-07T09:36:47Z</time>
      </trkpt>
      <trkpt lat="45.30845" lon="4.46196">
        <ele>1114</ele>
        <time>2021-02-07T09:36:49Z</time>
      </trkpt>
      <trkpt lat="45.30841" lon="4.46194">
        <ele>1114</ele>
        <time>2021-02-07T09:36:51Z</time>
      </trkpt>
      <trkpt lat="45.30835" lon="4.46192">
        <ele>1114</ele>
        <time>2021-02-07T09:36:53Z</time>
      </trkpt>
      <trkpt lat="45.30829" lon="4.46192">
        <ele>1114</ele>
        <time>2021-02-07T09:36:55Z</time>
      </trkpt>
      <trkpt lat="45.30823" lon="4.46191">
        <ele>1114</ele>
        <time>2021-02-07T09:36:57Z</time>
      </trkpt>
      <trkpt lat="45.30818" lon="4.4619">
        <ele>1114</ele>
        <time>2021-02-07T09:36:59Z</time>
      </trkpt>
      <trkpt lat="45.30812" lon="4.46191">
        <ele>1114</ele>
        <time>2021-02-07T09:37:01Z</time>
      </trkpt>
      <trkpt lat="45.30807" lon="4.46191">
        <ele>1115</ele>
        <time>2021-02-07T09:37:03Z</time>
      </trkpt>
      <trkpt lat="45.30802" lon="4.46192">
        <ele>1115</ele>
        <time>2021-02-07T09:37:05Z</time>
      </trkpt>
      <trkpt lat="45.30796" lon="4.46194">
        <ele>1115</ele>
        <time>2021-02-07T09:37:07Z</time>
      </trkpt>
      <trkpt lat="45.30791" lon="4.46195">
        <ele>1115</ele>
        <time>2021-02-07T09:37:09Z</time>
      </trkpt>
      <trkpt lat="45.30786" lon="4.46194">
        <ele>1115</ele>
        <time>2021-02-07T09:37:11Z</time>
      </trkpt>
      <trkpt lat="45.30781" lon="4.46195">
        <ele>1115</ele>
        <time>2021-02-07T09:37:13Z</time>
      </trkpt>
      <trkpt lat="45.30776" lon="4.46196">
        <ele>1115</ele>
        <time>2021-02-07T09:37:15Z</time>
      </trkpt>
      <trkpt lat="45.30772" lon="4.46198">
        <ele>1115</ele>
        <time>2021-02-07T09:37:17Z</time>
      </trkpt>
      <trkpt lat="45.30766" lon="4.46199">
        <ele>1115</ele>
        <time>2021-02-07T09:37:19Z</time>
      </trkpt>
      <trkpt lat="45.3076" lon="4.462">
        <ele>1114</ele>
        <time>2021-02-07T09:37:21Z</time>
      </trkpt>
      <trkpt lat="45.30755" lon="4.46201">
        <ele>1114</ele>
        <time>2021-02-07T09:37:23Z</time>
      </trkpt>
      <trkpt lat="45.30751" lon="4.46201">
        <ele>1115</ele>
        <time>2021-02-07T09:37:25Z</time>
      </trkpt>
      <trkpt lat="45.30747" lon="4.46199">
        <ele>1115</ele>
        <time>2021-02-07T09:37:27Z</time>
      </trkpt>
      <trkpt lat="45.30746" lon="4.46195">
        <ele>1114</ele>
        <time>2021-02-07T09:37:34Z</time>
      </trkpt>
      <trkpt lat="45.30742" lon="4.46196">
        <ele>1115</ele>
        <time>2021-02-07T09:38:45Z</time>
      </trkpt>
      <trkpt lat="45.30738" lon="4.46197">
        <ele>1115</ele>
        <time>2021-02-07T09:38:51Z</time>
      </trkpt>
      <trkpt lat="45.30735" lon="4.46199">
        <ele>1115</ele>
        <time>2021-02-07T09:38:56Z</time>
      </trkpt>
      <trkpt lat="45.30731" lon="4.462">
        <ele>1114</ele>
        <time>2021-02-07T09:39:01Z</time>
      </trkpt>
      <trkpt lat="45.30727" lon="4.46201">
        <ele>1114</ele>
        <time>2021-02-07T09:39:05Z</time>
      </trkpt>
      <trkpt lat="45.30723" lon="4.462">
        <ele>1115</ele>
        <time>2021-02-07T09:39:09Z</time>
      </trkpt>
      <trkpt lat="45.3072" lon="4.46199">
        <ele>1115</ele>
        <time>2021-02-07T09:39:12Z</time>
      </trkpt>
      <trkpt lat="45.30715" lon="4.46198">
        <ele>1115</ele>
        <time>2021-02-07T09:39:15Z</time>
      </trkpt>
      <trkpt lat="45.30711" lon="4.46198">
        <ele>1115</ele>
        <time>2021-02-07T09:39:18Z</time>
      </trkpt>
      <trkpt lat="45.30707" lon="4.46196">
        <ele>1115</ele>
        <time>2021-02-07T09:39:21Z</time>
      </trkpt>
      <trkpt lat="45.30702" lon="4.46196">
        <ele>1115</ele>
        <time>2021-02-07T09:39:25Z</time>
      </trkpt>
      <trkpt lat="45.30697" lon="4.46196">
        <ele>1115</ele>
        <time>2021-02-07T09:39:29Z</time>
      </trkpt>
      <trkpt lat="45.30694" lon="4.46196">
        <ele>1115</ele>
        <time>2021-02-07T09:39:32Z</time>
      </trkpt>
      <trkpt lat="45.30689" lon="4.46196">
        <ele>1115</ele>
        <time>2021-02-07T09:39:35Z</time>
      </trkpt>
      <trkpt lat="45.30684" lon="4.46196">
        <ele>1115</ele>
        <time>2021-02-07T09:39:37Z</time>
      </trkpt>
      <trkpt lat="45.30679" lon="4.46195">
        <ele>1115</ele>
        <time>2021-02-07T09:39:39Z</time>
      </trkpt>
      <trkpt lat="45.30674" lon="4.46196">
        <ele>1115</ele>
        <time>2021-02-07T09:39:41Z</time>
      </trkpt>
      <trkpt lat="45.30668" lon="4.46195">
        <ele>1115</ele>
        <time>2021-02-07T09:39:43Z</time>
      </trkpt>
      <trkpt lat="45.30655" lon="4.46197">
        <ele>1115</ele>
        <time>2021-02-07T09:39:47Z</time>
      </trkpt>
      <trkpt lat="45.30644" lon="4.462">
        <ele>1114</ele>
        <time>2021-02-07T09:39:51Z</time>
      </trkpt>
      <trkpt lat="45.30632" lon="4.46196">
        <ele>1114</ele>
        <time>2021-02-07T09:39:54Z</time>
      </trkpt>
      <trkpt lat="45.30623" lon="4.46187">
        <ele>1114</ele>
        <time>2021-02-07T09:39:58Z</time>
      </trkpt>
      <trkpt lat="45.30622" lon="4.46178">
        <ele>1114</ele>
        <time>2021-02-07T09:40:02Z</time>
      </trkpt>
      <trkpt lat="45.30622" lon="4.46172">
        <ele>1114</ele>
        <time>2021-02-07T09:40:05Z</time>
      </trkpt>
      <trkpt lat="45.30621" lon="4.46167">
        <ele>1114</ele>
        <time>2021-02-07T09:40:09Z</time>
      </trkpt>
      <trkpt lat="45.30618" lon="4.46163">
        <ele>1113</ele>
        <time>2021-02-07T09:40:12Z</time>
      </trkpt>
      <trkpt lat="45.30615" lon="4.46158">
        <ele>1113</ele>
        <time>2021-02-07T09:40:14Z</time>
      </trkpt>
      <trkpt lat="45.3061" lon="4.46151">
        <ele>1113</ele>
        <time>2021-02-07T09:40:17Z</time>
      </trkpt>
      <trkpt lat="45.30601" lon="4.46139">
        <ele>1113</ele>
        <time>2021-02-07T09:40:21Z</time>
      </trkpt>
      <trkpt lat="45.30596" lon="4.46123">
        <ele>1112</ele>
        <time>2021-02-07T09:40:27Z</time>
      </trkpt>
      <trkpt lat="45.30592" lon="4.46111">
        <ele>1112</ele>
        <time>2021-02-07T09:40:31Z</time>
      </trkpt>
      <trkpt lat="45.3059" lon="4.46107">
        <ele>1111</ele>
        <time>2021-02-07T09:40:33Z</time>
      </trkpt>
      <trkpt lat="45.30589" lon="4.461">
        <ele>1111</ele>
        <time>2021-02-07T09:40:36Z</time>
      </trkpt>
      <trkpt lat="45.30587" lon="4.46095">
        <ele>1111</ele>
        <time>2021-02-07T09:40:40Z</time>
      </trkpt>
      <trkpt lat="45.30584" lon="4.46092">
        <ele>1110</ele>
        <time>2021-02-07T09:40:49Z</time>
      </trkpt>
      <trkpt lat="45.30579" lon="4.46093">
        <ele>1110</ele>
        <time>2021-02-07T09:40:56Z</time>
      </trkpt>
      <trkpt lat="45.30575" lon="4.4609">
        <ele>1111</ele>
        <time>2021-02-07T09:40:59Z</time>
      </trkpt>
      <trkpt lat="45.30572" lon="4.46087">
        <ele>1111</ele>
        <time>2021-02-07T09:41:01Z</time>
      </trkpt>
      <trkpt lat="45.30567" lon="4.46084">
        <ele>1111</ele>
        <time>2021-02-07T09:41:04Z</time>
      </trkpt>
      <trkpt lat="45.30556" lon="4.46081">
        <ele>1112</ele>
        <time>2021-02-07T09:41:11Z</time>
      </trkpt>
      <trkpt lat="45.30544" lon="4.46078">
        <ele>1113</ele>
        <time>2021-02-07T09:41:16Z</time>
      </trkpt>
      <trkpt lat="45.30533" lon="4.46074">
        <ele>1113</ele>
        <time>2021-02-07T09:41:20Z</time>
      </trkpt>
      <trkpt lat="45.30521" lon="4.46072">
        <ele>1113</ele>
        <time>2021-02-07T09:41:25Z</time>
      </trkpt>
      <trkpt lat="45.3051" lon="4.46069">
        <ele>1114</ele>
        <time>2021-02-07T09:41:30Z</time>
      </trkpt>
      <trkpt lat="45.30498" lon="4.46066">
        <ele>1115</ele>
        <time>2021-02-07T09:41:36Z</time>
      </trkpt>
      <trkpt lat="45.30486" lon="4.46064">
        <ele>1116</ele>
        <time>2021-02-07T09:41:41Z</time>
      </trkpt>
      <trkpt lat="45.30475" lon="4.46061">
        <ele>1117</ele>
        <time>2021-02-07T09:41:46Z</time>
      </trkpt>
      <trkpt lat="45.30462" lon="4.46057">
        <ele>1117</ele>
        <time>2021-02-07T09:41:51Z</time>
      </trkpt>
      <trkpt lat="45.30455" lon="4.46055">
        <ele>1118</ele>
        <time>2021-02-07T09:41:55Z</time>
      </trkpt>
      <trkpt lat="45.3045" lon="4.46054">
        <ele>1118</ele>
        <time>2021-02-07T09:41:57Z</time>
      </trkpt>
      <trkpt lat="45.30447" lon="4.46051">
        <ele>1119</ele>
        <time>2021-02-07T09:41:59Z</time>
      </trkpt>
      <trkpt lat="45.3044" lon="4.46046">
        <ele>1119</ele>
        <time>2021-02-07T09:42:02Z</time>
      </trkpt>
      <trkpt lat="45.30435" lon="4.46042">
        <ele>1119</ele>
        <time>2021-02-07T09:42:04Z</time>
      </trkpt>
      <trkpt lat="45.30429" lon="4.46038">
        <ele>1118</ele>
        <time>2021-02-07T09:42:06Z</time>
      </trkpt>
      <trkpt lat="45.30424" lon="4.46034">
        <ele>1118</ele>
        <time>2021-02-07T09:42:08Z</time>
      </trkpt>
      <trkpt lat="45.30419" lon="4.46032">
        <ele>1118</ele>
        <time>2021-02-07T09:42:10Z</time>
      </trkpt>
      <trkpt lat="45.30414" lon="4.46028">
        <ele>1117</ele>
        <time>2021-02-07T09:42:12Z</time>
      </trkpt>
      <trkpt lat="45.30409" lon="4.46027">
        <ele>1117</ele>
        <time>2021-02-07T09:42:14Z</time>
      </trkpt>
      <trkpt lat="45.30404" lon="4.46025">
        <ele>1117</ele>
        <time>2021-02-07T09:42:16Z</time>
      </trkpt>
      <trkpt lat="45.30398" lon="4.46019">
        <ele>1117</ele>
        <time>2021-02-07T09:42:19Z</time>
      </trkpt>
      <trkpt lat="45.30388" lon="4.46011">
        <ele>1117</ele>
        <time>2021-02-07T09:42:25Z</time>
      </trkpt>
      <trkpt lat="45.30377" lon="4.46006">
        <ele>1117</ele>
        <time>2021-02-07T09:42:31Z</time>
      </trkpt>
      <trkpt lat="45.30367" lon="4.45998">
        <ele>1117</ele>
        <time>2021-02-07T09:42:38Z</time>
      </trkpt>
      <trkpt lat="45.30364" lon="4.45993">
        <ele>1116</ele>
        <time>2021-02-07T09:42:44Z</time>
      </trkpt>
      <trkpt lat="45.3036" lon="4.45991">
        <ele>1116</ele>
        <time>2021-02-07T09:42:47Z</time>
      </trkpt>
      <trkpt lat="45.30357" lon="4.45988">
        <ele>1116</ele>
        <time>2021-02-07T09:42:52Z</time>
      </trkpt>
      <trkpt lat="45.30353" lon="4.45985">
        <ele>1115</ele>
        <time>2021-02-07T09:42:56Z</time>
      </trkpt>
      <trkpt lat="45.30344" lon="4.45976">
        <ele>1115</ele>
        <time>2021-02-07T09:43:03Z</time>
      </trkpt>
      <trkpt lat="45.30332" lon="4.45965">
        <ele>1115</ele>
        <time>2021-02-07T09:43:07Z</time>
      </trkpt>
      <trkpt lat="45.30321" lon="4.45953">
        <ele>1115</ele>
        <time>2021-02-07T09:43:11Z</time>
      </trkpt>
      <trkpt lat="45.30312" lon="4.45941">
        <ele>1114</ele>
        <time>2021-02-07T09:43:15Z</time>
      </trkpt>
      <trkpt lat="45.30303" lon="4.45929">
        <ele>1114</ele>
        <time>2021-02-07T09:43:19Z</time>
      </trkpt>
      <trkpt lat="45.30292" lon="4.45917">
        <ele>1111</ele>
        <time>2021-02-07T09:43:23Z</time>
      </trkpt>
      <trkpt lat="45.30283" lon="4.45907">
        <ele>1111</ele>
        <time>2021-02-07T09:43:27Z</time>
      </trkpt>
      <trkpt lat="45.30271" lon="4.45897">
        <ele>1110</ele>
        <time>2021-02-07T09:43:31Z</time>
      </trkpt>
      <trkpt lat="45.30259" lon="4.45886">
        <ele>1110</ele>
        <time>2021-02-07T09:43:35Z</time>
      </trkpt>
      <trkpt lat="45.30248" lon="4.45879">
        <ele>1108</ele>
        <time>2021-02-07T09:43:39Z</time>
      </trkpt>
      <trkpt lat="45.30239" lon="4.45869">
        <ele>1107</ele>
        <time>2021-02-07T09:43:43Z</time>
      </trkpt>
      <trkpt lat="45.3023" lon="4.45859">
        <ele>1106</ele>
        <time>2021-02-07T09:43:46Z</time>
      </trkpt>
      <trkpt lat="45.30219" lon="4.45847">
        <ele>1104</ele>
        <time>2021-02-07T09:43:50Z</time>
      </trkpt>
      <trkpt lat="45.30214" lon="4.45833">
        <ele>1103</ele>
        <time>2021-02-07T09:43:54Z</time>
      </trkpt>
      <trkpt lat="45.3021" lon="4.45814">
        <ele>1102</ele>
        <time>2021-02-07T09:43:58Z</time>
      </trkpt>
      <trkpt lat="45.30213" lon="4.45796">
        <ele>1101</ele>
        <time>2021-02-07T09:44:01Z</time>
      </trkpt>
      <trkpt lat="45.30212" lon="4.45778">
        <ele>1100</ele>
        <time>2021-02-07T09:44:04Z</time>
      </trkpt>
      <trkpt lat="45.30207" lon="4.4576">
        <ele>1098</ele>
        <time>2021-02-07T09:44:08Z</time>
      </trkpt>
      <trkpt lat="45.30205" lon="4.4575">
        <ele>1097</ele>
        <time>2021-02-07T09:44:11Z</time>
      </trkpt>
      <trkpt lat="45.30211" lon="4.45752">
        <ele>1094</ele>
        <time>2021-02-07T09:44:16Z</time>
      </trkpt>
      <trkpt lat="45.30217" lon="4.45756">
        <ele>1093</ele>
        <time>2021-02-07T09:44:20Z</time>
      </trkpt>
      <trkpt lat="45.30222" lon="4.45759">
        <ele>1093</ele>
        <time>2021-02-07T09:44:22Z</time>
      </trkpt>
      <trkpt lat="45.30229" lon="4.4576">
        <ele>1093</ele>
        <time>2021-02-07T09:44:24Z</time>
      </trkpt>
      <trkpt lat="45.30234" lon="4.45759">
        <ele>1093</ele>
        <time>2021-02-07T09:44:26Z</time>
      </trkpt>
      <trkpt lat="45.30237" lon="4.45756">
        <ele>1092</ele>
        <time>2021-02-07T09:44:28Z</time>
      </trkpt>
      <trkpt lat="45.30242" lon="4.45751">
        <ele>1091</ele>
        <time>2021-02-07T09:44:30Z</time>
      </trkpt>
      <trkpt lat="45.30244" lon="4.45746">
        <ele>1091</ele>
        <time>2021-02-07T09:44:32Z</time>
      </trkpt>
      <trkpt lat="45.30246" lon="4.4574">
        <ele>1091</ele>
        <time>2021-02-07T09:44:34Z</time>
      </trkpt>
      <trkpt lat="45.30248" lon="4.45732">
        <ele>1091</ele>
        <time>2021-02-07T09:44:36Z</time>
      </trkpt>
      <trkpt lat="45.30247" lon="4.45716">
        <ele>1091</ele>
        <time>2021-02-07T09:44:41Z</time>
      </trkpt>
      <trkpt lat="45.3024" lon="4.45703">
        <ele>1090</ele>
        <time>2021-02-07T09:44:45Z</time>
      </trkpt>
      <trkpt lat="45.30236" lon="4.45688">
        <ele>1090</ele>
        <time>2021-02-07T09:44:49Z</time>
      </trkpt>
      <trkpt lat="45.30235" lon="4.45672">
        <ele>1090</ele>
        <time>2021-02-07T09:44:53Z</time>
      </trkpt>
      <trkpt lat="45.30237" lon="4.45658">
        <ele>1091</ele>
        <time>2021-02-07T09:44:57Z</time>
      </trkpt>
      <trkpt lat="45.30238" lon="4.45652">
        <ele>1091</ele>
        <time>2021-02-07T09:44:59Z</time>
      </trkpt>
      <trkpt lat="45.30238" lon="4.45646">
        <ele>1091</ele>
        <time>2021-02-07T09:45:01Z</time>
      </trkpt>
      <trkpt lat="45.30237" lon="4.45639">
        <ele>1092</ele>
        <time>2021-02-07T09:45:04Z</time>
      </trkpt>
      <trkpt lat="45.30236" lon="4.45632">
        <ele>1092</ele>
        <time>2021-02-07T09:45:06Z</time>
      </trkpt>
      <trkpt lat="45.30234" lon="4.45628">
        <ele>1093</ele>
        <time>2021-02-07T09:45:08Z</time>
      </trkpt>
      <trkpt lat="45.30232" lon="4.45622">
        <ele>1093</ele>
        <time>2021-02-07T09:45:11Z</time>
      </trkpt>
      <trkpt lat="45.30231" lon="4.45617">
        <ele>1094</ele>
        <time>2021-02-07T09:45:14Z</time>
      </trkpt>
      <trkpt lat="45.3023" lon="4.45612">
        <ele>1094</ele>
        <time>2021-02-07T09:45:17Z</time>
      </trkpt>
      <trkpt lat="45.30229" lon="4.45607">
        <ele>1095</ele>
        <time>2021-02-07T09:45:20Z</time>
      </trkpt>
      <trkpt lat="45.30229" lon="4.45602">
        <ele>1095</ele>
        <time>2021-02-07T09:45:23Z</time>
      </trkpt>
      <trkpt lat="45.3023" lon="4.45596">
        <ele>1096</ele>
        <time>2021-02-07T09:45:27Z</time>
      </trkpt>
      <trkpt lat="45.30231" lon="4.4559">
        <ele>1096</ele>
        <time>2021-02-07T09:45:31Z</time>
      </trkpt>
      <trkpt lat="45.30229" lon="4.45585">
        <ele>1096</ele>
        <time>2021-02-07T09:45:38Z</time>
      </trkpt>
      <trkpt lat="45.30225" lon="4.45581">
        <ele>1096</ele>
        <time>2021-02-07T09:45:43Z</time>
      </trkpt>
      <trkpt lat="45.30222" lon="4.45575">
        <ele>1096</ele>
        <time>2021-02-07T09:45:47Z</time>
      </trkpt>
      <trkpt lat="45.30219" lon="4.45572">
        <ele>1096</ele>
        <time>2021-02-07T09:45:50Z</time>
      </trkpt>
      <trkpt lat="45.30215" lon="4.45569">
        <ele>1096</ele>
        <time>2021-02-07T09:45:53Z</time>
      </trkpt>
      <trkpt lat="45.30211" lon="4.45565">
        <ele>1095</ele>
        <time>2021-02-07T09:45:56Z</time>
      </trkpt>
      <trkpt lat="45.30208" lon="4.45562">
        <ele>1095</ele>
        <time>2021-02-07T09:45:59Z</time>
      </trkpt>
      <trkpt lat="45.30204" lon="4.45558">
        <ele>1095</ele>
        <time>2021-02-07T09:46:03Z</time>
      </trkpt>
      <trkpt lat="45.30201" lon="4.45553">
        <ele>1095</ele>
        <time>2021-02-07T09:46:06Z</time>
      </trkpt>
      <trkpt lat="45.30198" lon="4.45549">
        <ele>1095</ele>
        <time>2021-02-07T09:46:08Z</time>
      </trkpt>
      <trkpt lat="45.30194" lon="4.45544">
        <ele>1095</ele>
        <time>2021-02-07T09:46:10Z</time>
      </trkpt>
      <trkpt lat="45.30191" lon="4.45537">
        <ele>1095</ele>
        <time>2021-02-07T09:46:12Z</time>
      </trkpt>
      <trkpt lat="45.30187" lon="4.45531">
        <ele>1095</ele>
        <time>2021-02-07T09:46:14Z</time>
      </trkpt>
      <trkpt lat="45.30181" lon="4.45518">
        <ele>1095</ele>
        <time>2021-02-07T09:46:18Z</time>
      </trkpt>
      <trkpt lat="45.30179" lon="4.45511">
        <ele>1095</ele>
        <time>2021-02-07T09:46:20Z</time>
      </trkpt>
      <trkpt lat="45.30179" lon="4.45503">
        <ele>1095</ele>
        <time>2021-02-07T09:46:22Z</time>
      </trkpt>
      <trkpt lat="45.30179" lon="4.45491">
        <ele>1096</ele>
        <time>2021-02-07T09:46:26Z</time>
      </trkpt>
      <trkpt lat="45.30178" lon="4.4548">
        <ele>1097</ele>
        <time>2021-02-07T09:46:29Z</time>
      </trkpt>
      <trkpt lat="45.30177" lon="4.45472">
        <ele>1097</ele>
        <time>2021-02-07T09:46:31Z</time>
      </trkpt>
      <trkpt lat="45.30175" lon="4.45467">
        <ele>1098</ele>
        <time>2021-02-07T09:46:33Z</time>
      </trkpt>
      <trkpt lat="45.30175" lon="4.45459">
        <ele>1098</ele>
        <time>2021-02-07T09:46:35Z</time>
      </trkpt>
      <trkpt lat="45.30175" lon="4.45453">
        <ele>1099</ele>
        <time>2021-02-07T09:46:37Z</time>
      </trkpt>
      <trkpt lat="45.30174" lon="4.45447">
        <ele>1099</ele>
        <time>2021-02-07T09:46:39Z</time>
      </trkpt>
      <trkpt lat="45.30174" lon="4.45432">
        <ele>1100</ele>
        <time>2021-02-07T09:46:44Z</time>
      </trkpt>
      <trkpt lat="45.30173" lon="4.45416">
        <ele>1101</ele>
        <time>2021-02-07T09:46:51Z</time>
      </trkpt>
      <trkpt lat="45.30171" lon="4.45399">
        <ele>1103</ele>
        <time>2021-02-07T09:46:59Z</time>
      </trkpt>
      <trkpt lat="45.30168" lon="4.45394">
        <ele>1103</ele>
        <time>2021-02-07T09:47:03Z</time>
      </trkpt>
      <trkpt lat="45.30167" lon="4.45389">
        <ele>1105</ele>
        <time>2021-02-07T09:47:07Z</time>
      </trkpt>
      <trkpt lat="45.30164" lon="4.45386">
        <ele>1105</ele>
        <time>2021-02-07T09:47:10Z</time>
      </trkpt>
      <trkpt lat="45.30162" lon="4.45382">
        <ele>1106</ele>
        <time>2021-02-07T09:47:13Z</time>
      </trkpt>
      <trkpt lat="45.30159" lon="4.45379">
        <ele>1106</ele>
        <time>2021-02-07T09:47:16Z</time>
      </trkpt>
      <trkpt lat="45.30155" lon="4.45377">
        <ele>1107</ele>
        <time>2021-02-07T09:47:19Z</time>
      </trkpt>
      <trkpt lat="45.3015" lon="4.45377">
        <ele>1108</ele>
        <time>2021-02-07T09:47:22Z</time>
      </trkpt>
      <trkpt lat="45.30147" lon="4.45377">
        <ele>1109</ele>
        <time>2021-02-07T09:47:25Z</time>
      </trkpt>
      <trkpt lat="45.30144" lon="4.45373">
        <ele>1109</ele>
        <time>2021-02-07T09:47:29Z</time>
      </trkpt>
      <trkpt lat="45.30142" lon="4.45364">
        <ele>1111</ele>
        <time>2021-02-07T09:47:34Z</time>
      </trkpt>
      <trkpt lat="45.30142" lon="4.45358">
        <ele>1111</ele>
        <time>2021-02-07T09:47:37Z</time>
      </trkpt>
      <trkpt lat="45.30141" lon="4.45351">
        <ele>1112</ele>
        <time>2021-02-07T09:47:40Z</time>
      </trkpt>
      <trkpt lat="45.30142" lon="4.45345">
        <ele>1112</ele>
        <time>2021-02-07T09:47:42Z</time>
      </trkpt>
      <trkpt lat="45.30143" lon="4.4534">
        <ele>1112</ele>
        <time>2021-02-07T09:47:44Z</time>
      </trkpt>
      <trkpt lat="45.30144" lon="4.45335">
        <ele>1113</ele>
        <time>2021-02-07T09:47:46Z</time>
      </trkpt>
      <trkpt lat="45.30145" lon="4.45328">
        <ele>1113</ele>
        <time>2021-02-07T09:47:49Z</time>
      </trkpt>
      <trkpt lat="45.30146" lon="4.45323">
        <ele>1113</ele>
        <time>2021-02-07T09:47:51Z</time>
      </trkpt>
      <trkpt lat="45.30148" lon="4.45318">
        <ele>1114</ele>
        <time>2021-02-07T09:47:53Z</time>
      </trkpt>
      <trkpt lat="45.3015" lon="4.45312">
        <ele>1114</ele>
        <time>2021-02-07T09:47:56Z</time>
      </trkpt>
      <trkpt lat="45.30151" lon="4.45306">
        <ele>1115</ele>
        <time>2021-02-07T09:47:59Z</time>
      </trkpt>
      <trkpt lat="45.30153" lon="4.45299">
        <ele>1116</ele>
        <time>2021-02-07T09:48:03Z</time>
      </trkpt>
      <trkpt lat="45.30148" lon="4.45289">
        <ele>1117</ele>
        <time>2021-02-07T09:48:14Z</time>
      </trkpt>
      <trkpt lat="45.30152" lon="4.45285">
        <ele>1118</ele>
        <time>2021-02-07T09:48:37Z</time>
      </trkpt>
      <trkpt lat="45.30155" lon="4.45283">
        <ele>1118</ele>
        <time>2021-02-07T09:48:51Z</time>
      </trkpt>
      <trkpt lat="45.30152" lon="4.45288">
        <ele>1118</ele>
        <time>2021-02-07T09:48:59Z</time>
      </trkpt>
      <trkpt lat="45.30146" lon="4.45293">
        <ele>1118</ele>
        <time>2021-02-07T09:49:02Z</time>
      </trkpt>
      <trkpt lat="45.30142" lon="4.45294">
        <ele>1119</ele>
        <time>2021-02-07T09:49:04Z</time>
      </trkpt>
      <trkpt lat="45.30137" lon="4.45296">
        <ele>1120</ele>
        <time>2021-02-07T09:49:06Z</time>
      </trkpt>
      <trkpt lat="45.30133" lon="4.45297">
        <ele>1120</ele>
        <time>2021-02-07T09:49:08Z</time>
      </trkpt>
      <trkpt lat="45.30127" lon="4.45298">
        <ele>1121</ele>
        <time>2021-02-07T09:49:10Z</time>
      </trkpt>
      <trkpt lat="45.30124" lon="4.45296">
        <ele>1121</ele>
        <time>2021-02-07T09:49:12Z</time>
      </trkpt>
      <trkpt lat="45.3012" lon="4.45296">
        <ele>1122</ele>
        <time>2021-02-07T09:49:14Z</time>
      </trkpt>
      <trkpt lat="45.30117" lon="4.45296">
        <ele>1123</ele>
        <time>2021-02-07T09:49:16Z</time>
      </trkpt>
      <trkpt lat="45.30112" lon="4.45296">
        <ele>1123</ele>
        <time>2021-02-07T09:49:18Z</time>
      </trkpt>
      <trkpt lat="45.30106" lon="4.45295">
        <ele>1123</ele>
        <time>2021-02-07T09:49:20Z</time>
      </trkpt>
      <trkpt lat="45.30095" lon="4.45287">
        <ele>1125</ele>
        <time>2021-02-07T09:49:26Z</time>
      </trkpt>
      <trkpt lat="45.30083" lon="4.4528">
        <ele>1125</ele>
        <time>2021-02-07T09:49:32Z</time>
      </trkpt>
      <trkpt lat="45.30076" lon="4.45276">
        <ele>1125</ele>
        <time>2021-02-07T09:49:35Z</time>
      </trkpt>
      <trkpt lat="45.30066" lon="4.4527">
        <ele>1125</ele>
        <time>2021-02-07T09:49:40Z</time>
      </trkpt>
      <trkpt lat="45.30062" lon="4.45266">
        <ele>1127</ele>
        <time>2021-02-07T09:49:42Z</time>
      </trkpt>
      <trkpt lat="45.30059" lon="4.45262">
        <ele>1128</ele>
        <time>2021-02-07T09:49:44Z</time>
      </trkpt>
      <trkpt lat="45.30052" lon="4.4525">
        <ele>1129</ele>
        <time>2021-02-07T09:49:50Z</time>
      </trkpt>
      <trkpt lat="45.30044" lon="4.45238">
        <ele>1129</ele>
        <time>2021-02-07T09:49:57Z</time>
      </trkpt>
      <trkpt lat="45.30037" lon="4.45225">
        <ele>1129</ele>
        <time>2021-02-07T09:50:01Z</time>
      </trkpt>
      <trkpt lat="45.30033" lon="4.4521">
        <ele>1129</ele>
        <time>2021-02-07T09:50:05Z</time>
      </trkpt>
      <trkpt lat="45.3003" lon="4.45194">
        <ele>1129</ele>
        <time>2021-02-07T09:50:10Z</time>
      </trkpt>
      <trkpt lat="45.3003" lon="4.45189">
        <ele>1129</ele>
        <time>2021-02-07T09:50:15Z</time>
      </trkpt>
      <trkpt lat="45.30028" lon="4.45185">
        <ele>1129</ele>
        <time>2021-02-07T09:50:22Z</time>
      </trkpt>
      <trkpt lat="45.30025" lon="4.4518">
        <ele>1129</ele>
        <time>2021-02-07T09:50:34Z</time>
      </trkpt>
      <trkpt lat="45.30023" lon="4.45176">
        <ele>1129</ele>
        <time>2021-02-07T09:50:38Z</time>
      </trkpt>
      <trkpt lat="45.3002" lon="4.45172">
        <ele>1128</ele>
        <time>2021-02-07T09:50:44Z</time>
      </trkpt>
      <trkpt lat="45.30018" lon="4.45168">
        <ele>1129</ele>
        <time>2021-02-07T09:51:04Z</time>
      </trkpt>
      <trkpt lat="45.30015" lon="4.45165">
        <ele>1128</ele>
        <time>2021-02-07T09:51:07Z</time>
      </trkpt>
      <trkpt lat="45.30011" lon="4.45159">
        <ele>1128</ele>
        <time>2021-02-07T09:51:10Z</time>
      </trkpt>
      <trkpt lat="45.30008" lon="4.45155">
        <ele>1128</ele>
        <time>2021-02-07T09:51:12Z</time>
      </trkpt>
      <trkpt lat="45.30004" lon="4.4515">
        <ele>1128</ele>
        <time>2021-02-07T09:51:14Z</time>
      </trkpt>
      <trkpt lat="45.3" lon="4.45145">
        <ele>1128</ele>
        <time>2021-02-07T09:51:16Z</time>
      </trkpt>
      <trkpt lat="45.29996" lon="4.45139">
        <ele>1128</ele>
        <time>2021-02-07T09:51:18Z</time>
      </trkpt>
      <trkpt lat="45.29988" lon="4.45126">
        <ele>1128</ele>
        <time>2021-02-07T09:51:22Z</time>
      </trkpt>
      <trkpt lat="45.29979" lon="4.45116">
        <ele>1129</ele>
        <time>2021-02-07T09:51:25Z</time>
      </trkpt>
      <trkpt lat="45.2997" lon="4.45105">
        <ele>1128</ele>
        <time>2021-02-07T09:51:29Z</time>
      </trkpt>
      <trkpt lat="45.29961" lon="4.45093">
        <ele>1128</ele>
        <time>2021-02-07T09:51:33Z</time>
      </trkpt>
      <trkpt lat="45.29956" lon="4.45087">
        <ele>1128</ele>
        <time>2021-02-07T09:51:35Z</time>
      </trkpt>
      <trkpt lat="45.29947" lon="4.45077">
        <ele>1128</ele>
        <time>2021-02-07T09:51:39Z</time>
      </trkpt>
      <trkpt lat="45.29938" lon="4.45069">
        <ele>1128</ele>
        <time>2021-02-07T09:51:43Z</time>
      </trkpt>
      <trkpt lat="45.29927" lon="4.45064">
        <ele>1128</ele>
        <time>2021-02-07T09:51:47Z</time>
      </trkpt>
      <trkpt lat="45.29915" lon="4.45061">
        <ele>1126</ele>
        <time>2021-02-07T09:51:51Z</time>
      </trkpt>
      <trkpt lat="45.29903" lon="4.45058">
        <ele>1124</ele>
        <time>2021-02-07T09:51:55Z</time>
      </trkpt>
      <trkpt lat="45.29891" lon="4.45055">
        <ele>1124</ele>
        <time>2021-02-07T09:51:59Z</time>
      </trkpt>
      <trkpt lat="45.29884" lon="4.45054">
        <ele>1123</ele>
        <time>2021-02-07T09:52:01Z</time>
      </trkpt>
      <trkpt lat="45.29876" lon="4.45052">
        <ele>1123</ele>
        <time>2021-02-07T09:52:04Z</time>
      </trkpt>
      <trkpt lat="45.2987" lon="4.45051">
        <ele>1122</ele>
        <time>2021-02-07T09:52:06Z</time>
      </trkpt>
      <trkpt lat="45.29867" lon="4.45051">
        <ele>1121</ele>
        <time>2021-02-07T09:52:07Z</time>
      </trkpt>
      <trkpt lat="45.29861" lon="4.45049">
        <ele>1120</ele>
        <time>2021-02-07T09:52:09Z</time>
      </trkpt>
      <trkpt lat="45.29854" lon="4.45047">
        <ele>1119</ele>
        <time>2021-02-07T09:52:11Z</time>
      </trkpt>
      <trkpt lat="45.2985" lon="4.45047">
        <ele>1119</ele>
        <time>2021-02-07T09:52:12Z</time>
      </trkpt>
      <trkpt lat="45.29843" lon="4.45045">
        <ele>1118</ele>
        <time>2021-02-07T09:52:14Z</time>
      </trkpt>
      <trkpt lat="45.2984" lon="4.45044">
        <ele>1118</ele>
        <time>2021-02-07T09:52:15Z</time>
      </trkpt>
      <trkpt lat="45.29833" lon="4.45042">
        <ele>1118</ele>
        <time>2021-02-07T09:52:17Z</time>
      </trkpt>
      <trkpt lat="45.29826" lon="4.45042">
        <ele>1117</ele>
        <time>2021-02-07T09:52:19Z</time>
      </trkpt>
      <trkpt lat="45.2982" lon="4.4504">
        <ele>1117</ele>
        <time>2021-02-07T09:52:21Z</time>
      </trkpt>
      <trkpt lat="45.29813" lon="4.45038">
        <ele>1116</ele>
        <time>2021-02-07T09:52:23Z</time>
      </trkpt>
      <trkpt lat="45.29806" lon="4.45037">
        <ele>1116</ele>
        <time>2021-02-07T09:52:25Z</time>
      </trkpt>
      <trkpt lat="45.29799" lon="4.45037">
        <ele>1116</ele>
        <time>2021-02-07T09:52:27Z</time>
      </trkpt>
      <trkpt lat="45.29795" lon="4.45037">
        <ele>1116</ele>
        <time>2021-02-07T09:52:28Z</time>
      </trkpt>
      <trkpt lat="45.29789" lon="4.45038">
        <ele>1117</ele>
        <time>2021-02-07T09:52:30Z</time>
      </trkpt>
      <trkpt lat="45.29784" lon="4.4504">
        <ele>1115</ele>
        <time>2021-02-07T09:52:32Z</time>
      </trkpt>
      <trkpt lat="45.2978" lon="4.45044">
        <ele>1114</ele>
        <time>2021-02-07T09:52:34Z</time>
      </trkpt>
      <trkpt lat="45.29778" lon="4.45059">
        <ele>1114</ele>
        <time>2021-02-07T09:52:38Z</time>
      </trkpt>
      <trkpt lat="45.29779" lon="4.45069">
        <ele>1114</ele>
        <time>2021-02-07T09:52:40Z</time>
      </trkpt>
      <trkpt lat="45.2978" lon="4.45078">
        <ele>1113</ele>
        <time>2021-02-07T09:52:42Z</time>
      </trkpt>
      <trkpt lat="45.29782" lon="4.45087">
        <ele>1112</ele>
        <time>2021-02-07T09:52:44Z</time>
      </trkpt>
      <trkpt lat="45.29783" lon="4.45094">
        <ele>1112</ele>
        <time>2021-02-07T09:52:46Z</time>
      </trkpt>
      <trkpt lat="45.29786" lon="4.45102">
        <ele>1112</ele>
        <time>2021-02-07T09:52:48Z</time>
      </trkpt>
      <trkpt lat="45.29788" lon="4.45111">
        <ele>1111</ele>
        <time>2021-02-07T09:52:50Z</time>
      </trkpt>
      <trkpt lat="45.29789" lon="4.4512">
        <ele>1110</ele>
        <time>2021-02-07T09:52:52Z</time>
      </trkpt>
      <trkpt lat="45.29789" lon="4.4513">
        <ele>1108</ele>
        <time>2021-02-07T09:52:54Z</time>
      </trkpt>
      <trkpt lat="45.2979" lon="4.45135">
        <ele>1108</ele>
        <time>2021-02-07T09:52:55Z</time>
      </trkpt>
      <trkpt lat="45.2979" lon="4.45145">
        <ele>1108</ele>
        <time>2021-02-07T09:52:57Z</time>
      </trkpt>
      <trkpt lat="45.2979" lon="4.45154">
        <ele>1107</ele>
        <time>2021-02-07T09:52:59Z</time>
      </trkpt>
      <trkpt lat="45.29789" lon="4.45163">
        <ele>1108</ele>
        <time>2021-02-07T09:53:01Z</time>
      </trkpt>
      <trkpt lat="45.29787" lon="4.4517">
        <ele>1108</ele>
        <time>2021-02-07T09:53:03Z</time>
      </trkpt>
      <trkpt lat="45.29784" lon="4.45179">
        <ele>1107</ele>
        <time>2021-02-07T09:53:06Z</time>
      </trkpt>
      <trkpt lat="45.2978" lon="4.45184">
        <ele>1107</ele>
        <time>2021-02-07T09:53:08Z</time>
      </trkpt>
      <trkpt lat="45.29774" lon="4.45187">
        <ele>1106</ele>
        <time>2021-02-07T09:53:10Z</time>
      </trkpt>
      <trkpt lat="45.29763" lon="4.45191">
        <ele>1105</ele>
        <time>2021-02-07T09:53:14Z</time>
      </trkpt>
      <trkpt lat="45.29757" lon="4.45192">
        <ele>1105</ele>
        <time>2021-02-07T09:53:16Z</time>
      </trkpt>
      <trkpt lat="45.29744" lon="4.45195">
        <ele>1104</ele>
        <time>2021-02-07T09:53:20Z</time>
      </trkpt>
      <trkpt lat="45.29737" lon="4.45194">
        <ele>1104</ele>
        <time>2021-02-07T09:53:22Z</time>
      </trkpt>
      <trkpt lat="45.29728" lon="4.45195">
        <ele>1103</ele>
        <time>2021-02-07T09:53:25Z</time>
      </trkpt>
      <trkpt lat="45.29722" lon="4.45196">
        <ele>1102</ele>
        <time>2021-02-07T09:53:27Z</time>
      </trkpt>
      <trkpt lat="45.29719" lon="4.45191">
        <ele>1102</ele>
        <time>2021-02-07T09:53:33Z</time>
      </trkpt>
      <trkpt lat="45.29715" lon="4.45192">
        <ele>1100</ele>
        <time>2021-02-07T09:53:48Z</time>
      </trkpt>
      <trkpt lat="45.29711" lon="4.45192">
        <ele>1099</ele>
        <time>2021-02-07T09:53:53Z</time>
      </trkpt>
      <trkpt lat="45.29706" lon="4.45192">
        <ele>1099</ele>
        <time>2021-02-07T09:53:56Z</time>
      </trkpt>
      <trkpt lat="45.29702" lon="4.45193">
        <ele>1098</ele>
        <time>2021-02-07T09:53:58Z</time>
      </trkpt>
      <trkpt lat="45.29696" lon="4.45194">
        <ele>1098</ele>
        <time>2021-02-07T09:54:01Z</time>
      </trkpt>
      <trkpt lat="45.29692" lon="4.45195">
        <ele>1098</ele>
        <time>2021-02-07T09:54:03Z</time>
      </trkpt>
      <trkpt lat="45.29686" lon="4.45196">
        <ele>1097</ele>
        <time>2021-02-07T09:54:05Z</time>
      </trkpt>
      <trkpt lat="45.29679" lon="4.45197">
        <ele>1095</ele>
        <time>2021-02-07T09:54:07Z</time>
      </trkpt>
      <trkpt lat="45.29675" lon="4.45198">
        <ele>1093</ele>
        <time>2021-02-07T09:54:08Z</time>
      </trkpt>
      <trkpt lat="45.29663" lon="4.45198">
        <ele>1094</ele>
        <time>2021-02-07T09:54:11Z</time>
      </trkpt>
      <trkpt lat="45.29652" lon="4.45195">
        <ele>1094</ele>
        <time>2021-02-07T09:54:14Z</time>
      </trkpt>
      <trkpt lat="45.2964" lon="4.4519">
        <ele>1091</ele>
        <time>2021-02-07T09:54:18Z</time>
      </trkpt>
      <trkpt lat="45.29627" lon="4.45188">
        <ele>1089</ele>
        <time>2021-02-07T09:54:22Z</time>
      </trkpt>
      <trkpt lat="45.29617" lon="4.45187">
        <ele>1087</ele>
        <time>2021-02-07T09:54:26Z</time>
      </trkpt>
      <trkpt lat="45.29605" lon="4.45182">
        <ele>1085</ele>
        <time>2021-02-07T09:54:30Z</time>
      </trkpt>
      <trkpt lat="45.29596" lon="4.45173">
        <ele>1083</ele>
        <time>2021-02-07T09:54:34Z</time>
      </trkpt>
      <trkpt lat="45.29587" lon="4.4516">
        <ele>1080</ele>
        <time>2021-02-07T09:54:39Z</time>
      </trkpt>
      <trkpt lat="45.29578" lon="4.4515">
        <ele>1080</ele>
        <time>2021-02-07T09:54:43Z</time>
      </trkpt>
      <trkpt lat="45.29568" lon="4.45138">
        <ele>1077</ele>
        <time>2021-02-07T09:54:47Z</time>
      </trkpt>
      <trkpt lat="45.29558" lon="4.45125">
        <ele>1074</ele>
        <time>2021-02-07T09:54:51Z</time>
      </trkpt>
      <trkpt lat="45.29552" lon="4.45112">
        <ele>1072</ele>
        <time>2021-02-07T09:54:54Z</time>
      </trkpt>
      <trkpt lat="45.29542" lon="4.45099">
        <ele>1070</ele>
        <time>2021-02-07T09:54:58Z</time>
      </trkpt>
      <trkpt lat="45.29533" lon="4.4509">
        <ele>1067</ele>
        <time>2021-02-07T09:55:03Z</time>
      </trkpt>
      <trkpt lat="45.29536" lon="4.45079">
        <ele>1067</ele>
        <time>2021-02-07T09:55:11Z</time>
      </trkpt>
      <trkpt lat="45.29534" lon="4.45075">
        <ele>1065</ele>
        <time>2021-02-07T09:55:16Z</time>
      </trkpt>
      <trkpt lat="45.29529" lon="4.4509">
        <ele>1064</ele>
        <time>2021-02-07T09:55:37Z</time>
      </trkpt>
      <trkpt lat="45.29517" lon="4.45083">
        <ele>1061</ele>
        <time>2021-02-07T09:55:46Z</time>
      </trkpt>
      <trkpt lat="45.29507" lon="4.45072">
        <ele>1061</ele>
        <time>2021-02-07T09:55:50Z</time>
      </trkpt>
      <trkpt lat="45.29498" lon="4.45065">
        <ele>1061</ele>
        <time>2021-02-07T09:55:54Z</time>
      </trkpt>
      <trkpt lat="45.29492" lon="4.45058">
        <ele>1061</ele>
        <time>2021-02-07T09:55:59Z</time>
      </trkpt>
      <trkpt lat="45.2949" lon="4.45049">
        <ele>1061</ele>
        <time>2021-02-07T09:56:03Z</time>
      </trkpt>
      <trkpt lat="45.29489" lon="4.45042">
        <ele>1061</ele>
        <time>2021-02-07T09:56:05Z</time>
      </trkpt>
      <trkpt lat="45.29488" lon="4.45034">
        <ele>1061</ele>
        <time>2021-02-07T09:56:07Z</time>
      </trkpt>
      <trkpt lat="45.2948" lon="4.4502">
        <ele>1060</ele>
        <time>2021-02-07T09:56:12Z</time>
      </trkpt>
      <trkpt lat="45.29476" lon="4.4501">
        <ele>1060</ele>
        <time>2021-02-07T09:56:15Z</time>
      </trkpt>
      <trkpt lat="45.29465" lon="4.45003">
        <ele>1058</ele>
        <time>2021-02-07T09:56:22Z</time>
      </trkpt>
      <trkpt lat="45.29455" lon="4.44993">
        <ele>1058</ele>
        <time>2021-02-07T09:56:29Z</time>
      </trkpt>
      <trkpt lat="45.29448" lon="4.44982">
        <ele>1058</ele>
        <time>2021-02-07T09:56:34Z</time>
      </trkpt>
      <trkpt lat="45.29444" lon="4.44967">
        <ele>1058</ele>
        <time>2021-02-07T09:56:41Z</time>
      </trkpt>
      <trkpt lat="45.29442" lon="4.44962">
        <ele>1058</ele>
        <time>2021-02-07T09:56:45Z</time>
      </trkpt>
      <trkpt lat="45.29442" lon="4.44957">
        <ele>1058</ele>
        <time>2021-02-07T09:56:50Z</time>
      </trkpt>
      <trkpt lat="45.2944" lon="4.44952">
        <ele>1058</ele>
        <time>2021-02-07T09:56:54Z</time>
      </trkpt>
      <trkpt lat="45.29437" lon="4.44946">
        <ele>1058</ele>
        <time>2021-02-07T09:56:57Z</time>
      </trkpt>
      <trkpt lat="45.29431" lon="4.44932">
        <ele>1059</ele>
        <time>2021-02-07T09:57:03Z</time>
      </trkpt>
      <trkpt lat="45.29427" lon="4.44927">
        <ele>1059</ele>
        <time>2021-02-07T09:57:06Z</time>
      </trkpt>
      <trkpt lat="45.29426" lon="4.44922">
        <ele>1059</ele>
        <time>2021-02-07T09:57:10Z</time>
      </trkpt>
      <trkpt lat="45.29425" lon="4.44916">
        <ele>1059</ele>
        <time>2021-02-07T09:58:10Z</time>
      </trkpt>
      <trkpt lat="45.29421" lon="4.44912">
        <ele>1059</ele>
        <time>2021-02-07T09:58:12Z</time>
      </trkpt>
      <trkpt lat="45.29417" lon="4.44908">
        <ele>1059</ele>
        <time>2021-02-07T09:58:14Z</time>
      </trkpt>
      <trkpt lat="45.29407" lon="4.44897">
        <ele>1059</ele>
        <time>2021-02-07T09:58:18Z</time>
      </trkpt>
      <trkpt lat="45.29397" lon="4.44888">
        <ele>1060</ele>
        <time>2021-02-07T09:58:23Z</time>
      </trkpt>
      <trkpt lat="45.29387" lon="4.44879">
        <ele>1061</ele>
        <time>2021-02-07T09:58:28Z</time>
      </trkpt>
      <trkpt lat="45.29377" lon="4.44874">
        <ele>1061</ele>
        <time>2021-02-07T09:58:35Z</time>
      </trkpt>
      <trkpt lat="45.29366" lon="4.44871">
        <ele>1062</ele>
        <time>2021-02-07T09:58:40Z</time>
      </trkpt>
      <trkpt lat="45.29362" lon="4.44869">
        <ele>1063</ele>
        <time>2021-02-07T09:58:42Z</time>
      </trkpt>
      <trkpt lat="45.29358" lon="4.44866">
        <ele>1063</ele>
        <time>2021-02-07T09:58:45Z</time>
      </trkpt>
      <trkpt lat="45.29348" lon="4.44858">
        <ele>1063</ele>
        <time>2021-02-07T09:58:51Z</time>
      </trkpt>
      <trkpt lat="45.29348" lon="4.44846">
        <ele>1064</ele>
        <time>2021-02-07T09:58:55Z</time>
      </trkpt>
      <trkpt lat="45.29347" lon="4.4484">
        <ele>1064</ele>
        <time>2021-02-07T09:58:57Z</time>
      </trkpt>
      <trkpt lat="45.29343" lon="4.44826">
        <ele>1065</ele>
        <time>2021-02-07T09:59:03Z</time>
      </trkpt>
      <trkpt lat="45.29341" lon="4.44805">
        <ele>1065</ele>
        <time>2021-02-07T09:59:09Z</time>
      </trkpt>
      <trkpt lat="45.29339" lon="4.44789">
        <ele>1065</ele>
        <time>2021-02-07T09:59:14Z</time>
      </trkpt>
      <trkpt lat="45.29338" lon="4.44773">
        <ele>1065</ele>
        <time>2021-02-07T09:59:20Z</time>
      </trkpt>
      <trkpt lat="45.29336" lon="4.44769">
        <ele>1065</ele>
        <time>2021-02-07T09:59:27Z</time>
      </trkpt>
      <trkpt lat="45.29333" lon="4.44764">
        <ele>1066</ele>
        <time>2021-02-07T09:59:32Z</time>
      </trkpt>
      <trkpt lat="45.29331" lon="4.4476">
        <ele>1065</ele>
        <time>2021-02-07T09:59:37Z</time>
      </trkpt>
      <trkpt lat="45.29328" lon="4.44757">
        <ele>1065</ele>
        <time>2021-02-07T09:59:40Z</time>
      </trkpt>
      <trkpt lat="45.29325" lon="4.44753">
        <ele>1065</ele>
        <time>2021-02-07T09:59:44Z</time>
      </trkpt>
      <trkpt lat="45.29323" lon="4.44749">
        <ele>1065</ele>
        <time>2021-02-07T09:59:47Z</time>
      </trkpt>
      <trkpt lat="45.2932" lon="4.44745">
        <ele>1065</ele>
        <time>2021-02-07T09:59:50Z</time>
      </trkpt>
      <trkpt lat="45.29317" lon="4.4474">
        <ele>1065</ele>
        <time>2021-02-07T09:59:54Z</time>
      </trkpt>
      <trkpt lat="45.29313" lon="4.44737">
        <ele>1066</ele>
        <time>2021-02-07T09:59:57Z</time>
      </trkpt>
      <trkpt lat="45.2931" lon="4.44733">
        <ele>1066</ele>
        <time>2021-02-07T10:00:01Z</time>
      </trkpt>
      <trkpt lat="45.29306" lon="4.44729">
        <ele>1066</ele>
        <time>2021-02-07T10:00:05Z</time>
      </trkpt>
      <trkpt lat="45.29304" lon="4.44725">
        <ele>1066</ele>
        <time>2021-02-07T10:00:08Z</time>
      </trkpt>
      <trkpt lat="45.29303" lon="4.44719">
        <ele>1066</ele>
        <time>2021-02-07T10:00:17Z</time>
      </trkpt>
      <trkpt lat="45.29301" lon="4.44714">
        <ele>1066</ele>
        <time>2021-02-07T10:00:21Z</time>
      </trkpt>
      <trkpt lat="45.29298" lon="4.4471">
        <ele>1066</ele>
        <time>2021-02-07T10:00:25Z</time>
      </trkpt>
      <trkpt lat="45.29294" lon="4.44708">
        <ele>1067</ele>
        <time>2021-02-07T10:00:29Z</time>
      </trkpt>
      <trkpt lat="45.29287" lon="4.44709">
        <ele>1067</ele>
        <time>2021-02-07T10:00:36Z</time>
      </trkpt>
      <trkpt lat="45.29283" lon="4.44711">
        <ele>1068</ele>
        <time>2021-02-07T10:00:41Z</time>
      </trkpt>
      <trkpt lat="45.29279" lon="4.44712">
        <ele>1068</ele>
        <time>2021-02-07T10:00:46Z</time>
      </trkpt>
      <trkpt lat="45.29275" lon="4.44711">
        <ele>1067</ele>
        <time>2021-02-07T10:00:50Z</time>
      </trkpt>
      <trkpt lat="45.29275" lon="4.44706">
        <ele>1067</ele>
        <time>2021-02-07T10:01:01Z</time>
      </trkpt>
      <trkpt lat="45.29272" lon="4.44704">
        <ele>1067</ele>
        <time>2021-02-07T10:01:18Z</time>
      </trkpt>
      <trkpt lat="45.29269" lon="4.447">
        <ele>1067</ele>
        <time>2021-02-07T10:01:20Z</time>
      </trkpt>
      <trkpt lat="45.29265" lon="4.44695">
        <ele>1067</ele>
        <time>2021-02-07T10:01:22Z</time>
      </trkpt>
      <trkpt lat="45.29256" lon="4.44683">
        <ele>1066</ele>
        <time>2021-02-07T10:01:26Z</time>
      </trkpt>
      <trkpt lat="45.29246" lon="4.44672">
        <ele>1066</ele>
        <time>2021-02-07T10:01:30Z</time>
      </trkpt>
      <trkpt lat="45.29236" lon="4.44663">
        <ele>1066</ele>
        <time>2021-02-07T10:01:34Z</time>
      </trkpt>
      <trkpt lat="45.29227" lon="4.4465">
        <ele>1065</ele>
        <time>2021-02-07T10:01:38Z</time>
      </trkpt>
      <trkpt lat="45.29223" lon="4.44642">
        <ele>1063</ele>
        <time>2021-02-07T10:01:40Z</time>
      </trkpt>
      <trkpt lat="45.2922" lon="4.44634">
        <ele>1063</ele>
        <time>2021-02-07T10:01:42Z</time>
      </trkpt>
      <trkpt lat="45.29211" lon="4.44624">
        <ele>1062</ele>
        <time>2021-02-07T10:01:46Z</time>
      </trkpt>
      <trkpt lat="45.29199" lon="4.44614">
        <ele>1062</ele>
        <time>2021-02-07T10:01:51Z</time>
      </trkpt>
      <trkpt lat="45.29188" lon="4.44603">
        <ele>1063</ele>
        <time>2021-02-07T10:01:56Z</time>
      </trkpt>
      <trkpt lat="45.29178" lon="4.4459">
        <ele>1062</ele>
        <time>2021-02-07T10:02:00Z</time>
      </trkpt>
      <trkpt lat="45.2917" lon="4.44579">
        <ele>1062</ele>
        <time>2021-02-07T10:02:05Z</time>
      </trkpt>
      <trkpt lat="45.29158" lon="4.44577">
        <ele>1061</ele>
        <time>2021-02-07T10:02:13Z</time>
      </trkpt>
      <trkpt lat="45.29153" lon="4.44578">
        <ele>1060</ele>
        <time>2021-02-07T10:02:16Z</time>
      </trkpt>
      <trkpt lat="45.29148" lon="4.44578">
        <ele>1059</ele>
        <time>2021-02-07T10:02:19Z</time>
      </trkpt>
      <trkpt lat="45.29137" lon="4.44575">
        <ele>1057</ele>
        <time>2021-02-07T10:02:25Z</time>
      </trkpt>
      <trkpt lat="45.29128" lon="4.44564">
        <ele>1057</ele>
        <time>2021-02-07T10:02:30Z</time>
      </trkpt>
      <trkpt lat="45.29119" lon="4.44552">
        <ele>1056</ele>
        <time>2021-02-07T10:02:35Z</time>
      </trkpt>
      <trkpt lat="45.29113" lon="4.44545">
        <ele>1056</ele>
        <time>2021-02-07T10:02:38Z</time>
      </trkpt>
      <trkpt lat="45.2911" lon="4.44539">
        <ele>1056</ele>
        <time>2021-02-07T10:02:40Z</time>
      </trkpt>
      <trkpt lat="45.29101" lon="4.44529">
        <ele>1055</ele>
        <time>2021-02-07T10:02:44Z</time>
      </trkpt>
      <trkpt lat="45.29097" lon="4.44524">
        <ele>1055</ele>
        <time>2021-02-07T10:02:46Z</time>
      </trkpt>
      <trkpt lat="45.29093" lon="4.44517">
        <ele>1054</ele>
        <time>2021-02-07T10:02:48Z</time>
      </trkpt>
      <trkpt lat="45.29084" lon="4.44507">
        <ele>1051</ele>
        <time>2021-02-07T10:02:54Z</time>
      </trkpt>
      <trkpt lat="45.29079" lon="4.4452">
        <ele>1047</ele>
        <time>2021-02-07T10:03:00Z</time>
      </trkpt>
      <trkpt lat="45.29071" lon="4.44531">
        <ele>1044</ele>
        <time>2021-02-07T10:03:07Z</time>
      </trkpt>
      <trkpt lat="45.2906" lon="4.44528">
        <ele>1040</ele>
        <time>2021-02-07T10:03:13Z</time>
      </trkpt>
      <trkpt lat="45.29049" lon="4.44531">
        <ele>1037</ele>
        <time>2021-02-07T10:03:20Z</time>
      </trkpt>
      <trkpt lat="45.29039" lon="4.44521">
        <ele>1034</ele>
        <time>2021-02-07T10:03:28Z</time>
      </trkpt>
      <trkpt lat="45.29029" lon="4.44515">
        <ele>1033</ele>
        <time>2021-02-07T10:03:40Z</time>
      </trkpt>
      <trkpt lat="45.29024" lon="4.445">
        <ele>1033</ele>
        <time>2021-02-07T10:03:48Z</time>
      </trkpt>
      <trkpt lat="45.29028" lon="4.445">
        <ele>1032</ele>
        <time>2021-02-07T10:03:57Z</time>
      </trkpt>
      <trkpt lat="45.29035" lon="4.44499">
        <ele>1031</ele>
        <time>2021-02-07T10:04:31Z</time>
      </trkpt>
      <trkpt lat="45.29038" lon="4.44502">
        <ele>1031</ele>
        <time>2021-02-07T10:04:41Z</time>
      </trkpt>
      <trkpt lat="45.29032" lon="4.44496">
        <ele>1031</ele>
        <time>2021-02-07T10:05:11Z</time>
      </trkpt>
      <trkpt lat="45.29026" lon="4.44489">
        <ele>1031</ele>
        <time>2021-02-07T10:05:15Z</time>
      </trkpt>
      <trkpt lat="45.29022" lon="4.44487">
        <ele>1032</ele>
        <time>2021-02-07T10:05:17Z</time>
      </trkpt>
      <trkpt lat="45.29018" lon="4.44485">
        <ele>1033</ele>
        <time>2021-02-07T10:05:19Z</time>
      </trkpt>
      <trkpt lat="45.29014" lon="4.44485">
        <ele>1034</ele>
        <time>2021-02-07T10:05:21Z</time>
      </trkpt>
      <trkpt lat="45.2901" lon="4.44484">
        <ele>1035</ele>
        <time>2021-02-07T10:05:23Z</time>
      </trkpt>
      <trkpt lat="45.29005" lon="4.44479">
        <ele>1035</ele>
        <time>2021-02-07T10:05:25Z</time>
      </trkpt>
      <trkpt lat="45.28997" lon="4.44468">
        <ele>1036</ele>
        <time>2021-02-07T10:05:29Z</time>
      </trkpt>
      <trkpt lat="45.28993" lon="4.44462">
        <ele>1037</ele>
        <time>2021-02-07T10:05:31Z</time>
      </trkpt>
      <trkpt lat="45.28984" lon="4.44451">
        <ele>1037</ele>
        <time>2021-02-07T10:05:35Z</time>
      </trkpt>
      <trkpt lat="45.28981" lon="4.44446">
        <ele>1037</ele>
        <time>2021-02-07T10:05:37Z</time>
      </trkpt>
      <trkpt lat="45.28978" lon="4.4444">
        <ele>1037</ele>
        <time>2021-02-07T10:05:39Z</time>
      </trkpt>
      <trkpt lat="45.28975" lon="4.44436">
        <ele>1038</ele>
        <time>2021-02-07T10:05:41Z</time>
      </trkpt>
      <trkpt lat="45.28973" lon="4.44431">
        <ele>1039</ele>
        <time>2021-02-07T10:05:43Z</time>
      </trkpt>
      <trkpt lat="45.2897" lon="4.44426">
        <ele>1040</ele>
        <time>2021-02-07T10:05:46Z</time>
      </trkpt>
      <trkpt lat="45.28963" lon="4.44414">
        <ele>1041</ele>
        <time>2021-02-07T10:05:54Z</time>
      </trkpt>
      <trkpt lat="45.28961" lon="4.4441">
        <ele>1042</ele>
        <time>2021-02-07T10:05:57Z</time>
      </trkpt>
      <trkpt lat="45.28958" lon="4.44406">
        <ele>1043</ele>
        <time>2021-02-07T10:06:00Z</time>
      </trkpt>
      <trkpt lat="45.28956" lon="4.444">
        <ele>1043</ele>
        <time>2021-02-07T10:06:03Z</time>
      </trkpt>
      <trkpt lat="45.28954" lon="4.44397">
        <ele>1044</ele>
        <time>2021-02-07T10:06:06Z</time>
      </trkpt>
      <trkpt lat="45.28948" lon="4.44386">
        <ele>1044</ele>
        <time>2021-02-07T10:06:12Z</time>
      </trkpt>
      <trkpt lat="45.28946" lon="4.44383">
        <ele>1045</ele>
        <time>2021-02-07T10:06:15Z</time>
      </trkpt>
      <trkpt lat="45.28944" lon="4.44378">
        <ele>1045</ele>
        <time>2021-02-07T10:06:18Z</time>
      </trkpt>
      <trkpt lat="45.2894" lon="4.44375">
        <ele>1045</ele>
        <time>2021-02-07T10:06:21Z</time>
      </trkpt>
      <trkpt lat="45.28936" lon="4.44371">
        <ele>1046</ele>
        <time>2021-02-07T10:06:24Z</time>
      </trkpt>
      <trkpt lat="45.28927" lon="4.44361">
        <ele>1048</ele>
        <time>2021-02-07T10:06:31Z</time>
      </trkpt>
      <trkpt lat="45.28918" lon="4.44351">
        <ele>1049</ele>
        <time>2021-02-07T10:06:41Z</time>
      </trkpt>
      <trkpt lat="45.28911" lon="4.4434">
        <ele>1052</ele>
        <time>2021-02-07T10:06:53Z</time>
      </trkpt>
      <trkpt lat="45.28904" lon="4.44327">
        <ele>1055</ele>
        <time>2021-02-07T10:07:07Z</time>
      </trkpt>
      <trkpt lat="45.28895" lon="4.44318">
        <ele>1056</ele>
        <time>2021-02-07T10:07:16Z</time>
      </trkpt>
      <trkpt lat="45.28889" lon="4.44316">
        <ele>1057</ele>
        <time>2021-02-07T10:07:19Z</time>
      </trkpt>
      <trkpt lat="45.28884" lon="4.44313">
        <ele>1057</ele>
        <time>2021-02-07T10:07:21Z</time>
      </trkpt>
      <trkpt lat="45.28879" lon="4.44311">
        <ele>1057</ele>
        <time>2021-02-07T10:07:23Z</time>
      </trkpt>
      <trkpt lat="45.28874" lon="4.44309">
        <ele>1057</ele>
        <time>2021-02-07T10:07:25Z</time>
      </trkpt>
      <trkpt lat="45.2887" lon="4.44308">
        <ele>1057</ele>
        <time>2021-02-07T10:07:27Z</time>
      </trkpt>
      <trkpt lat="45.28866" lon="4.44307">
        <ele>1057</ele>
        <time>2021-02-07T10:07:29Z</time>
      </trkpt>
      <trkpt lat="45.28861" lon="4.44304">
        <ele>1057</ele>
        <time>2021-02-07T10:07:32Z</time>
      </trkpt>
      <trkpt lat="45.28856" lon="4.44304">
        <ele>1058</ele>
        <time>2021-02-07T10:07:35Z</time>
      </trkpt>
      <trkpt lat="45.28852" lon="4.44304">
        <ele>1059</ele>
        <time>2021-02-07T10:07:38Z</time>
      </trkpt>
      <trkpt lat="45.28848" lon="4.44305">
        <ele>1059</ele>
        <time>2021-02-07T10:07:40Z</time>
      </trkpt>
      <trkpt lat="45.28843" lon="4.44306">
        <ele>1058</ele>
        <time>2021-02-07T10:07:43Z</time>
      </trkpt>
      <trkpt lat="45.2884" lon="4.44308">
        <ele>1059</ele>
        <time>2021-02-07T10:07:46Z</time>
      </trkpt>
      <trkpt lat="45.28836" lon="4.44312">
        <ele>1059</ele>
        <time>2021-02-07T10:07:49Z</time>
      </trkpt>
      <trkpt lat="45.28832" lon="4.44315">
        <ele>1060</ele>
        <time>2021-02-07T10:07:52Z</time>
      </trkpt>
      <trkpt lat="45.28826" lon="4.44317">
        <ele>1060</ele>
        <time>2021-02-07T10:07:55Z</time>
      </trkpt>
      <trkpt lat="45.28817" lon="4.44324">
        <ele>1060</ele>
        <time>2021-02-07T10:08:02Z</time>
      </trkpt>
      <trkpt lat="45.28808" lon="4.44335">
        <ele>1062</ele>
        <time>2021-02-07T10:08:10Z</time>
      </trkpt>
      <trkpt lat="45.28799" lon="4.44343">
        <ele>1062</ele>
        <time>2021-02-07T10:08:17Z</time>
      </trkpt>
      <trkpt lat="45.28788" lon="4.4435">
        <ele>1063</ele>
        <time>2021-02-07T10:08:25Z</time>
      </trkpt>
      <trkpt lat="45.28778" lon="4.44356">
        <ele>1064</ele>
        <time>2021-02-07T10:08:32Z</time>
      </trkpt>
      <trkpt lat="45.28767" lon="4.44361">
        <ele>1064</ele>
        <time>2021-02-07T10:08:37Z</time>
      </trkpt>
      <trkpt lat="45.28757" lon="4.44367">
        <ele>1066</ele>
        <time>2021-02-07T10:08:42Z</time>
      </trkpt>
      <trkpt lat="45.28746" lon="4.44373">
        <ele>1066</ele>
        <time>2021-02-07T10:08:47Z</time>
      </trkpt>
      <trkpt lat="45.28738" lon="4.44383">
        <ele>1068</ele>
        <time>2021-02-07T10:08:54Z</time>
      </trkpt>
      <trkpt lat="45.2873" lon="4.44396">
        <ele>1070</ele>
        <time>2021-02-07T10:09:02Z</time>
      </trkpt>
      <trkpt lat="45.28722" lon="4.44408">
        <ele>1071</ele>
        <time>2021-02-07T10:09:12Z</time>
      </trkpt>
      <trkpt lat="45.28711" lon="4.44417">
        <ele>1072</ele>
        <time>2021-02-07T10:09:20Z</time>
      </trkpt>
      <trkpt lat="45.28702" lon="4.44426">
        <ele>1072</ele>
        <time>2021-02-07T10:09:26Z</time>
      </trkpt>
      <trkpt lat="45.28692" lon="4.44439">
        <ele>1073</ele>
        <time>2021-02-07T10:09:32Z</time>
      </trkpt>
      <trkpt lat="45.28681" lon="4.44445">
        <ele>1073</ele>
        <time>2021-02-07T10:09:37Z</time>
      </trkpt>
      <trkpt lat="45.28674" lon="4.4445">
        <ele>1074</ele>
        <time>2021-02-07T10:09:43Z</time>
      </trkpt>
      <trkpt lat="45.28672" lon="4.44454">
        <ele>1075</ele>
        <time>2021-02-07T10:09:46Z</time>
      </trkpt>
      <trkpt lat="45.28667" lon="4.4446">
        <ele>1075</ele>
        <time>2021-02-07T10:09:51Z</time>
      </trkpt>
      <trkpt lat="45.28664" lon="4.44464">
        <ele>1076</ele>
        <time>2021-02-07T10:09:58Z</time>
      </trkpt>
      <trkpt lat="45.28659" lon="4.44465">
        <ele>1076</ele>
        <time>2021-02-07T10:10:01Z</time>
      </trkpt>
      <trkpt lat="45.28654" lon="4.44468">
        <ele>1076</ele>
        <time>2021-02-07T10:10:04Z</time>
      </trkpt>
      <trkpt lat="45.28648" lon="4.4447">
        <ele>1076</ele>
        <time>2021-02-07T10:10:06Z</time>
      </trkpt>
      <trkpt lat="45.28638" lon="4.44473">
        <ele>1076</ele>
        <time>2021-02-07T10:10:10Z</time>
      </trkpt>
      <trkpt lat="45.28626" lon="4.44476">
        <ele>1075</ele>
        <time>2021-02-07T10:10:14Z</time>
      </trkpt>
      <trkpt lat="45.28615" lon="4.4448">
        <ele>1074</ele>
        <time>2021-02-07T10:10:18Z</time>
      </trkpt>
      <trkpt lat="45.28605" lon="4.44486">
        <ele>1074</ele>
        <time>2021-02-07T10:10:22Z</time>
      </trkpt>
      <trkpt lat="45.28595" lon="4.44491">
        <ele>1074</ele>
        <time>2021-02-07T10:10:25Z</time>
      </trkpt>
      <trkpt lat="45.28584" lon="4.44494">
        <ele>1073</ele>
        <time>2021-02-07T10:10:29Z</time>
      </trkpt>
      <trkpt lat="45.2858" lon="4.44494">
        <ele>1073</ele>
        <time>2021-02-07T10:10:30Z</time>
      </trkpt>
      <trkpt lat="45.28576" lon="4.44495">
        <ele>1073</ele>
        <time>2021-02-07T10:10:31Z</time>
      </trkpt>
      <trkpt lat="45.28572" lon="4.44494">
        <ele>1073</ele>
        <time>2021-02-07T10:10:32Z</time>
      </trkpt>
      <trkpt lat="45.28568" lon="4.44494">
        <ele>1073</ele>
        <time>2021-02-07T10:10:33Z</time>
      </trkpt>
      <trkpt lat="45.28564" lon="4.44493">
        <ele>1073</ele>
        <time>2021-02-07T10:10:34Z</time>
      </trkpt>
      <trkpt lat="45.28557" lon="4.44491">
        <ele>1073</ele>
        <time>2021-02-07T10:10:36Z</time>
      </trkpt>
      <trkpt lat="45.2855" lon="4.44488">
        <ele>1072</ele>
        <time>2021-02-07T10:10:38Z</time>
      </trkpt>
      <trkpt lat="45.28547" lon="4.44487">
        <ele>1072</ele>
        <time>2021-02-07T10:10:39Z</time>
      </trkpt>
      <trkpt lat="45.2854" lon="4.44483">
        <ele>1072</ele>
        <time>2021-02-07T10:10:41Z</time>
      </trkpt>
      <trkpt lat="45.28534" lon="4.4448">
        <ele>1071</ele>
        <time>2021-02-07T10:10:43Z</time>
      </trkpt>
      <trkpt lat="45.28527" lon="4.44477">
        <ele>1071</ele>
        <time>2021-02-07T10:10:45Z</time>
      </trkpt>
      <trkpt lat="45.28521" lon="4.44474">
        <ele>1071</ele>
        <time>2021-02-07T10:10:47Z</time>
      </trkpt>
      <trkpt lat="45.28508" lon="4.44467">
        <ele>1070</ele>
        <time>2021-02-07T10:10:51Z</time>
      </trkpt>
      <trkpt lat="45.28501" lon="4.44464">
        <ele>1070</ele>
        <time>2021-02-07T10:10:53Z</time>
      </trkpt>
      <trkpt lat="45.28494" lon="4.4446">
        <ele>1070</ele>
        <time>2021-02-07T10:10:55Z</time>
      </trkpt>
      <trkpt lat="45.28488" lon="4.44457">
        <ele>1070</ele>
        <time>2021-02-07T10:10:57Z</time>
      </trkpt>
      <trkpt lat="45.28483" lon="4.44453">
        <ele>1070</ele>
        <time>2021-02-07T10:10:59Z</time>
      </trkpt>
      <trkpt lat="45.28477" lon="4.44449">
        <ele>1070</ele>
        <time>2021-02-07T10:11:01Z</time>
      </trkpt>
      <trkpt lat="45.28472" lon="4.44447">
        <ele>1069</ele>
        <time>2021-02-07T10:11:03Z</time>
      </trkpt>
      <trkpt lat="45.28467" lon="4.44443">
        <ele>1069</ele>
        <time>2021-02-07T10:11:05Z</time>
      </trkpt>
      <trkpt lat="45.28462" lon="4.44441">
        <ele>1069</ele>
        <time>2021-02-07T10:11:07Z</time>
      </trkpt>
      <trkpt lat="45.28457" lon="4.44438">
        <ele>1069</ele>
        <time>2021-02-07T10:11:09Z</time>
      </trkpt>
      <trkpt lat="45.28452" lon="4.44436">
        <ele>1068</ele>
        <time>2021-02-07T10:11:11Z</time>
      </trkpt>
      <trkpt lat="45.28446" lon="4.44435">
        <ele>1068</ele>
        <time>2021-02-07T10:11:13Z</time>
      </trkpt>
      <trkpt lat="45.28441" lon="4.44432">
        <ele>1067</ele>
        <time>2021-02-07T10:11:15Z</time>
      </trkpt>
      <trkpt lat="45.28435" lon="4.4443">
        <ele>1068</ele>
        <time>2021-02-07T10:11:17Z</time>
      </trkpt>
      <trkpt lat="45.2843" lon="4.44428">
        <ele>1068</ele>
        <time>2021-02-07T10:11:19Z</time>
      </trkpt>
      <trkpt lat="45.28425" lon="4.44425">
        <ele>1068</ele>
        <time>2021-02-07T10:11:21Z</time>
      </trkpt>
      <trkpt lat="45.2842" lon="4.44423">
        <ele>1068</ele>
        <time>2021-02-07T10:11:23Z</time>
      </trkpt>
      <trkpt lat="45.28414" lon="4.44421">
        <ele>1067</ele>
        <time>2021-02-07T10:11:25Z</time>
      </trkpt>
      <trkpt lat="45.2841" lon="4.4442">
        <ele>1067</ele>
        <time>2021-02-07T10:11:27Z</time>
      </trkpt>
      <trkpt lat="45.28405" lon="4.44421">
        <ele>1067</ele>
        <time>2021-02-07T10:11:29Z</time>
      </trkpt>
      <trkpt lat="45.284" lon="4.44421">
        <ele>1067</ele>
        <time>2021-02-07T10:11:31Z</time>
      </trkpt>
      <trkpt lat="45.28395" lon="4.44421">
        <ele>1067</ele>
        <time>2021-02-07T10:11:33Z</time>
      </trkpt>
      <trkpt lat="45.2839" lon="4.44422">
        <ele>1067</ele>
        <time>2021-02-07T10:11:35Z</time>
      </trkpt>
      <trkpt lat="45.28386" lon="4.44425">
        <ele>1067</ele>
        <time>2021-02-07T10:11:37Z</time>
      </trkpt>
      <trkpt lat="45.2838" lon="4.44427">
        <ele>1067</ele>
        <time>2021-02-07T10:11:39Z</time>
      </trkpt>
      <trkpt lat="45.28375" lon="4.44428">
        <ele>1067</ele>
        <time>2021-02-07T10:11:41Z</time>
      </trkpt>
      <trkpt lat="45.28369" lon="4.44429">
        <ele>1067</ele>
        <time>2021-02-07T10:11:43Z</time>
      </trkpt>
      <trkpt lat="45.28365" lon="4.44425">
        <ele>1067</ele>
        <time>2021-02-07T10:11:47Z</time>
      </trkpt>
      <trkpt lat="45.28361" lon="4.44424">
        <ele>1067</ele>
        <time>2021-02-07T10:11:52Z</time>
      </trkpt>
      <trkpt lat="45.28357" lon="4.44422">
        <ele>1067</ele>
        <time>2021-02-07T10:11:56Z</time>
      </trkpt>
      <trkpt lat="45.28354" lon="4.44419">
        <ele>1067</ele>
        <time>2021-02-07T10:12:00Z</time>
      </trkpt>
      <trkpt lat="45.2835" lon="4.44419">
        <ele>1067</ele>
        <time>2021-02-07T10:12:03Z</time>
      </trkpt>
      <trkpt lat="45.28345" lon="4.4442">
        <ele>1068</ele>
        <time>2021-02-07T10:12:05Z</time>
      </trkpt>
      <trkpt lat="45.2834" lon="4.44423">
        <ele>1068</ele>
        <time>2021-02-07T10:12:07Z</time>
      </trkpt>
      <trkpt lat="45.28336" lon="4.44425">
        <ele>1068</ele>
        <time>2021-02-07T10:12:09Z</time>
      </trkpt>
      <trkpt lat="45.28336" lon="4.44433">
        <ele>1068</ele>
        <time>2021-02-07T10:12:11Z</time>
      </trkpt>
      <trkpt lat="45.28337" lon="4.44439">
        <ele>1069</ele>
        <time>2021-02-07T10:12:13Z</time>
      </trkpt>
      <trkpt lat="45.28337" lon="4.44445">
        <ele>1070</ele>
        <time>2021-02-07T10:12:15Z</time>
      </trkpt>
      <trkpt lat="45.28336" lon="4.44449">
        <ele>1071</ele>
        <time>2021-02-07T10:12:18Z</time>
      </trkpt>
    </trkseg>
  </trk>
</gpx>